<?xml version="1.0" encoding="UTF-8" standalone="no" ?>
<gpx xmlns="http://www.topografix.com/GPX/1/1" xmlns:xsi="http://www.w3.org/2001/XMLSchema-instance" xsi:schemaLocation="http://www.topografix.com/GPX/1/1 http://www.topografix.com/GPX/1/1/gpx.xsd" version="1.1" creator="VisuGPX - https://www.visugpx.com">
  <metadata>
    <name>VIRIGNEUX 26                            </name>
    <desc><![CDATA[VIRIGNEUX RANDO 26 KM]]></desc>
  </metadata>
  <trk>
    <name><![CDATA[VIRIGNEUX]]></name>
    <trkseg>
      <trkpt lat="45.68688" lon="4.35463">
        <ele>528.86</ele>
        <time>2016-02-21T08:12:57Z</time>
      </trkpt>
      <trkpt lat="45.68687" lon="4.35461">
        <ele>527.9</ele>
        <time>2016-02-21T08:12:58Z</time>
      </trkpt>
      <trkpt lat="45.68667" lon="4.35456">
        <ele>532.23</ele>
        <time>2016-02-21T08:13:16Z</time>
      </trkpt>
      <trkpt lat="45.68648" lon="4.35445">
        <ele>528.86</ele>
        <time>2016-02-21T08:13:34Z</time>
      </trkpt>
      <trkpt lat="45.68635" lon="4.35429">
        <ele>525.02</ele>
        <time>2016-02-21T08:13:48Z</time>
      </trkpt>
      <trkpt lat="45.68616" lon="4.35414">
        <ele>522.61</ele>
        <time>2016-02-21T08:14:05Z</time>
      </trkpt>
      <trkpt lat="45.68599" lon="4.35402">
        <ele>519.25</ele>
        <time>2016-02-21T08:14:20Z</time>
      </trkpt>
      <trkpt lat="45.68585" lon="4.35394">
        <ele>516.85</ele>
        <time>2016-02-21T08:14:32Z</time>
      </trkpt>
      <trkpt lat="45.68569" lon="4.35384">
        <ele>513.96</ele>
        <time>2016-02-21T08:14:47Z</time>
      </trkpt>
      <trkpt lat="45.68554" lon="4.35371">
        <ele>509.64</ele>
        <time>2016-02-21T08:15:03Z</time>
      </trkpt>
      <trkpt lat="45.68536" lon="4.3536">
        <ele>505.79</ele>
        <time>2016-02-21T08:15:19Z</time>
      </trkpt>
      <trkpt lat="45.6852" lon="4.35357">
        <ele>502.43</ele>
        <time>2016-02-21T08:15:33Z</time>
      </trkpt>
      <trkpt lat="45.68518" lon="4.35357">
        <ele>501.95</ele>
        <time>2016-02-21T08:15:35Z</time>
      </trkpt>
      <trkpt lat="45.68497" lon="4.35353">
        <ele>498.1</ele>
        <time>2016-02-21T08:15:50Z</time>
      </trkpt>
      <trkpt lat="45.68483" lon="4.35373">
        <ele>496.66</ele>
        <time>2016-02-21T08:16:05Z</time>
      </trkpt>
      <trkpt lat="45.68471" lon="4.35392">
        <ele>496.66</ele>
        <time>2016-02-21T08:16:20Z</time>
      </trkpt>
      <trkpt lat="45.68456" lon="4.35415">
        <ele>498.58</ele>
        <time>2016-02-21T08:16:36Z</time>
      </trkpt>
      <trkpt lat="45.68443" lon="4.35437">
        <ele>498.1</ele>
        <time>2016-02-21T08:16:51Z</time>
      </trkpt>
      <trkpt lat="45.68426" lon="4.35462">
        <ele>499.06</ele>
        <time>2016-02-21T08:17:09Z</time>
      </trkpt>
      <trkpt lat="45.68411" lon="4.35485">
        <ele>498.1</ele>
        <time>2016-02-21T08:17:26Z</time>
      </trkpt>
      <trkpt lat="45.68399" lon="4.35507">
        <ele>494.74</ele>
        <time>2016-02-21T08:17:42Z</time>
      </trkpt>
      <trkpt lat="45.68386" lon="4.35544">
        <ele>490.41</ele>
        <time>2016-02-21T08:18:02Z</time>
      </trkpt>
      <trkpt lat="45.68383" lon="4.35576">
        <ele>488.49</ele>
        <time>2016-02-21T08:18:19Z</time>
      </trkpt>
      <trkpt lat="45.68387" lon="4.35608">
        <ele>487.53</ele>
        <time>2016-02-21T08:18:36Z</time>
      </trkpt>
      <trkpt lat="45.68385" lon="4.35638">
        <ele>486.08</ele>
        <time>2016-02-21T08:18:52Z</time>
      </trkpt>
      <trkpt lat="45.68381" lon="4.35659">
        <ele>485.12</ele>
        <time>2016-02-21T08:19:08Z</time>
      </trkpt>
      <trkpt lat="45.68373" lon="4.35683">
        <ele>484.64</ele>
        <time>2016-02-21T08:19:23Z</time>
      </trkpt>
      <trkpt lat="45.6837" lon="4.35687">
        <ele>484.16</ele>
        <time>2016-02-21T08:19:26Z</time>
      </trkpt>
      <trkpt lat="45.68368" lon="4.3569">
        <ele>483.68</ele>
        <time>2016-02-21T08:19:28Z</time>
      </trkpt>
      <trkpt lat="45.68363" lon="4.35702">
        <ele>483.2</ele>
        <time>2016-02-21T08:19:35Z</time>
      </trkpt>
      <trkpt lat="45.6835" lon="4.35733">
        <ele>481.28</ele>
        <time>2016-02-21T08:19:52Z</time>
      </trkpt>
      <trkpt lat="45.68344" lon="4.35755">
        <ele>479.84</ele>
        <time>2016-02-21T08:20:06Z</time>
      </trkpt>
      <trkpt lat="45.68333" lon="4.3579">
        <ele>478.39</ele>
        <time>2016-02-21T08:20:23Z</time>
      </trkpt>
      <trkpt lat="45.68323" lon="4.35831">
        <ele>480.32</ele>
        <time>2016-02-21T08:20:43Z</time>
      </trkpt>
      <trkpt lat="45.68317" lon="4.35871">
        <ele>479.35</ele>
        <time>2016-02-21T08:21:03Z</time>
      </trkpt>
      <trkpt lat="45.68308" lon="4.35908">
        <ele>484.16</ele>
        <time>2016-02-21T08:21:22Z</time>
      </trkpt>
      <trkpt lat="45.683" lon="4.3594">
        <ele>488.01</ele>
        <time>2016-02-21T08:21:40Z</time>
      </trkpt>
      <trkpt lat="45.68293" lon="4.35973">
        <ele>490.41</ele>
        <time>2016-02-21T08:21:58Z</time>
      </trkpt>
      <trkpt lat="45.68294" lon="4.36007">
        <ele>490.89</ele>
        <time>2016-02-21T08:22:15Z</time>
      </trkpt>
      <trkpt lat="45.68297" lon="4.36027">
        <ele>489.93</ele>
        <time>2016-02-21T08:22:28Z</time>
      </trkpt>
      <trkpt lat="45.68301" lon="4.36049">
        <ele>488.97</ele>
        <time>2016-02-21T08:22:43Z</time>
      </trkpt>
      <trkpt lat="45.68301" lon="4.36074">
        <ele>488.97</ele>
        <time>2016-02-21T08:22:56Z</time>
      </trkpt>
      <trkpt lat="45.68302" lon="4.36086">
        <ele>488.01</ele>
        <time>2016-02-21T08:23:05Z</time>
      </trkpt>
      <trkpt lat="45.68306" lon="4.36121">
        <ele>485.6</ele>
        <time>2016-02-21T08:23:19Z</time>
      </trkpt>
      <trkpt lat="45.68308" lon="4.36149">
        <ele>485.12</ele>
        <time>2016-02-21T08:23:34Z</time>
      </trkpt>
      <trkpt lat="45.68312" lon="4.3618">
        <ele>484.64</ele>
        <time>2016-02-21T08:23:49Z</time>
      </trkpt>
      <trkpt lat="45.68315" lon="4.36209">
        <ele>484.64</ele>
        <time>2016-02-21T08:24:05Z</time>
      </trkpt>
      <trkpt lat="45.68314" lon="4.36247">
        <ele>484.16</ele>
        <time>2016-02-21T08:24:21Z</time>
      </trkpt>
      <trkpt lat="45.68315" lon="4.36277">
        <ele>486.08</ele>
        <time>2016-02-21T08:24:36Z</time>
      </trkpt>
      <trkpt lat="45.68317" lon="4.36294">
        <ele>483.68</ele>
        <time>2016-02-21T08:24:48Z</time>
      </trkpt>
      <trkpt lat="45.6832" lon="4.36305">
        <ele>483.2</ele>
        <time>2016-02-21T08:24:54Z</time>
      </trkpt>
      <trkpt lat="45.68322" lon="4.36324">
        <ele>481.28</ele>
        <time>2016-02-21T08:25:03Z</time>
      </trkpt>
      <trkpt lat="45.68315" lon="4.36352">
        <ele>487.05</ele>
        <time>2016-02-21T08:25:12Z</time>
      </trkpt>
      <trkpt lat="45.68317" lon="4.36369">
        <ele>488.01</ele>
        <time>2016-02-21T08:25:24Z</time>
      </trkpt>
      <trkpt lat="45.6833" lon="4.3638">
        <ele>488.49</ele>
        <time>2016-02-21T08:25:38Z</time>
      </trkpt>
      <trkpt lat="45.6834" lon="4.36392">
        <ele>489.45</ele>
        <time>2016-02-21T08:25:47Z</time>
      </trkpt>
      <trkpt lat="45.68345" lon="4.364">
        <ele>489.93</ele>
        <time>2016-02-21T08:25:51Z</time>
      </trkpt>
      <trkpt lat="45.6835" lon="4.36411">
        <ele>490.41</ele>
        <time>2016-02-21T08:25:56Z</time>
      </trkpt>
      <trkpt lat="45.68358" lon="4.36422">
        <ele>489.45</ele>
        <time>2016-02-21T08:26:09Z</time>
      </trkpt>
      <trkpt lat="45.68374" lon="4.3644">
        <ele>488.49</ele>
        <time>2016-02-21T08:26:22Z</time>
      </trkpt>
      <trkpt lat="45.68385" lon="4.3647">
        <ele>489.45</ele>
        <time>2016-02-21T08:26:38Z</time>
      </trkpt>
      <trkpt lat="45.68381" lon="4.36472">
        <ele>489.93</ele>
        <time>2016-02-21T08:26:43Z</time>
      </trkpt>
      <trkpt lat="45.68373" lon="4.36502">
        <ele>490.41</ele>
        <time>2016-02-21T08:26:59Z</time>
      </trkpt>
      <trkpt lat="45.68361" lon="4.36527">
        <ele>491.37</ele>
        <time>2016-02-21T08:27:15Z</time>
      </trkpt>
      <trkpt lat="45.68345" lon="4.36549">
        <ele>492.81</ele>
        <time>2016-02-21T08:27:31Z</time>
      </trkpt>
      <trkpt lat="45.68331" lon="4.36571">
        <ele>495.22</ele>
        <time>2016-02-21T08:27:47Z</time>
      </trkpt>
      <trkpt lat="45.68318" lon="4.36586">
        <ele>498.58</ele>
        <time>2016-02-21T08:28:02Z</time>
      </trkpt>
      <trkpt lat="45.68295" lon="4.36597">
        <ele>504.83</ele>
        <time>2016-02-21T08:28:18Z</time>
      </trkpt>
      <trkpt lat="45.68276" lon="4.36606">
        <ele>508.19</ele>
        <time>2016-02-21T08:28:34Z</time>
      </trkpt>
      <trkpt lat="45.68257" lon="4.36605">
        <ele>513.48</ele>
        <time>2016-02-21T08:28:48Z</time>
      </trkpt>
      <trkpt lat="45.68237" lon="4.36601">
        <ele>518.29</ele>
        <time>2016-02-21T08:29:04Z</time>
      </trkpt>
      <trkpt lat="45.6822" lon="4.366">
        <ele>520.69</ele>
        <time>2016-02-21T08:29:20Z</time>
      </trkpt>
      <trkpt lat="45.68218" lon="4.366">
        <ele>521.17</ele>
        <time>2016-02-21T08:29:22Z</time>
      </trkpt>
      <trkpt lat="45.68212" lon="4.36602">
        <ele>523.09</ele>
        <time>2016-02-21T08:29:27Z</time>
      </trkpt>
      <trkpt lat="45.6821" lon="4.36609">
        <ele>523.58</ele>
        <time>2016-02-21T08:29:31Z</time>
      </trkpt>
      <trkpt lat="45.6821" lon="4.36622">
        <ele>524.54</ele>
        <time>2016-02-21T08:29:38Z</time>
      </trkpt>
      <trkpt lat="45.68208" lon="4.36648">
        <ele>523.58</ele>
        <time>2016-02-21T08:29:53Z</time>
      </trkpt>
      <trkpt lat="45.68205" lon="4.36652">
        <ele>525.02</ele>
        <time>2016-02-21T08:29:57Z</time>
      </trkpt>
      <trkpt lat="45.68188" lon="4.36666">
        <ele>528.86</ele>
        <time>2016-02-21T08:30:13Z</time>
      </trkpt>
      <trkpt lat="45.68182" lon="4.36665">
        <ele>530.3</ele>
        <time>2016-02-21T08:30:17Z</time>
      </trkpt>
      <trkpt lat="45.68165" lon="4.36658">
        <ele>532.71</ele>
        <time>2016-02-21T08:30:31Z</time>
      </trkpt>
      <trkpt lat="45.68147" lon="4.36648">
        <ele>535.11</ele>
        <time>2016-02-21T08:30:49Z</time>
      </trkpt>
      <trkpt lat="45.68127" lon="4.36636">
        <ele>540.4</ele>
        <time>2016-02-21T08:31:07Z</time>
      </trkpt>
      <trkpt lat="45.68112" lon="4.36627">
        <ele>544.72</ele>
        <time>2016-02-21T08:31:20Z</time>
      </trkpt>
      <trkpt lat="45.68094" lon="4.36613">
        <ele>546.17</ele>
        <time>2016-02-21T08:31:38Z</time>
      </trkpt>
      <trkpt lat="45.68086" lon="4.36608">
        <ele>548.57</ele>
        <time>2016-02-21T08:31:45Z</time>
      </trkpt>
      <trkpt lat="45.68071" lon="4.36595">
        <ele>551.93</ele>
        <time>2016-02-21T08:31:59Z</time>
      </trkpt>
      <trkpt lat="45.68051" lon="4.36578">
        <ele>556.26</ele>
        <time>2016-02-21T08:32:17Z</time>
      </trkpt>
      <trkpt lat="45.68042" lon="4.3657">
        <ele>557.7</ele>
        <time>2016-02-21T08:32:26Z</time>
      </trkpt>
      <trkpt lat="45.6803" lon="4.36559">
        <ele>561.55</ele>
        <time>2016-02-21T08:32:39Z</time>
      </trkpt>
      <trkpt lat="45.68013" lon="4.3655">
        <ele>564.43</ele>
        <time>2016-02-21T08:32:52Z</time>
      </trkpt>
      <trkpt lat="45.68001" lon="4.36543">
        <ele>563.95</ele>
        <time>2016-02-21T08:33:01Z</time>
      </trkpt>
      <trkpt lat="45.67979" lon="4.3654">
        <ele>562.03</ele>
        <time>2016-02-21T08:33:17Z</time>
      </trkpt>
      <trkpt lat="45.67962" lon="4.36543">
        <ele>561.55</ele>
        <time>2016-02-21T08:33:31Z</time>
      </trkpt>
      <trkpt lat="45.67944" lon="4.36546">
        <ele>561.55</ele>
        <time>2016-02-21T08:33:47Z</time>
      </trkpt>
      <trkpt lat="45.67931" lon="4.36549">
        <ele>561.55</ele>
        <time>2016-02-21T08:33:56Z</time>
      </trkpt>
      <trkpt lat="45.67912" lon="4.36558">
        <ele>565.87</ele>
        <time>2016-02-21T08:34:10Z</time>
      </trkpt>
      <trkpt lat="45.67892" lon="4.36572">
        <ele>567.32</ele>
        <time>2016-02-21T08:34:27Z</time>
      </trkpt>
      <trkpt lat="45.67871" lon="4.36589">
        <ele>567.32</ele>
        <time>2016-02-21T08:34:43Z</time>
      </trkpt>
      <trkpt lat="45.6786" lon="4.36597">
        <ele>565.87</ele>
        <time>2016-02-21T08:34:52Z</time>
      </trkpt>
      <trkpt lat="45.67847" lon="4.36603">
        <ele>563.95</ele>
        <time>2016-02-21T08:35:01Z</time>
      </trkpt>
      <trkpt lat="45.67823" lon="4.36607">
        <ele>565.39</ele>
        <time>2016-02-21T08:35:17Z</time>
      </trkpt>
      <trkpt lat="45.67797" lon="4.36613">
        <ele>567.32</ele>
        <time>2016-02-21T08:35:35Z</time>
      </trkpt>
      <trkpt lat="45.67774" lon="4.36619">
        <ele>567.8</ele>
        <time>2016-02-21T08:35:52Z</time>
      </trkpt>
      <trkpt lat="45.67751" lon="4.3663">
        <ele>567.32</ele>
        <time>2016-02-21T08:36:09Z</time>
      </trkpt>
      <trkpt lat="45.67736" lon="4.36645">
        <ele>568.28</ele>
        <time>2016-02-21T08:36:23Z</time>
      </trkpt>
      <trkpt lat="45.67715" lon="4.36666">
        <ele>568.76</ele>
        <time>2016-02-21T08:36:40Z</time>
      </trkpt>
      <trkpt lat="45.67697" lon="4.36688">
        <ele>568.28</ele>
        <time>2016-02-21T08:36:56Z</time>
      </trkpt>
      <trkpt lat="45.67679" lon="4.36707">
        <ele>569.24</ele>
        <time>2016-02-21T08:37:12Z</time>
      </trkpt>
      <trkpt lat="45.6766" lon="4.36722">
        <ele>569.72</ele>
        <time>2016-02-21T08:37:28Z</time>
      </trkpt>
      <trkpt lat="45.67659" lon="4.36722">
        <ele>570.2</ele>
        <time>2016-02-21T08:37:29Z</time>
      </trkpt>
      <trkpt lat="45.67639" lon="4.3673">
        <ele>575.01</ele>
        <time>2016-02-21T08:37:43Z</time>
      </trkpt>
      <trkpt lat="45.67634" lon="4.36732">
        <ele>576.45</ele>
        <time>2016-02-21T08:37:47Z</time>
      </trkpt>
      <trkpt lat="45.67611" lon="4.36741">
        <ele>577.41</ele>
        <time>2016-02-21T08:38:05Z</time>
      </trkpt>
      <trkpt lat="45.67583" lon="4.36743">
        <ele>578.37</ele>
        <time>2016-02-21T08:38:23Z</time>
      </trkpt>
      <trkpt lat="45.67552" lon="4.36748">
        <ele>578.85</ele>
        <time>2016-02-21T08:38:45Z</time>
      </trkpt>
      <trkpt lat="45.67523" lon="4.36754">
        <ele>579.33</ele>
        <time>2016-02-21T08:39:05Z</time>
      </trkpt>
      <trkpt lat="45.67495" lon="4.36766">
        <ele>579.81</ele>
        <time>2016-02-21T08:39:24Z</time>
      </trkpt>
      <trkpt lat="45.67473" lon="4.36779">
        <ele>579.81</ele>
        <time>2016-02-21T08:39:41Z</time>
      </trkpt>
      <trkpt lat="45.67447" lon="4.3678">
        <ele>574.53</ele>
        <time>2016-02-21T08:39:59Z</time>
      </trkpt>
      <trkpt lat="45.67432" lon="4.36779">
        <ele>573.08</ele>
        <time>2016-02-21T08:40:09Z</time>
      </trkpt>
      <trkpt lat="45.6741" lon="4.36798">
        <ele>575.97</ele>
        <time>2016-02-21T08:40:28Z</time>
      </trkpt>
      <trkpt lat="45.67408" lon="4.36801">
        <ele>576.45</ele>
        <time>2016-02-21T08:40:31Z</time>
      </trkpt>
      <trkpt lat="45.67404" lon="4.36799">
        <ele>576.93</ele>
        <time>2016-02-21T08:40:35Z</time>
      </trkpt>
      <trkpt lat="45.67392" lon="4.36773">
        <ele>577.89</ele>
        <time>2016-02-21T08:40:52Z</time>
      </trkpt>
      <trkpt lat="45.67389" lon="4.36767">
        <ele>577.89</ele>
        <time>2016-02-21T08:40:56Z</time>
      </trkpt>
      <trkpt lat="45.67378" lon="4.36743">
        <ele>580.77</ele>
        <time>2016-02-21T08:41:11Z</time>
      </trkpt>
      <trkpt lat="45.67366" lon="4.36736">
        <ele>584.14</ele>
        <time>2016-02-21T08:41:23Z</time>
      </trkpt>
      <trkpt lat="45.67365" lon="4.36736">
        <ele>584.14</ele>
        <time>2016-02-21T08:41:24Z</time>
      </trkpt>
      <trkpt lat="45.6736" lon="4.3674">
        <ele>585.58</ele>
        <time>2016-02-21T08:41:31Z</time>
      </trkpt>
      <trkpt lat="45.67344" lon="4.36757">
        <ele>589.43</ele>
        <time>2016-02-21T08:41:47Z</time>
      </trkpt>
      <trkpt lat="45.67334" lon="4.3677">
        <ele>591.35</ele>
        <time>2016-02-21T08:41:58Z</time>
      </trkpt>
      <trkpt lat="45.67324" lon="4.36781">
        <ele>593.75</ele>
        <time>2016-02-21T08:42:09Z</time>
      </trkpt>
      <trkpt lat="45.6731" lon="4.36798">
        <ele>595.67</ele>
        <time>2016-02-21T08:42:24Z</time>
      </trkpt>
      <trkpt lat="45.67298" lon="4.36807">
        <ele>598.08</ele>
        <time>2016-02-21T08:42:37Z</time>
      </trkpt>
      <trkpt lat="45.67283" lon="4.36822">
        <ele>600</ele>
        <time>2016-02-21T08:42:52Z</time>
      </trkpt>
      <trkpt lat="45.67271" lon="4.36835">
        <ele>603.36</ele>
        <time>2016-02-21T08:43:04Z</time>
      </trkpt>
      <trkpt lat="45.67262" lon="4.36858">
        <ele>607.21</ele>
        <time>2016-02-21T08:43:19Z</time>
      </trkpt>
      <trkpt lat="45.67259" lon="4.36877">
        <ele>608.17</ele>
        <time>2016-02-21T08:43:30Z</time>
      </trkpt>
      <trkpt lat="45.67257" lon="4.36893">
        <ele>610.09</ele>
        <time>2016-02-21T08:43:42Z</time>
      </trkpt>
      <trkpt lat="45.67255" lon="4.36923">
        <ele>611.54</ele>
        <time>2016-02-21T08:43:58Z</time>
      </trkpt>
      <trkpt lat="45.67255" lon="4.36931">
        <ele>612.5</ele>
        <time>2016-02-21T08:44:03Z</time>
      </trkpt>
      <trkpt lat="45.67252" lon="4.36946">
        <ele>614.9</ele>
        <time>2016-02-21T08:44:12Z</time>
      </trkpt>
      <trkpt lat="45.67251" lon="4.36954">
        <ele>614.9</ele>
        <time>2016-02-21T08:44:16Z</time>
      </trkpt>
      <trkpt lat="45.67247" lon="4.36968">
        <ele>615.38</ele>
        <time>2016-02-21T08:44:25Z</time>
      </trkpt>
      <trkpt lat="45.67235" lon="4.36979">
        <ele>617.3</ele>
        <time>2016-02-21T08:44:39Z</time>
      </trkpt>
      <trkpt lat="45.67215" lon="4.36991">
        <ele>618.75</ele>
        <time>2016-02-21T08:44:56Z</time>
      </trkpt>
      <trkpt lat="45.67204" lon="4.36998">
        <ele>619.71</ele>
        <time>2016-02-21T08:45:07Z</time>
      </trkpt>
      <trkpt lat="45.67196" lon="4.36994">
        <ele>620.19</ele>
        <time>2016-02-21T08:45:23Z</time>
      </trkpt>
      <trkpt lat="45.67197" lon="4.36995">
        <ele>619.23</ele>
        <time>2016-02-21T08:45:36Z</time>
      </trkpt>
      <trkpt lat="45.67197" lon="4.36995">
        <ele>618.75</ele>
        <time>2016-02-21T08:45:49Z</time>
      </trkpt>
      <trkpt lat="45.67197" lon="4.36995">
        <ele>617.78</ele>
        <time>2016-02-21T08:46:20Z</time>
      </trkpt>
      <trkpt lat="45.67197" lon="4.36994">
        <ele>618.26</ele>
        <time>2016-02-21T08:46:22Z</time>
      </trkpt>
      <trkpt lat="45.67192" lon="4.36969">
        <ele>618.26</ele>
        <time>2016-02-21T08:46:38Z</time>
      </trkpt>
      <trkpt lat="45.67182" lon="4.36934">
        <ele>617.3</ele>
        <time>2016-02-21T08:46:57Z</time>
      </trkpt>
      <trkpt lat="45.67169" lon="4.36894">
        <ele>616.34</ele>
        <time>2016-02-21T08:47:18Z</time>
      </trkpt>
      <trkpt lat="45.67159" lon="4.36847">
        <ele>615.38</ele>
        <time>2016-02-21T08:47:41Z</time>
      </trkpt>
      <trkpt lat="45.6715" lon="4.36795">
        <ele>614.42</ele>
        <time>2016-02-21T08:48:06Z</time>
      </trkpt>
      <trkpt lat="45.67143" lon="4.36753">
        <ele>614.9</ele>
        <time>2016-02-21T08:48:26Z</time>
      </trkpt>
      <trkpt lat="45.67137" lon="4.36707">
        <ele>615.38</ele>
        <time>2016-02-21T08:48:48Z</time>
      </trkpt>
      <trkpt lat="45.67132" lon="4.36668">
        <ele>615.86</ele>
        <time>2016-02-21T08:49:07Z</time>
      </trkpt>
      <trkpt lat="45.67125" lon="4.3662">
        <ele>617.78</ele>
        <time>2016-02-21T08:49:29Z</time>
      </trkpt>
      <trkpt lat="45.67122" lon="4.36582">
        <ele>620.19</ele>
        <time>2016-02-21T08:49:48Z</time>
      </trkpt>
      <trkpt lat="45.67116" lon="4.3655">
        <ele>620.67</ele>
        <time>2016-02-21T08:50:04Z</time>
      </trkpt>
      <trkpt lat="45.67111" lon="4.36515">
        <ele>622.11</ele>
        <time>2016-02-21T08:50:22Z</time>
      </trkpt>
      <trkpt lat="45.67105" lon="4.36477">
        <ele>622.59</ele>
        <time>2016-02-21T08:50:42Z</time>
      </trkpt>
      <trkpt lat="45.67102" lon="4.36443">
        <ele>624.51</ele>
        <time>2016-02-21T08:50:59Z</time>
      </trkpt>
      <trkpt lat="45.67095" lon="4.36403">
        <ele>624.99</ele>
        <time>2016-02-21T08:51:19Z</time>
      </trkpt>
      <trkpt lat="45.67091" lon="4.36373">
        <ele>626.44</ele>
        <time>2016-02-21T08:51:35Z</time>
      </trkpt>
      <trkpt lat="45.67085" lon="4.36347">
        <ele>627.4</ele>
        <time>2016-02-21T08:51:48Z</time>
      </trkpt>
      <trkpt lat="45.67076" lon="4.36319">
        <ele>628.36</ele>
        <time>2016-02-21T08:52:03Z</time>
      </trkpt>
      <trkpt lat="45.67075" lon="4.36311">
        <ele>628.36</ele>
        <time>2016-02-21T08:52:08Z</time>
      </trkpt>
      <trkpt lat="45.67072" lon="4.36304">
        <ele>629.32</ele>
        <time>2016-02-21T08:52:12Z</time>
      </trkpt>
      <trkpt lat="45.67072" lon="4.36291">
        <ele>630.76</ele>
        <time>2016-02-21T08:52:19Z</time>
      </trkpt>
      <trkpt lat="45.67071" lon="4.36288">
        <ele>631.24</ele>
        <time>2016-02-21T08:52:21Z</time>
      </trkpt>
      <trkpt lat="45.67071" lon="4.36268">
        <ele>635.09</ele>
        <time>2016-02-21T08:52:33Z</time>
      </trkpt>
      <trkpt lat="45.67075" lon="4.36247">
        <ele>639.89</ele>
        <time>2016-02-21T08:52:46Z</time>
      </trkpt>
      <trkpt lat="45.67077" lon="4.36226">
        <ele>643.26</ele>
        <time>2016-02-21T08:52:59Z</time>
      </trkpt>
      <trkpt lat="45.67076" lon="4.36191">
        <ele>643.74</ele>
        <time>2016-02-21T08:53:15Z</time>
      </trkpt>
      <trkpt lat="45.67076" lon="4.36162">
        <ele>641.34</ele>
        <time>2016-02-21T08:53:29Z</time>
      </trkpt>
      <trkpt lat="45.67071" lon="4.36129">
        <ele>639.89</ele>
        <time>2016-02-21T08:53:45Z</time>
      </trkpt>
      <trkpt lat="45.67061" lon="4.361">
        <ele>641.82</ele>
        <time>2016-02-21T08:54:02Z</time>
      </trkpt>
      <trkpt lat="45.67053" lon="4.36078">
        <ele>644.7</ele>
        <time>2016-02-21T08:54:16Z</time>
      </trkpt>
      <trkpt lat="45.67049" lon="4.36066">
        <ele>646.14</ele>
        <time>2016-02-21T08:54:23Z</time>
      </trkpt>
      <trkpt lat="45.67035" lon="4.3603">
        <ele>648.55</ele>
        <time>2016-02-21T08:54:43Z</time>
      </trkpt>
      <trkpt lat="45.67021" lon="4.36004">
        <ele>646.62</ele>
        <time>2016-02-21T08:54:58Z</time>
      </trkpt>
      <trkpt lat="45.67007" lon="4.35975">
        <ele>647.59</ele>
        <time>2016-02-21T08:55:16Z</time>
      </trkpt>
      <trkpt lat="45.66993" lon="4.35945">
        <ele>648.55</ele>
        <time>2016-02-21T08:55:34Z</time>
      </trkpt>
      <trkpt lat="45.66985" lon="4.35914">
        <ele>650.47</ele>
        <time>2016-02-21T08:55:51Z</time>
      </trkpt>
      <trkpt lat="45.66984" lon="4.35898">
        <ele>650.47</ele>
        <time>2016-02-21T08:56:02Z</time>
      </trkpt>
      <trkpt lat="45.66985" lon="4.35871">
        <ele>653.35</ele>
        <time>2016-02-21T08:56:18Z</time>
      </trkpt>
      <trkpt lat="45.66985" lon="4.35861">
        <ele>654.31</ele>
        <time>2016-02-21T08:56:24Z</time>
      </trkpt>
      <trkpt lat="45.66983" lon="4.35847">
        <ele>655.76</ele>
        <time>2016-02-21T08:56:33Z</time>
      </trkpt>
      <trkpt lat="45.66981" lon="4.35837">
        <ele>656.72</ele>
        <time>2016-02-21T08:56:39Z</time>
      </trkpt>
      <trkpt lat="45.6698" lon="4.35805">
        <ele>658.64</ele>
        <time>2016-02-21T08:56:56Z</time>
      </trkpt>
      <trkpt lat="45.66972" lon="4.35776">
        <ele>658.16</ele>
        <time>2016-02-21T08:57:12Z</time>
      </trkpt>
      <trkpt lat="45.66957" lon="4.35752">
        <ele>658.16</ele>
        <time>2016-02-21T08:57:30Z</time>
      </trkpt>
      <trkpt lat="45.66947" lon="4.35735">
        <ele>657.2</ele>
        <time>2016-02-21T08:57:43Z</time>
      </trkpt>
      <trkpt lat="45.66935" lon="4.35707">
        <ele>655.28</ele>
        <time>2016-02-21T08:57:59Z</time>
      </trkpt>
      <trkpt lat="45.66922" lon="4.35677">
        <ele>654.8</ele>
        <time>2016-02-21T08:58:15Z</time>
      </trkpt>
      <trkpt lat="45.66921" lon="4.35675">
        <ele>654.31</ele>
        <time>2016-02-21T08:58:16Z</time>
      </trkpt>
      <trkpt lat="45.66915" lon="4.35645">
        <ele>653.83</ele>
        <time>2016-02-21T08:58:33Z</time>
      </trkpt>
      <trkpt lat="45.66909" lon="4.35609">
        <ele>654.8</ele>
        <time>2016-02-21T08:58:51Z</time>
      </trkpt>
      <trkpt lat="45.669" lon="4.35568">
        <ele>655.28</ele>
        <time>2016-02-21T08:59:12Z</time>
      </trkpt>
      <trkpt lat="45.66894" lon="4.35535">
        <ele>656.24</ele>
        <time>2016-02-21T08:59:30Z</time>
      </trkpt>
      <trkpt lat="45.66884" lon="4.35498">
        <ele>657.68</ele>
        <time>2016-02-21T08:59:51Z</time>
      </trkpt>
      <trkpt lat="45.66876" lon="4.35468">
        <ele>657.2</ele>
        <time>2016-02-21T09:00:08Z</time>
      </trkpt>
      <trkpt lat="45.66872" lon="4.35435">
        <ele>655.28</ele>
        <time>2016-02-21T09:00:27Z</time>
      </trkpt>
      <trkpt lat="45.66872" lon="4.35428">
        <ele>655.28</ele>
        <time>2016-02-21T09:00:31Z</time>
      </trkpt>
      <trkpt lat="45.66869" lon="4.35403">
        <ele>652.87</ele>
        <time>2016-02-21T09:00:46Z</time>
      </trkpt>
      <trkpt lat="45.66865" lon="4.35377">
        <ele>650.47</ele>
        <time>2016-02-21T09:01:01Z</time>
      </trkpt>
      <trkpt lat="45.6686" lon="4.35343">
        <ele>649.03</ele>
        <time>2016-02-21T09:01:19Z</time>
      </trkpt>
      <trkpt lat="45.66852" lon="4.3531">
        <ele>647.1</ele>
        <time>2016-02-21T09:01:36Z</time>
      </trkpt>
      <trkpt lat="45.66845" lon="4.35276">
        <ele>643.74</ele>
        <time>2016-02-21T09:01:52Z</time>
      </trkpt>
      <trkpt lat="45.6684" lon="4.35249">
        <ele>641.82</ele>
        <time>2016-02-21T09:02:06Z</time>
      </trkpt>
      <trkpt lat="45.66833" lon="4.3521">
        <ele>640.38</ele>
        <time>2016-02-21T09:02:25Z</time>
      </trkpt>
      <trkpt lat="45.66826" lon="4.35164">
        <ele>638.45</ele>
        <time>2016-02-21T09:02:47Z</time>
      </trkpt>
      <trkpt lat="45.66816" lon="4.35115">
        <ele>637.01</ele>
        <time>2016-02-21T09:03:11Z</time>
      </trkpt>
      <trkpt lat="45.66807" lon="4.3508">
        <ele>635.09</ele>
        <time>2016-02-21T09:03:28Z</time>
      </trkpt>
      <trkpt lat="45.66803" lon="4.35066">
        <ele>633.65</ele>
        <time>2016-02-21T09:03:35Z</time>
      </trkpt>
      <trkpt lat="45.66811" lon="4.3505">
        <ele>633.65</ele>
        <time>2016-02-21T09:03:47Z</time>
      </trkpt>
      <trkpt lat="45.66845" lon="4.35039">
        <ele>632.68</ele>
        <time>2016-02-21T09:04:10Z</time>
      </trkpt>
      <trkpt lat="45.66878" lon="4.3503">
        <ele>633.65</ele>
        <time>2016-02-21T09:04:32Z</time>
      </trkpt>
      <trkpt lat="45.66913" lon="4.35022">
        <ele>630.76</ele>
        <time>2016-02-21T09:04:55Z</time>
      </trkpt>
      <trkpt lat="45.66917" lon="4.35022">
        <ele>630.76</ele>
        <time>2016-02-21T09:04:58Z</time>
      </trkpt>
      <trkpt lat="45.66947" lon="4.35012">
        <ele>629.8</ele>
        <time>2016-02-21T09:05:19Z</time>
      </trkpt>
      <trkpt lat="45.66983" lon="4.34997">
        <ele>626.92</ele>
        <time>2016-02-21T09:05:44Z</time>
      </trkpt>
      <trkpt lat="45.67021" lon="4.34982">
        <ele>624.99</ele>
        <time>2016-02-21T09:06:10Z</time>
      </trkpt>
      <trkpt lat="45.67056" lon="4.3497">
        <ele>622.59</ele>
        <time>2016-02-21T09:06:35Z</time>
      </trkpt>
      <trkpt lat="45.67087" lon="4.34963">
        <ele>619.23</ele>
        <time>2016-02-21T09:06:56Z</time>
      </trkpt>
      <trkpt lat="45.67123" lon="4.34963">
        <ele>618.26</ele>
        <time>2016-02-21T09:07:20Z</time>
      </trkpt>
      <trkpt lat="45.67161" lon="4.34965">
        <ele>617.78</ele>
        <time>2016-02-21T09:07:46Z</time>
      </trkpt>
      <trkpt lat="45.67198" lon="4.34944">
        <ele>617.3</ele>
        <time>2016-02-21T09:08:12Z</time>
      </trkpt>
      <trkpt lat="45.67226" lon="4.34913">
        <ele>617.78</ele>
        <time>2016-02-21T09:08:36Z</time>
      </trkpt>
      <trkpt lat="45.67253" lon="4.34889">
        <ele>617.3</ele>
        <time>2016-02-21T09:08:59Z</time>
      </trkpt>
      <trkpt lat="45.67279" lon="4.34867">
        <ele>614.9</ele>
        <time>2016-02-21T09:09:19Z</time>
      </trkpt>
      <trkpt lat="45.67306" lon="4.34836">
        <ele>612.98</ele>
        <time>2016-02-21T09:09:42Z</time>
      </trkpt>
      <trkpt lat="45.67337" lon="4.34817">
        <ele>610.57</ele>
        <time>2016-02-21T09:10:05Z</time>
      </trkpt>
      <trkpt lat="45.67367" lon="4.34809">
        <ele>610.09</ele>
        <time>2016-02-21T09:10:26Z</time>
      </trkpt>
      <trkpt lat="45.67403" lon="4.34807">
        <ele>608.17</ele>
        <time>2016-02-21T09:10:51Z</time>
      </trkpt>
      <trkpt lat="45.67432" lon="4.34808">
        <ele>607.21</ele>
        <time>2016-02-21T09:11:11Z</time>
      </trkpt>
      <trkpt lat="45.67461" lon="4.34808">
        <ele>606.73</ele>
        <time>2016-02-21T09:11:31Z</time>
      </trkpt>
      <trkpt lat="45.6748" lon="4.3481">
        <ele>604.81</ele>
        <time>2016-02-21T09:11:45Z</time>
      </trkpt>
      <trkpt lat="45.67482" lon="4.34817">
        <ele>603.85</ele>
        <time>2016-02-21T09:11:59Z</time>
      </trkpt>
      <trkpt lat="45.67482" lon="4.34818">
        <ele>603.85</ele>
        <time>2016-02-21T09:12:14Z</time>
      </trkpt>
      <trkpt lat="45.67483" lon="4.3482">
        <ele>603.36</ele>
        <time>2016-02-21T09:12:28Z</time>
      </trkpt>
      <trkpt lat="45.67483" lon="4.34821">
        <ele>602.88</ele>
        <time>2016-02-21T09:12:48Z</time>
      </trkpt>
      <trkpt lat="45.67483" lon="4.34822">
        <ele>602.88</ele>
        <time>2016-02-21T09:13:01Z</time>
      </trkpt>
      <trkpt lat="45.67483" lon="4.34822">
        <ele>602.88</ele>
        <time>2016-02-21T09:13:22Z</time>
      </trkpt>
      <trkpt lat="45.67484" lon="4.34824">
        <ele>602.4</ele>
        <time>2016-02-21T09:13:34Z</time>
      </trkpt>
      <trkpt lat="45.67485" lon="4.34824">
        <ele>602.4</ele>
        <time>2016-02-21T09:13:52Z</time>
      </trkpt>
      <trkpt lat="45.67485" lon="4.34823">
        <ele>602.4</ele>
        <time>2016-02-21T09:14:13Z</time>
      </trkpt>
      <trkpt lat="45.67486" lon="4.34824">
        <ele>601.92</ele>
        <time>2016-02-21T09:14:33Z</time>
      </trkpt>
      <trkpt lat="45.67487" lon="4.34824">
        <ele>601.92</ele>
        <time>2016-02-21T09:14:54Z</time>
      </trkpt>
      <trkpt lat="45.67488" lon="4.34825">
        <ele>601.92</ele>
        <time>2016-02-21T09:15:18Z</time>
      </trkpt>
      <trkpt lat="45.67488" lon="4.34825">
        <ele>602.4</ele>
        <time>2016-02-21T09:15:35Z</time>
      </trkpt>
      <trkpt lat="45.67486" lon="4.34827">
        <ele>601.92</ele>
        <time>2016-02-21T09:15:50Z</time>
      </trkpt>
      <trkpt lat="45.6749" lon="4.34825">
        <ele>601.92</ele>
        <time>2016-02-21T09:16:10Z</time>
      </trkpt>
      <trkpt lat="45.67488" lon="4.34828">
        <ele>601.92</ele>
        <time>2016-02-21T09:16:26Z</time>
      </trkpt>
      <trkpt lat="45.67487" lon="4.34826">
        <ele>601.44</ele>
        <time>2016-02-21T09:16:48Z</time>
      </trkpt>
      <trkpt lat="45.67485" lon="4.34826">
        <ele>601.92</ele>
        <time>2016-02-21T09:17:03Z</time>
      </trkpt>
      <trkpt lat="45.67485" lon="4.34826">
        <ele>600.96</ele>
        <time>2016-02-21T09:17:18Z</time>
      </trkpt>
      <trkpt lat="45.67485" lon="4.34826">
        <ele>600.96</ele>
        <time>2016-02-21T09:17:39Z</time>
      </trkpt>
      <trkpt lat="45.67485" lon="4.34826">
        <ele>600.96</ele>
        <time>2016-02-21T09:17:58Z</time>
      </trkpt>
      <trkpt lat="45.67485" lon="4.34827">
        <ele>600.48</ele>
        <time>2016-02-21T09:18:22Z</time>
      </trkpt>
      <trkpt lat="45.67485" lon="4.34827">
        <ele>600.48</ele>
        <time>2016-02-21T09:18:54Z</time>
      </trkpt>
      <trkpt lat="45.67484" lon="4.34827">
        <ele>600.48</ele>
        <time>2016-02-21T09:19:20Z</time>
      </trkpt>
      <trkpt lat="45.67484" lon="4.34826">
        <ele>600.48</ele>
        <time>2016-02-21T09:19:33Z</time>
      </trkpt>
      <trkpt lat="45.67484" lon="4.34826">
        <ele>600.48</ele>
        <time>2016-02-21T09:19:56Z</time>
      </trkpt>
      <trkpt lat="45.67484" lon="4.34826">
        <ele>600</ele>
        <time>2016-02-21T09:20:17Z</time>
      </trkpt>
      <trkpt lat="45.67483" lon="4.34826">
        <ele>600</ele>
        <time>2016-02-21T09:20:42Z</time>
      </trkpt>
      <trkpt lat="45.67484" lon="4.34827">
        <ele>600</ele>
        <time>2016-02-21T09:21:02Z</time>
      </trkpt>
      <trkpt lat="45.67484" lon="4.34827">
        <ele>600</ele>
        <time>2016-02-21T09:21:23Z</time>
      </trkpt>
      <trkpt lat="45.67484" lon="4.34826">
        <ele>600</ele>
        <time>2016-02-21T09:21:46Z</time>
      </trkpt>
      <trkpt lat="45.67484" lon="4.34826">
        <ele>600</ele>
        <time>2016-02-21T09:22:08Z</time>
      </trkpt>
      <trkpt lat="45.67483" lon="4.34827">
        <ele>600</ele>
        <time>2016-02-21T09:22:30Z</time>
      </trkpt>
      <trkpt lat="45.67483" lon="4.34827">
        <ele>600</ele>
        <time>2016-02-21T09:22:53Z</time>
      </trkpt>
      <trkpt lat="45.67483" lon="4.34827">
        <ele>600</ele>
        <time>2016-02-21T09:23:13Z</time>
      </trkpt>
      <trkpt lat="45.67483" lon="4.34827">
        <ele>600</ele>
        <time>2016-02-21T09:23:36Z</time>
      </trkpt>
      <trkpt lat="45.67483" lon="4.34827">
        <ele>600</ele>
        <time>2016-02-21T09:24:04Z</time>
      </trkpt>
      <trkpt lat="45.67484" lon="4.34826">
        <ele>600</ele>
        <time>2016-02-21T09:24:11Z</time>
      </trkpt>
      <trkpt lat="45.67487" lon="4.34825">
        <ele>600.48</ele>
        <time>2016-02-21T09:24:14Z</time>
      </trkpt>
      <trkpt lat="45.67491" lon="4.34825">
        <ele>601.92</ele>
        <time>2016-02-21T09:24:27Z</time>
      </trkpt>
      <trkpt lat="45.67484" lon="4.34824">
        <ele>605.29</ele>
        <time>2016-02-21T09:24:39Z</time>
      </trkpt>
      <trkpt lat="45.67483" lon="4.34826">
        <ele>604.33</ele>
        <time>2016-02-21T09:25:05Z</time>
      </trkpt>
      <trkpt lat="45.67482" lon="4.34826">
        <ele>603.85</ele>
        <time>2016-02-21T09:25:30Z</time>
      </trkpt>
      <trkpt lat="45.67482" lon="4.34826">
        <ele>603.36</ele>
        <time>2016-02-21T09:25:57Z</time>
      </trkpt>
      <trkpt lat="45.67482" lon="4.34826">
        <ele>602.88</ele>
        <time>2016-02-21T09:26:28Z</time>
      </trkpt>
      <trkpt lat="45.67482" lon="4.34825">
        <ele>602.4</ele>
        <time>2016-02-21T09:26:47Z</time>
      </trkpt>
      <trkpt lat="45.67482" lon="4.34825">
        <ele>601.92</ele>
        <time>2016-02-21T09:27:10Z</time>
      </trkpt>
      <trkpt lat="45.67482" lon="4.34826">
        <ele>601.92</ele>
        <time>2016-02-21T09:27:35Z</time>
      </trkpt>
      <trkpt lat="45.67482" lon="4.34821">
        <ele>602.4</ele>
        <time>2016-02-21T09:27:51Z</time>
      </trkpt>
      <trkpt lat="45.67482" lon="4.34811">
        <ele>603.36</ele>
        <time>2016-02-21T09:28:01Z</time>
      </trkpt>
      <trkpt lat="45.6748" lon="4.34789">
        <ele>605.77</ele>
        <time>2016-02-21T09:28:18Z</time>
      </trkpt>
      <trkpt lat="45.67472" lon="4.34759">
        <ele>607.21</ele>
        <time>2016-02-21T09:28:36Z</time>
      </trkpt>
      <trkpt lat="45.67462" lon="4.34724">
        <ele>608.17</ele>
        <time>2016-02-21T09:28:55Z</time>
      </trkpt>
      <trkpt lat="45.67452" lon="4.34691">
        <ele>607.21</ele>
        <time>2016-02-21T09:29:13Z</time>
      </trkpt>
      <trkpt lat="45.67444" lon="4.34654">
        <ele>606.25</ele>
        <time>2016-02-21T09:29:31Z</time>
      </trkpt>
      <trkpt lat="45.6744" lon="4.34621">
        <ele>604.81</ele>
        <time>2016-02-21T09:29:47Z</time>
      </trkpt>
      <trkpt lat="45.67436" lon="4.34588">
        <ele>604.33</ele>
        <time>2016-02-21T09:30:03Z</time>
      </trkpt>
      <trkpt lat="45.67431" lon="4.34547">
        <ele>604.33</ele>
        <time>2016-02-21T09:30:22Z</time>
      </trkpt>
      <trkpt lat="45.67423" lon="4.34504">
        <ele>604.33</ele>
        <time>2016-02-21T09:30:43Z</time>
      </trkpt>
      <trkpt lat="45.67417" lon="4.34465">
        <ele>601.92</ele>
        <time>2016-02-21T09:31:02Z</time>
      </trkpt>
      <trkpt lat="45.67415" lon="4.34425">
        <ele>599.52</ele>
        <time>2016-02-21T09:31:23Z</time>
      </trkpt>
      <trkpt lat="45.67416" lon="4.34396">
        <ele>597.12</ele>
        <time>2016-02-21T09:31:38Z</time>
      </trkpt>
      <trkpt lat="45.67417" lon="4.3436">
        <ele>594.23</ele>
        <time>2016-02-21T09:31:56Z</time>
      </trkpt>
      <trkpt lat="45.67413" lon="4.34326">
        <ele>592.31</ele>
        <time>2016-02-21T09:32:14Z</time>
      </trkpt>
      <trkpt lat="45.6741" lon="4.34302">
        <ele>591.83</ele>
        <time>2016-02-21T09:32:27Z</time>
      </trkpt>
      <trkpt lat="45.67407" lon="4.34269">
        <ele>591.35</ele>
        <time>2016-02-21T09:32:44Z</time>
      </trkpt>
      <trkpt lat="45.67405" lon="4.3422">
        <ele>587.98</ele>
        <time>2016-02-21T09:33:08Z</time>
      </trkpt>
      <trkpt lat="45.67407" lon="4.34179">
        <ele>585.1</ele>
        <time>2016-02-21T09:33:28Z</time>
      </trkpt>
      <trkpt lat="45.67411" lon="4.34138">
        <ele>582.22</ele>
        <time>2016-02-21T09:33:48Z</time>
      </trkpt>
      <trkpt lat="45.6741" lon="4.34105">
        <ele>579.81</ele>
        <time>2016-02-21T09:34:04Z</time>
      </trkpt>
      <trkpt lat="45.67409" lon="4.34056">
        <ele>578.37</ele>
        <time>2016-02-21T09:34:27Z</time>
      </trkpt>
      <trkpt lat="45.67403" lon="4.33999">
        <ele>575.49</ele>
        <time>2016-02-21T09:34:53Z</time>
      </trkpt>
      <trkpt lat="45.67392" lon="4.33955">
        <ele>575.49</ele>
        <time>2016-02-21T09:35:14Z</time>
      </trkpt>
      <trkpt lat="45.67378" lon="4.33915">
        <ele>575.01</ele>
        <time>2016-02-21T09:35:34Z</time>
      </trkpt>
      <trkpt lat="45.67359" lon="4.33879">
        <ele>574.53</ele>
        <time>2016-02-21T09:35:55Z</time>
      </trkpt>
      <trkpt lat="45.67342" lon="4.33837">
        <ele>574.04</ele>
        <time>2016-02-21T09:36:17Z</time>
      </trkpt>
      <trkpt lat="45.67325" lon="4.33799">
        <ele>574.04</ele>
        <time>2016-02-21T09:36:36Z</time>
      </trkpt>
      <trkpt lat="45.67312" lon="4.33759">
        <ele>570.68</ele>
        <time>2016-02-21T09:36:57Z</time>
      </trkpt>
      <trkpt lat="45.67294" lon="4.33713">
        <ele>568.28</ele>
        <time>2016-02-21T09:37:21Z</time>
      </trkpt>
      <trkpt lat="45.6728" lon="4.3367">
        <ele>567.8</ele>
        <time>2016-02-21T09:37:42Z</time>
      </trkpt>
      <trkpt lat="45.67266" lon="4.33628">
        <ele>564.91</ele>
        <time>2016-02-21T09:38:04Z</time>
      </trkpt>
      <trkpt lat="45.67248" lon="4.33586">
        <ele>560.59</ele>
        <time>2016-02-21T09:38:26Z</time>
      </trkpt>
      <trkpt lat="45.67237" lon="4.3355">
        <ele>561.07</ele>
        <time>2016-02-21T09:38:44Z</time>
      </trkpt>
      <trkpt lat="45.67221" lon="4.33505">
        <ele>558.18</ele>
        <time>2016-02-21T09:39:06Z</time>
      </trkpt>
      <trkpt lat="45.67203" lon="4.33467">
        <ele>557.7</ele>
        <time>2016-02-21T09:39:26Z</time>
      </trkpt>
      <trkpt lat="45.6718" lon="4.33442">
        <ele>556.74</ele>
        <time>2016-02-21T09:39:44Z</time>
      </trkpt>
      <trkpt lat="45.67156" lon="4.33429">
        <ele>554.34</ele>
        <time>2016-02-21T09:40:00Z</time>
      </trkpt>
      <trkpt lat="45.67122" lon="4.33406">
        <ele>550.97</ele>
        <time>2016-02-21T09:40:23Z</time>
      </trkpt>
      <trkpt lat="45.67095" lon="4.33383">
        <ele>549.05</ele>
        <time>2016-02-21T09:40:43Z</time>
      </trkpt>
      <trkpt lat="45.67071" lon="4.33341">
        <ele>548.09</ele>
        <time>2016-02-21T09:41:08Z</time>
      </trkpt>
      <trkpt lat="45.67056" lon="4.33307">
        <ele>546.65</ele>
        <time>2016-02-21T09:41:27Z</time>
      </trkpt>
      <trkpt lat="45.67039" lon="4.33263">
        <ele>543.76</ele>
        <time>2016-02-21T09:41:50Z</time>
      </trkpt>
      <trkpt lat="45.6702" lon="4.33227">
        <ele>536.07</ele>
        <time>2016-02-21T09:42:11Z</time>
      </trkpt>
      <trkpt lat="45.67006" lon="4.33191">
        <ele>534.63</ele>
        <time>2016-02-21T09:42:31Z</time>
      </trkpt>
      <trkpt lat="45.66999" lon="4.33147">
        <ele>529.34</ele>
        <time>2016-02-21T09:42:51Z</time>
      </trkpt>
      <trkpt lat="45.66989" lon="4.33111">
        <ele>527.42</ele>
        <time>2016-02-21T09:43:10Z</time>
      </trkpt>
      <trkpt lat="45.66978" lon="4.33083">
        <ele>525.98</ele>
        <time>2016-02-21T09:43:27Z</time>
      </trkpt>
      <trkpt lat="45.66961" lon="4.33062">
        <ele>520.21</ele>
        <time>2016-02-21T09:43:43Z</time>
      </trkpt>
      <trkpt lat="45.66947" lon="4.33043">
        <ele>515.4</ele>
        <time>2016-02-21T09:43:59Z</time>
      </trkpt>
      <trkpt lat="45.6694" lon="4.33031">
        <ele>513.48</ele>
        <time>2016-02-21T09:44:07Z</time>
      </trkpt>
      <trkpt lat="45.66932" lon="4.33033">
        <ele>511.56</ele>
        <time>2016-02-21T09:44:13Z</time>
      </trkpt>
      <trkpt lat="45.66922" lon="4.33061">
        <ele>508.67</ele>
        <time>2016-02-21T09:44:28Z</time>
      </trkpt>
      <trkpt lat="45.66917" lon="4.33088">
        <ele>505.31</ele>
        <time>2016-02-21T09:44:44Z</time>
      </trkpt>
      <trkpt lat="45.66914" lon="4.3309">
        <ele>504.35</ele>
        <time>2016-02-21T09:44:51Z</time>
      </trkpt>
      <trkpt lat="45.66911" lon="4.33083">
        <ele>505.31</ele>
        <time>2016-02-21T09:44:57Z</time>
      </trkpt>
      <trkpt lat="45.66901" lon="4.33058">
        <ele>505.79</ele>
        <time>2016-02-21T09:45:13Z</time>
      </trkpt>
      <trkpt lat="45.66899" lon="4.33031">
        <ele>505.79</ele>
        <time>2016-02-21T09:45:25Z</time>
      </trkpt>
      <trkpt lat="45.66898" lon="4.33024">
        <ele>505.79</ele>
        <time>2016-02-21T09:45:29Z</time>
      </trkpt>
      <trkpt lat="45.66896" lon="4.33015">
        <ele>506.75</ele>
        <time>2016-02-21T09:45:35Z</time>
      </trkpt>
      <trkpt lat="45.66901" lon="4.32992">
        <ele>508.19</ele>
        <time>2016-02-21T09:45:48Z</time>
      </trkpt>
      <trkpt lat="45.66912" lon="4.32962">
        <ele>505.31</ele>
        <time>2016-02-21T09:46:03Z</time>
      </trkpt>
      <trkpt lat="45.66923" lon="4.32932">
        <ele>503.39</ele>
        <time>2016-02-21T09:46:18Z</time>
      </trkpt>
      <trkpt lat="45.66935" lon="4.32906">
        <ele>499.54</ele>
        <time>2016-02-21T09:46:32Z</time>
      </trkpt>
      <trkpt lat="45.66947" lon="4.32882">
        <ele>496.18</ele>
        <time>2016-02-21T09:46:46Z</time>
      </trkpt>
      <trkpt lat="45.66964" lon="4.32858">
        <ele>492.33</ele>
        <time>2016-02-21T09:47:02Z</time>
      </trkpt>
      <trkpt lat="45.66984" lon="4.32835">
        <ele>491.85</ele>
        <time>2016-02-21T09:47:20Z</time>
      </trkpt>
      <trkpt lat="45.67" lon="4.32818">
        <ele>491.37</ele>
        <time>2016-02-21T09:47:33Z</time>
      </trkpt>
      <trkpt lat="45.67017" lon="4.32803">
        <ele>491.37</ele>
        <time>2016-02-21T09:47:47Z</time>
      </trkpt>
      <trkpt lat="45.6703" lon="4.32784">
        <ele>493.29</ele>
        <time>2016-02-21T09:48:01Z</time>
      </trkpt>
      <trkpt lat="45.67045" lon="4.32761">
        <ele>492.81</ele>
        <time>2016-02-21T09:48:15Z</time>
      </trkpt>
      <trkpt lat="45.67046" lon="4.32758">
        <ele>492.81</ele>
        <time>2016-02-21T09:48:17Z</time>
      </trkpt>
      <trkpt lat="45.67061" lon="4.32738">
        <ele>492.33</ele>
        <time>2016-02-21T09:48:31Z</time>
      </trkpt>
      <trkpt lat="45.67075" lon="4.32715">
        <ele>492.81</ele>
        <time>2016-02-21T09:48:46Z</time>
      </trkpt>
      <trkpt lat="45.67084" lon="4.32695">
        <ele>493.77</ele>
        <time>2016-02-21T09:48:59Z</time>
      </trkpt>
      <trkpt lat="45.67092" lon="4.32683">
        <ele>496.66</ele>
        <time>2016-02-21T09:49:12Z</time>
      </trkpt>
      <trkpt lat="45.67097" lon="4.32677">
        <ele>500.02</ele>
        <time>2016-02-21T09:49:24Z</time>
      </trkpt>
      <trkpt lat="45.6711" lon="4.32654">
        <ele>502.91</ele>
        <time>2016-02-21T09:49:40Z</time>
      </trkpt>
      <trkpt lat="45.67125" lon="4.32629">
        <ele>498.58</ele>
        <time>2016-02-21T09:49:52Z</time>
      </trkpt>
      <trkpt lat="45.67136" lon="4.32594">
        <ele>487.05</ele>
        <time>2016-02-21T09:50:05Z</time>
      </trkpt>
      <trkpt lat="45.6714" lon="4.32568">
        <ele>485.6</ele>
        <time>2016-02-21T09:50:19Z</time>
      </trkpt>
      <trkpt lat="45.67142" lon="4.32537">
        <ele>489.45</ele>
        <time>2016-02-21T09:50:34Z</time>
      </trkpt>
      <trkpt lat="45.67148" lon="4.32522">
        <ele>494.74</ele>
        <time>2016-02-21T09:50:46Z</time>
      </trkpt>
      <trkpt lat="45.67159" lon="4.32501">
        <ele>493.29</ele>
        <time>2016-02-21T09:50:57Z</time>
      </trkpt>
      <trkpt lat="45.67173" lon="4.32483">
        <ele>490.89</ele>
        <time>2016-02-21T09:51:11Z</time>
      </trkpt>
      <trkpt lat="45.67186" lon="4.32458">
        <ele>488.49</ele>
        <time>2016-02-21T09:51:24Z</time>
      </trkpt>
      <trkpt lat="45.67199" lon="4.32438">
        <ele>486.56</ele>
        <time>2016-02-21T09:51:37Z</time>
      </trkpt>
      <trkpt lat="45.67204" lon="4.32427">
        <ele>485.12</ele>
        <time>2016-02-21T09:51:43Z</time>
      </trkpt>
      <trkpt lat="45.67212" lon="4.32418">
        <ele>483.68</ele>
        <time>2016-02-21T09:51:49Z</time>
      </trkpt>
      <trkpt lat="45.67232" lon="4.32396">
        <ele>477.91</ele>
        <time>2016-02-21T09:52:06Z</time>
      </trkpt>
      <trkpt lat="45.67234" lon="4.32393">
        <ele>476.95</ele>
        <time>2016-02-21T09:52:08Z</time>
      </trkpt>
      <trkpt lat="45.67246" lon="4.32375">
        <ele>475.51</ele>
        <time>2016-02-21T09:52:22Z</time>
      </trkpt>
      <trkpt lat="45.67247" lon="4.32373">
        <ele>475.51</ele>
        <time>2016-02-21T09:52:23Z</time>
      </trkpt>
      <trkpt lat="45.67263" lon="4.32354">
        <ele>475.99</ele>
        <time>2016-02-21T09:52:37Z</time>
      </trkpt>
      <trkpt lat="45.67277" lon="4.32341">
        <ele>475.99</ele>
        <time>2016-02-21T09:52:51Z</time>
      </trkpt>
      <trkpt lat="45.67293" lon="4.32318">
        <ele>475.03</ele>
        <time>2016-02-21T09:53:06Z</time>
      </trkpt>
      <trkpt lat="45.67301" lon="4.32304">
        <ele>475.99</ele>
        <time>2016-02-21T09:53:16Z</time>
      </trkpt>
      <trkpt lat="45.67305" lon="4.32297">
        <ele>477.43</ele>
        <time>2016-02-21T09:53:22Z</time>
      </trkpt>
      <trkpt lat="45.67321" lon="4.3228">
        <ele>479.84</ele>
        <time>2016-02-21T09:53:37Z</time>
      </trkpt>
      <trkpt lat="45.67339" lon="4.32268">
        <ele>478.39</ele>
        <time>2016-02-21T09:53:50Z</time>
      </trkpt>
      <trkpt lat="45.67355" lon="4.32259">
        <ele>478.39</ele>
        <time>2016-02-21T09:54:04Z</time>
      </trkpt>
      <trkpt lat="45.67371" lon="4.32245">
        <ele>475.99</ele>
        <time>2016-02-21T09:54:18Z</time>
      </trkpt>
      <trkpt lat="45.67385" lon="4.32216">
        <ele>472.63</ele>
        <time>2016-02-21T09:54:34Z</time>
      </trkpt>
      <trkpt lat="45.67396" lon="4.32196">
        <ele>473.59</ele>
        <time>2016-02-21T09:54:47Z</time>
      </trkpt>
      <trkpt lat="45.67409" lon="4.32176">
        <ele>473.11</ele>
        <time>2016-02-21T09:55:01Z</time>
      </trkpt>
      <trkpt lat="45.67422" lon="4.32152">
        <ele>470.7</ele>
        <time>2016-02-21T09:55:15Z</time>
      </trkpt>
      <trkpt lat="45.67438" lon="4.32123">
        <ele>468.3</ele>
        <time>2016-02-21T09:55:31Z</time>
      </trkpt>
      <trkpt lat="45.67441" lon="4.32119">
        <ele>467.82</ele>
        <time>2016-02-21T09:55:33Z</time>
      </trkpt>
      <trkpt lat="45.67445" lon="4.32111">
        <ele>466.86</ele>
        <time>2016-02-21T09:55:38Z</time>
      </trkpt>
      <trkpt lat="45.67445" lon="4.32104">
        <ele>465.9</ele>
        <time>2016-02-21T09:55:43Z</time>
      </trkpt>
      <trkpt lat="45.67452" lon="4.32087">
        <ele>467.82</ele>
        <time>2016-02-21T09:55:56Z</time>
      </trkpt>
      <trkpt lat="45.67455" lon="4.32062">
        <ele>468.78</ele>
        <time>2016-02-21T09:56:08Z</time>
      </trkpt>
      <trkpt lat="45.67462" lon="4.3204">
        <ele>468.3</ele>
        <time>2016-02-21T09:56:19Z</time>
      </trkpt>
      <trkpt lat="45.67465" lon="4.32032">
        <ele>467.82</ele>
        <time>2016-02-21T09:56:23Z</time>
      </trkpt>
      <trkpt lat="45.67477" lon="4.32014">
        <ele>467.82</ele>
        <time>2016-02-21T09:56:35Z</time>
      </trkpt>
      <trkpt lat="45.67496" lon="4.31997">
        <ele>470.22</ele>
        <time>2016-02-21T09:56:51Z</time>
      </trkpt>
      <trkpt lat="45.67514" lon="4.3198">
        <ele>466.38</ele>
        <time>2016-02-21T09:57:07Z</time>
      </trkpt>
      <trkpt lat="45.67525" lon="4.31965">
        <ele>464.93</ele>
        <time>2016-02-21T09:57:20Z</time>
      </trkpt>
      <trkpt lat="45.67541" lon="4.31955">
        <ele>462.05</ele>
        <time>2016-02-21T09:57:32Z</time>
      </trkpt>
      <trkpt lat="45.67553" lon="4.31951">
        <ele>461.09</ele>
        <time>2016-02-21T09:57:43Z</time>
      </trkpt>
      <trkpt lat="45.67568" lon="4.31947">
        <ele>460.13</ele>
        <time>2016-02-21T09:57:56Z</time>
      </trkpt>
      <trkpt lat="45.67588" lon="4.31952">
        <ele>461.57</ele>
        <time>2016-02-21T09:58:09Z</time>
      </trkpt>
      <trkpt lat="45.67605" lon="4.31957">
        <ele>460.61</ele>
        <time>2016-02-21T09:58:19Z</time>
      </trkpt>
      <trkpt lat="45.67625" lon="4.31964">
        <ele>461.57</ele>
        <time>2016-02-21T09:58:34Z</time>
      </trkpt>
      <trkpt lat="45.67627" lon="4.31965">
        <ele>462.05</ele>
        <time>2016-02-21T09:58:36Z</time>
      </trkpt>
      <trkpt lat="45.67646" lon="4.31974">
        <ele>461.09</ele>
        <time>2016-02-21T09:58:50Z</time>
      </trkpt>
      <trkpt lat="45.67658" lon="4.31975">
        <ele>462.53</ele>
        <time>2016-02-21T09:58:59Z</time>
      </trkpt>
      <trkpt lat="45.67677" lon="4.31972">
        <ele>464.45</ele>
        <time>2016-02-21T09:59:13Z</time>
      </trkpt>
      <trkpt lat="45.67691" lon="4.31962">
        <ele>467.82</ele>
        <time>2016-02-21T09:59:26Z</time>
      </trkpt>
      <trkpt lat="45.67705" lon="4.31962">
        <ele>461.57</ele>
        <time>2016-02-21T09:59:39Z</time>
      </trkpt>
      <trkpt lat="45.6771" lon="4.31961">
        <ele>459.17</ele>
        <time>2016-02-21T09:59:44Z</time>
      </trkpt>
      <trkpt lat="45.67721" lon="4.31945">
        <ele>452.44</ele>
        <time>2016-02-21T09:59:59Z</time>
      </trkpt>
      <trkpt lat="45.67721" lon="4.31945">
        <ele>451</ele>
        <time>2016-02-21T10:00:05Z</time>
      </trkpt>
      <trkpt lat="45.67729" lon="4.31947">
        <ele>449.07</ele>
        <time>2016-02-21T10:00:12Z</time>
      </trkpt>
      <trkpt lat="45.67756" lon="4.31964">
        <ele>446.19</ele>
        <time>2016-02-21T10:00:33Z</time>
      </trkpt>
      <trkpt lat="45.67761" lon="4.3197">
        <ele>446.19</ele>
        <time>2016-02-21T10:00:37Z</time>
      </trkpt>
      <trkpt lat="45.67768" lon="4.31978">
        <ele>446.19</ele>
        <time>2016-02-21T10:00:43Z</time>
      </trkpt>
      <trkpt lat="45.67786" lon="4.32">
        <ele>445.71</ele>
        <time>2016-02-21T10:01:01Z</time>
      </trkpt>
      <trkpt lat="45.67804" lon="4.32028">
        <ele>445.23</ele>
        <time>2016-02-21T10:01:19Z</time>
      </trkpt>
      <trkpt lat="45.67824" lon="4.32058">
        <ele>445.71</ele>
        <time>2016-02-21T10:01:38Z</time>
      </trkpt>
      <trkpt lat="45.67848" lon="4.32086">
        <ele>446.67</ele>
        <time>2016-02-21T10:01:59Z</time>
      </trkpt>
      <trkpt lat="45.67872" lon="4.32099">
        <ele>442.82</ele>
        <time>2016-02-21T10:02:15Z</time>
      </trkpt>
      <trkpt lat="45.67903" lon="4.32103">
        <ele>441.86</ele>
        <time>2016-02-21T10:02:35Z</time>
      </trkpt>
      <trkpt lat="45.67929" lon="4.32116">
        <ele>443.31</ele>
        <time>2016-02-21T10:02:54Z</time>
      </trkpt>
      <trkpt lat="45.67944" lon="4.32126">
        <ele>444.27</ele>
        <time>2016-02-21T10:03:06Z</time>
      </trkpt>
      <trkpt lat="45.67946" lon="4.32123">
        <ele>443.79</ele>
        <time>2016-02-21T10:03:13Z</time>
      </trkpt>
      <trkpt lat="45.67939" lon="4.32117">
        <ele>444.75</ele>
        <time>2016-02-21T10:03:21Z</time>
      </trkpt>
      <trkpt lat="45.67926" lon="4.32098">
        <ele>448.59</ele>
        <time>2016-02-21T10:03:38Z</time>
      </trkpt>
      <trkpt lat="45.67912" lon="4.32081">
        <ele>451.48</ele>
        <time>2016-02-21T10:03:55Z</time>
      </trkpt>
      <trkpt lat="45.67905" lon="4.32067">
        <ele>455.8</ele>
        <time>2016-02-21T10:04:08Z</time>
      </trkpt>
      <trkpt lat="45.67894" lon="4.32054">
        <ele>458.69</ele>
        <time>2016-02-21T10:04:23Z</time>
      </trkpt>
      <trkpt lat="45.67887" lon="4.32037">
        <ele>463.49</ele>
        <time>2016-02-21T10:04:40Z</time>
      </trkpt>
      <trkpt lat="45.67878" lon="4.3202">
        <ele>466.86</ele>
        <time>2016-02-21T10:04:55Z</time>
      </trkpt>
      <trkpt lat="45.67868" lon="4.31998">
        <ele>469.26</ele>
        <time>2016-02-21T10:05:11Z</time>
      </trkpt>
      <trkpt lat="45.67861" lon="4.31982">
        <ele>470.22</ele>
        <time>2016-02-21T10:05:25Z</time>
      </trkpt>
      <trkpt lat="45.67853" lon="4.3197">
        <ele>471.66</ele>
        <time>2016-02-21T10:05:35Z</time>
      </trkpt>
      <trkpt lat="45.67842" lon="4.31948">
        <ele>473.59</ele>
        <time>2016-02-21T10:05:51Z</time>
      </trkpt>
      <trkpt lat="45.6783" lon="4.31932">
        <ele>473.11</ele>
        <time>2016-02-21T10:06:06Z</time>
      </trkpt>
      <trkpt lat="45.67817" lon="4.31914">
        <ele>472.14</ele>
        <time>2016-02-21T10:06:21Z</time>
      </trkpt>
      <trkpt lat="45.67805" lon="4.31895">
        <ele>470.7</ele>
        <time>2016-02-21T10:06:35Z</time>
      </trkpt>
      <trkpt lat="45.67794" lon="4.31874">
        <ele>471.66</ele>
        <time>2016-02-21T10:06:53Z</time>
      </trkpt>
      <trkpt lat="45.67794" lon="4.31866">
        <ele>473.11</ele>
        <time>2016-02-21T10:07:00Z</time>
      </trkpt>
      <trkpt lat="45.67799" lon="4.31846">
        <ele>475.99</ele>
        <time>2016-02-21T10:07:15Z</time>
      </trkpt>
      <trkpt lat="45.67802" lon="4.31825">
        <ele>479.35</ele>
        <time>2016-02-21T10:07:31Z</time>
      </trkpt>
      <trkpt lat="45.67808" lon="4.31807">
        <ele>482.72</ele>
        <time>2016-02-21T10:07:47Z</time>
      </trkpt>
      <trkpt lat="45.67817" lon="4.31798">
        <ele>482.24</ele>
        <time>2016-02-21T10:08:00Z</time>
      </trkpt>
      <trkpt lat="45.67831" lon="4.3179">
        <ele>485.12</ele>
        <time>2016-02-21T10:08:15Z</time>
      </trkpt>
      <trkpt lat="45.67849" lon="4.31782">
        <ele>488.97</ele>
        <time>2016-02-21T10:08:33Z</time>
      </trkpt>
      <trkpt lat="45.6786" lon="4.31777">
        <ele>488.97</ele>
        <time>2016-02-21T10:08:43Z</time>
      </trkpt>
      <trkpt lat="45.67866" lon="4.31775">
        <ele>489.93</ele>
        <time>2016-02-21T10:08:48Z</time>
      </trkpt>
      <trkpt lat="45.6788" lon="4.31772">
        <ele>491.85</ele>
        <time>2016-02-21T10:09:03Z</time>
      </trkpt>
      <trkpt lat="45.67899" lon="4.31778">
        <ele>493.77</ele>
        <time>2016-02-21T10:09:19Z</time>
      </trkpt>
      <trkpt lat="45.67919" lon="4.31783">
        <ele>493.29</ele>
        <time>2016-02-21T10:09:34Z</time>
      </trkpt>
      <trkpt lat="45.67939" lon="4.31784">
        <ele>492.81</ele>
        <time>2016-02-21T10:09:50Z</time>
      </trkpt>
      <trkpt lat="45.67942" lon="4.31785">
        <ele>492.81</ele>
        <time>2016-02-21T10:09:52Z</time>
      </trkpt>
      <trkpt lat="45.6795" lon="4.31785">
        <ele>493.29</ele>
        <time>2016-02-21T10:09:58Z</time>
      </trkpt>
      <trkpt lat="45.67975" lon="4.31783">
        <ele>494.74</ele>
        <time>2016-02-21T10:10:19Z</time>
      </trkpt>
      <trkpt lat="45.67995" lon="4.31777">
        <ele>493.77</ele>
        <time>2016-02-21T10:10:35Z</time>
      </trkpt>
      <trkpt lat="45.68019" lon="4.3177">
        <ele>492.81</ele>
        <time>2016-02-21T10:10:55Z</time>
      </trkpt>
      <trkpt lat="45.68035" lon="4.31767">
        <ele>494.74</ele>
        <time>2016-02-21T10:11:09Z</time>
      </trkpt>
      <trkpt lat="45.68055" lon="4.31766">
        <ele>496.66</ele>
        <time>2016-02-21T10:11:26Z</time>
      </trkpt>
      <trkpt lat="45.68063" lon="4.31765">
        <ele>497.14</ele>
        <time>2016-02-21T10:11:33Z</time>
      </trkpt>
      <trkpt lat="45.68074" lon="4.31763">
        <ele>497.62</ele>
        <time>2016-02-21T10:11:44Z</time>
      </trkpt>
      <trkpt lat="45.68093" lon="4.31765">
        <ele>497.62</ele>
        <time>2016-02-21T10:12:01Z</time>
      </trkpt>
      <trkpt lat="45.68105" lon="4.31766">
        <ele>498.58</ele>
        <time>2016-02-21T10:12:12Z</time>
      </trkpt>
      <trkpt lat="45.68123" lon="4.31775">
        <ele>499.54</ele>
        <time>2016-02-21T10:12:29Z</time>
      </trkpt>
      <trkpt lat="45.68136" lon="4.31787">
        <ele>502.43</ele>
        <time>2016-02-21T10:12:44Z</time>
      </trkpt>
      <trkpt lat="45.6815" lon="4.31796">
        <ele>504.35</ele>
        <time>2016-02-21T10:12:59Z</time>
      </trkpt>
      <trkpt lat="45.68155" lon="4.31799">
        <ele>506.75</ele>
        <time>2016-02-21T10:13:12Z</time>
      </trkpt>
      <trkpt lat="45.68156" lon="4.318">
        <ele>506.75</ele>
        <time>2016-02-21T10:13:26Z</time>
      </trkpt>
      <trkpt lat="45.68157" lon="4.318">
        <ele>506.75</ele>
        <time>2016-02-21T10:13:40Z</time>
      </trkpt>
      <trkpt lat="45.68158" lon="4.31799">
        <ele>506.75</ele>
        <time>2016-02-21T10:13:55Z</time>
      </trkpt>
      <trkpt lat="45.68158" lon="4.31799">
        <ele>507.23</ele>
        <time>2016-02-21T10:14:10Z</time>
      </trkpt>
      <trkpt lat="45.68159" lon="4.318">
        <ele>507.23</ele>
        <time>2016-02-21T10:14:22Z</time>
      </trkpt>
      <trkpt lat="45.6816" lon="4.31801">
        <ele>506.27</ele>
        <time>2016-02-21T10:14:43Z</time>
      </trkpt>
      <trkpt lat="45.68161" lon="4.318">
        <ele>505.79</ele>
        <time>2016-02-21T10:14:54Z</time>
      </trkpt>
      <trkpt lat="45.68161" lon="4.31801">
        <ele>504.83</ele>
        <time>2016-02-21T10:15:10Z</time>
      </trkpt>
      <trkpt lat="45.68162" lon="4.31801">
        <ele>504.83</ele>
        <time>2016-02-21T10:15:29Z</time>
      </trkpt>
      <trkpt lat="45.68162" lon="4.31801">
        <ele>503.87</ele>
        <time>2016-02-21T10:15:52Z</time>
      </trkpt>
      <trkpt lat="45.68162" lon="4.31802">
        <ele>503.39</ele>
        <time>2016-02-21T10:16:06Z</time>
      </trkpt>
      <trkpt lat="45.68162" lon="4.31802">
        <ele>503.39</ele>
        <time>2016-02-21T10:16:25Z</time>
      </trkpt>
      <trkpt lat="45.68164" lon="4.318">
        <ele>502.91</ele>
        <time>2016-02-21T10:16:38Z</time>
      </trkpt>
      <trkpt lat="45.68165" lon="4.31799">
        <ele>503.39</ele>
        <time>2016-02-21T10:16:59Z</time>
      </trkpt>
      <trkpt lat="45.68167" lon="4.318">
        <ele>503.39</ele>
        <time>2016-02-21T10:17:15Z</time>
      </trkpt>
      <trkpt lat="45.68167" lon="4.318">
        <ele>503.39</ele>
        <time>2016-02-21T10:17:32Z</time>
      </trkpt>
      <trkpt lat="45.68168" lon="4.31801">
        <ele>503.39</ele>
        <time>2016-02-21T10:17:50Z</time>
      </trkpt>
      <trkpt lat="45.68169" lon="4.31801">
        <ele>503.39</ele>
        <time>2016-02-21T10:18:08Z</time>
      </trkpt>
      <trkpt lat="45.68168" lon="4.31802">
        <ele>503.39</ele>
        <time>2016-02-21T10:18:22Z</time>
      </trkpt>
      <trkpt lat="45.68169" lon="4.31803">
        <ele>503.87</ele>
        <time>2016-02-21T10:18:35Z</time>
      </trkpt>
      <trkpt lat="45.68169" lon="4.31804">
        <ele>503.87</ele>
        <time>2016-02-21T10:18:51Z</time>
      </trkpt>
      <trkpt lat="45.68169" lon="4.31804">
        <ele>502.91</ele>
        <time>2016-02-21T10:19:10Z</time>
      </trkpt>
      <trkpt lat="45.68169" lon="4.31803">
        <ele>502.91</ele>
        <time>2016-02-21T10:19:28Z</time>
      </trkpt>
      <trkpt lat="45.68169" lon="4.31802">
        <ele>502.43</ele>
        <time>2016-02-21T10:19:39Z</time>
      </trkpt>
      <trkpt lat="45.68167" lon="4.31803">
        <ele>502.91</ele>
        <time>2016-02-21T10:19:53Z</time>
      </trkpt>
      <trkpt lat="45.68168" lon="4.31804">
        <ele>502.91</ele>
        <time>2016-02-21T10:20:03Z</time>
      </trkpt>
      <trkpt lat="45.68168" lon="4.31804">
        <ele>503.39</ele>
        <time>2016-02-21T10:20:17Z</time>
      </trkpt>
      <trkpt lat="45.68169" lon="4.31805">
        <ele>503.39</ele>
        <time>2016-02-21T10:20:38Z</time>
      </trkpt>
      <trkpt lat="45.68169" lon="4.31804">
        <ele>502.91</ele>
        <time>2016-02-21T10:21:02Z</time>
      </trkpt>
      <trkpt lat="45.68169" lon="4.31804">
        <ele>502.91</ele>
        <time>2016-02-21T10:21:28Z</time>
      </trkpt>
      <trkpt lat="45.68169" lon="4.31804">
        <ele>502.43</ele>
        <time>2016-02-21T10:21:51Z</time>
      </trkpt>
      <trkpt lat="45.68169" lon="4.31803">
        <ele>501.95</ele>
        <time>2016-02-21T10:22:24Z</time>
      </trkpt>
      <trkpt lat="45.68168" lon="4.31802">
        <ele>502.91</ele>
        <time>2016-02-21T10:22:57Z</time>
      </trkpt>
      <trkpt lat="45.68168" lon="4.31802">
        <ele>503.39</ele>
        <time>2016-02-21T10:23:22Z</time>
      </trkpt>
      <trkpt lat="45.68168" lon="4.31802">
        <ele>503.39</ele>
        <time>2016-02-21T10:23:45Z</time>
      </trkpt>
      <trkpt lat="45.68168" lon="4.31802">
        <ele>503.39</ele>
        <time>2016-02-21T10:24:14Z</time>
      </trkpt>
      <trkpt lat="45.68168" lon="4.31802">
        <ele>503.87</ele>
        <time>2016-02-21T10:24:39Z</time>
      </trkpt>
      <trkpt lat="45.68168" lon="4.31803">
        <ele>503.87</ele>
        <time>2016-02-21T10:24:58Z</time>
      </trkpt>
      <trkpt lat="45.68169" lon="4.31804">
        <ele>503.87</ele>
        <time>2016-02-21T10:25:24Z</time>
      </trkpt>
      <trkpt lat="45.68169" lon="4.31805">
        <ele>504.35</ele>
        <time>2016-02-21T10:25:51Z</time>
      </trkpt>
      <trkpt lat="45.68169" lon="4.31804">
        <ele>504.35</ele>
        <time>2016-02-21T10:26:22Z</time>
      </trkpt>
      <trkpt lat="45.68169" lon="4.31805">
        <ele>504.35</ele>
        <time>2016-02-21T10:26:40Z</time>
      </trkpt>
      <trkpt lat="45.68169" lon="4.31805">
        <ele>504.35</ele>
        <time>2016-02-21T10:26:58Z</time>
      </trkpt>
      <trkpt lat="45.68169" lon="4.31805">
        <ele>504.35</ele>
        <time>2016-02-21T10:27:19Z</time>
      </trkpt>
      <trkpt lat="45.68169" lon="4.31805">
        <ele>503.87</ele>
        <time>2016-02-21T10:27:38Z</time>
      </trkpt>
      <trkpt lat="45.68169" lon="4.31802">
        <ele>503.87</ele>
        <time>2016-02-21T10:27:40Z</time>
      </trkpt>
      <trkpt lat="45.68168" lon="4.31803">
        <ele>503.87</ele>
        <time>2016-02-21T10:27:50Z</time>
      </trkpt>
      <trkpt lat="45.68168" lon="4.31803">
        <ele>503.39</ele>
        <time>2016-02-21T10:28:04Z</time>
      </trkpt>
      <trkpt lat="45.68168" lon="4.31804">
        <ele>502.91</ele>
        <time>2016-02-21T10:28:31Z</time>
      </trkpt>
      <trkpt lat="45.6817" lon="4.31806">
        <ele>503.39</ele>
        <time>2016-02-21T10:28:42Z</time>
      </trkpt>
      <trkpt lat="45.68168" lon="4.31805">
        <ele>502.91</ele>
        <time>2016-02-21T10:28:54Z</time>
      </trkpt>
      <trkpt lat="45.68169" lon="4.31805">
        <ele>501.95</ele>
        <time>2016-02-21T10:29:10Z</time>
      </trkpt>
      <trkpt lat="45.68169" lon="4.31805">
        <ele>502.43</ele>
        <time>2016-02-21T10:29:17Z</time>
      </trkpt>
      <trkpt lat="45.68169" lon="4.31806">
        <ele>503.39</ele>
        <time>2016-02-21T10:29:27Z</time>
      </trkpt>
      <trkpt lat="45.6817" lon="4.31806">
        <ele>503.39</ele>
        <time>2016-02-21T10:29:37Z</time>
      </trkpt>
      <trkpt lat="45.68181" lon="4.31808">
        <ele>504.83</ele>
        <time>2016-02-21T10:29:50Z</time>
      </trkpt>
      <trkpt lat="45.68197" lon="4.31809">
        <ele>505.79</ele>
        <time>2016-02-21T10:30:03Z</time>
      </trkpt>
      <trkpt lat="45.6822" lon="4.31806">
        <ele>504.35</ele>
        <time>2016-02-21T10:30:20Z</time>
      </trkpt>
      <trkpt lat="45.68245" lon="4.318">
        <ele>504.35</ele>
        <time>2016-02-21T10:30:37Z</time>
      </trkpt>
      <trkpt lat="45.68248" lon="4.31802">
        <ele>504.83</ele>
        <time>2016-02-21T10:30:40Z</time>
      </trkpt>
      <trkpt lat="45.68254" lon="4.31832">
        <ele>507.23</ele>
        <time>2016-02-21T10:30:57Z</time>
      </trkpt>
      <trkpt lat="45.68267" lon="4.31851">
        <ele>511.08</ele>
        <time>2016-02-21T10:31:12Z</time>
      </trkpt>
      <trkpt lat="45.68284" lon="4.31863">
        <ele>513</ele>
        <time>2016-02-21T10:31:28Z</time>
      </trkpt>
      <trkpt lat="45.683" lon="4.31886">
        <ele>514.44</ele>
        <time>2016-02-21T10:31:46Z</time>
      </trkpt>
      <trkpt lat="45.68312" lon="4.3192">
        <ele>515.88</ele>
        <time>2016-02-21T10:32:07Z</time>
      </trkpt>
      <trkpt lat="45.68318" lon="4.31938">
        <ele>517.33</ele>
        <time>2016-02-21T10:32:18Z</time>
      </trkpt>
      <trkpt lat="45.68335" lon="4.31966">
        <ele>515.88</ele>
        <time>2016-02-21T10:32:37Z</time>
      </trkpt>
      <trkpt lat="45.6836" lon="4.3198">
        <ele>513.48</ele>
        <time>2016-02-21T10:32:56Z</time>
      </trkpt>
      <trkpt lat="45.68374" lon="4.31986">
        <ele>511.56</ele>
        <time>2016-02-21T10:33:07Z</time>
      </trkpt>
      <trkpt lat="45.68379" lon="4.31988">
        <ele>511.08</ele>
        <time>2016-02-21T10:33:11Z</time>
      </trkpt>
      <trkpt lat="45.68384" lon="4.3199">
        <ele>511.08</ele>
        <time>2016-02-21T10:33:15Z</time>
      </trkpt>
      <trkpt lat="45.68412" lon="4.31997">
        <ele>509.64</ele>
        <time>2016-02-21T10:33:35Z</time>
      </trkpt>
      <trkpt lat="45.68431" lon="4.31998">
        <ele>507.71</ele>
        <time>2016-02-21T10:33:49Z</time>
      </trkpt>
      <trkpt lat="45.68453" lon="4.31992">
        <ele>507.23</ele>
        <time>2016-02-21T10:34:05Z</time>
      </trkpt>
      <trkpt lat="45.68476" lon="4.31984">
        <ele>504.83</ele>
        <time>2016-02-21T10:34:23Z</time>
      </trkpt>
      <trkpt lat="45.68482" lon="4.31971">
        <ele>505.31</ele>
        <time>2016-02-21T10:34:35Z</time>
      </trkpt>
      <trkpt lat="45.68486" lon="4.31961">
        <ele>505.31</ele>
        <time>2016-02-21T10:34:42Z</time>
      </trkpt>
      <trkpt lat="45.6849" lon="4.31951">
        <ele>505.31</ele>
        <time>2016-02-21T10:34:48Z</time>
      </trkpt>
      <trkpt lat="45.68497" lon="4.31934">
        <ele>506.27</ele>
        <time>2016-02-21T10:35:02Z</time>
      </trkpt>
      <trkpt lat="45.68506" lon="4.31915">
        <ele>506.75</ele>
        <time>2016-02-21T10:35:17Z</time>
      </trkpt>
      <trkpt lat="45.68512" lon="4.31898">
        <ele>509.16</ele>
        <time>2016-02-21T10:35:32Z</time>
      </trkpt>
      <trkpt lat="45.68516" lon="4.31891">
        <ele>509.64</ele>
        <time>2016-02-21T10:35:37Z</time>
      </trkpt>
      <trkpt lat="45.68524" lon="4.31877">
        <ele>510.6</ele>
        <time>2016-02-21T10:35:50Z</time>
      </trkpt>
      <trkpt lat="45.68525" lon="4.31875">
        <ele>510.6</ele>
        <time>2016-02-21T10:35:52Z</time>
      </trkpt>
      <trkpt lat="45.68536" lon="4.31861">
        <ele>510.6</ele>
        <time>2016-02-21T10:36:08Z</time>
      </trkpt>
      <trkpt lat="45.68544" lon="4.31847">
        <ele>510.6</ele>
        <time>2016-02-21T10:36:23Z</time>
      </trkpt>
      <trkpt lat="45.68555" lon="4.31838">
        <ele>511.56</ele>
        <time>2016-02-21T10:36:36Z</time>
      </trkpt>
      <trkpt lat="45.68565" lon="4.3183">
        <ele>513</ele>
        <time>2016-02-21T10:36:48Z</time>
      </trkpt>
      <trkpt lat="45.68572" lon="4.31823">
        <ele>513.48</ele>
        <time>2016-02-21T10:37:01Z</time>
      </trkpt>
      <trkpt lat="45.68577" lon="4.31815">
        <ele>513</ele>
        <time>2016-02-21T10:37:07Z</time>
      </trkpt>
      <trkpt lat="45.68583" lon="4.31804">
        <ele>512.52</ele>
        <time>2016-02-21T10:37:14Z</time>
      </trkpt>
      <trkpt lat="45.68589" lon="4.31801">
        <ele>513.96</ele>
        <time>2016-02-21T10:37:18Z</time>
      </trkpt>
      <trkpt lat="45.68599" lon="4.31809">
        <ele>515.4</ele>
        <time>2016-02-21T10:37:25Z</time>
      </trkpt>
      <trkpt lat="45.68609" lon="4.31807">
        <ele>516.37</ele>
        <time>2016-02-21T10:37:34Z</time>
      </trkpt>
      <trkpt lat="45.68614" lon="4.318">
        <ele>517.81</ele>
        <time>2016-02-21T10:37:40Z</time>
      </trkpt>
      <trkpt lat="45.68625" lon="4.31775">
        <ele>517.33</ele>
        <time>2016-02-21T10:37:55Z</time>
      </trkpt>
      <trkpt lat="45.68644" lon="4.31747">
        <ele>514.92</ele>
        <time>2016-02-21T10:38:12Z</time>
      </trkpt>
      <trkpt lat="45.68658" lon="4.31752">
        <ele>514.44</ele>
        <time>2016-02-21T10:38:25Z</time>
      </trkpt>
      <trkpt lat="45.68684" lon="4.3177">
        <ele>514.92</ele>
        <time>2016-02-21T10:38:44Z</time>
      </trkpt>
      <trkpt lat="45.68694" lon="4.31776">
        <ele>515.88</ele>
        <time>2016-02-21T10:38:51Z</time>
      </trkpt>
      <trkpt lat="45.68697" lon="4.31784">
        <ele>516.37</ele>
        <time>2016-02-21T10:38:56Z</time>
      </trkpt>
      <trkpt lat="45.68696" lon="4.31789">
        <ele>516.85</ele>
        <time>2016-02-21T10:38:58Z</time>
      </trkpt>
      <trkpt lat="45.687" lon="4.31798">
        <ele>516.85</ele>
        <time>2016-02-21T10:39:03Z</time>
      </trkpt>
      <trkpt lat="45.68725" lon="4.31826">
        <ele>515.88</ele>
        <time>2016-02-21T10:39:24Z</time>
      </trkpt>
      <trkpt lat="45.68751" lon="4.31856">
        <ele>517.81</ele>
        <time>2016-02-21T10:39:46Z</time>
      </trkpt>
      <trkpt lat="45.68757" lon="4.31864">
        <ele>517.81</ele>
        <time>2016-02-21T10:39:52Z</time>
      </trkpt>
      <trkpt lat="45.68771" lon="4.31871">
        <ele>520.21</ele>
        <time>2016-02-21T10:40:04Z</time>
      </trkpt>
      <trkpt lat="45.68787" lon="4.31853">
        <ele>520.21</ele>
        <time>2016-02-21T10:40:21Z</time>
      </trkpt>
      <trkpt lat="45.68803" lon="4.31836">
        <ele>519.25</ele>
        <time>2016-02-21T10:40:36Z</time>
      </trkpt>
      <trkpt lat="45.68823" lon="4.31813">
        <ele>518.29</ele>
        <time>2016-02-21T10:40:55Z</time>
      </trkpt>
      <trkpt lat="45.68827" lon="4.31809">
        <ele>517.81</ele>
        <time>2016-02-21T10:40:59Z</time>
      </trkpt>
      <trkpt lat="45.68851" lon="4.31794">
        <ele>516.37</ele>
        <time>2016-02-21T10:41:18Z</time>
      </trkpt>
      <trkpt lat="45.68871" lon="4.31782">
        <ele>513.96</ele>
        <time>2016-02-21T10:41:34Z</time>
      </trkpt>
      <trkpt lat="45.68894" lon="4.31767">
        <ele>511.56</ele>
        <time>2016-02-21T10:41:53Z</time>
      </trkpt>
      <trkpt lat="45.68909" lon="4.31753">
        <ele>508.67</ele>
        <time>2016-02-21T10:42:07Z</time>
      </trkpt>
      <trkpt lat="45.68913" lon="4.3175">
        <ele>508.19</ele>
        <time>2016-02-21T10:42:10Z</time>
      </trkpt>
      <trkpt lat="45.68921" lon="4.31746">
        <ele>507.71</ele>
        <time>2016-02-21T10:42:17Z</time>
      </trkpt>
      <trkpt lat="45.68936" lon="4.31736">
        <ele>505.31</ele>
        <time>2016-02-21T10:42:32Z</time>
      </trkpt>
      <trkpt lat="45.6894" lon="4.31736">
        <ele>505.79</ele>
        <time>2016-02-21T10:42:36Z</time>
      </trkpt>
      <trkpt lat="45.68962" lon="4.31735">
        <ele>508.67</ele>
        <time>2016-02-21T10:42:53Z</time>
      </trkpt>
      <trkpt lat="45.68982" lon="4.3172">
        <ele>509.64</ele>
        <time>2016-02-21T10:43:11Z</time>
      </trkpt>
      <trkpt lat="45.69" lon="4.31704">
        <ele>508.67</ele>
        <time>2016-02-21T10:43:28Z</time>
      </trkpt>
      <trkpt lat="45.6902" lon="4.31692">
        <ele>508.67</ele>
        <time>2016-02-21T10:43:45Z</time>
      </trkpt>
      <trkpt lat="45.69044" lon="4.31684">
        <ele>507.71</ele>
        <time>2016-02-21T10:44:03Z</time>
      </trkpt>
      <trkpt lat="45.69063" lon="4.31678">
        <ele>505.79</ele>
        <time>2016-02-21T10:44:18Z</time>
      </trkpt>
      <trkpt lat="45.69063" lon="4.31669">
        <ele>504.83</ele>
        <time>2016-02-21T10:44:23Z</time>
      </trkpt>
      <trkpt lat="45.69061" lon="4.31657">
        <ele>504.35</ele>
        <time>2016-02-21T10:44:30Z</time>
      </trkpt>
      <trkpt lat="45.69064" lon="4.3165">
        <ele>504.35</ele>
        <time>2016-02-21T10:44:34Z</time>
      </trkpt>
      <trkpt lat="45.69093" lon="4.31632">
        <ele>501.46</ele>
        <time>2016-02-21T10:44:55Z</time>
      </trkpt>
      <trkpt lat="45.69116" lon="4.31613">
        <ele>498.1</ele>
        <time>2016-02-21T10:45:14Z</time>
      </trkpt>
      <trkpt lat="45.69134" lon="4.316">
        <ele>496.18</ele>
        <time>2016-02-21T10:45:30Z</time>
      </trkpt>
      <trkpt lat="45.69146" lon="4.31588">
        <ele>493.77</ele>
        <time>2016-02-21T10:45:47Z</time>
      </trkpt>
      <trkpt lat="45.69158" lon="4.31577">
        <ele>493.77</ele>
        <time>2016-02-21T10:46:02Z</time>
      </trkpt>
      <trkpt lat="45.69172" lon="4.31564">
        <ele>494.74</ele>
        <time>2016-02-21T10:46:15Z</time>
      </trkpt>
      <trkpt lat="45.69175" lon="4.31558">
        <ele>494.74</ele>
        <time>2016-02-21T10:46:20Z</time>
      </trkpt>
      <trkpt lat="45.69174" lon="4.31528">
        <ele>493.77</ele>
        <time>2016-02-21T10:46:36Z</time>
      </trkpt>
      <trkpt lat="45.69173" lon="4.31522">
        <ele>493.77</ele>
        <time>2016-02-21T10:46:40Z</time>
      </trkpt>
      <trkpt lat="45.69172" lon="4.3151">
        <ele>494.74</ele>
        <time>2016-02-21T10:46:47Z</time>
      </trkpt>
      <trkpt lat="45.69167" lon="4.31493">
        <ele>498.1</ele>
        <time>2016-02-21T10:47:01Z</time>
      </trkpt>
      <trkpt lat="45.69162" lon="4.31476">
        <ele>500.5</ele>
        <time>2016-02-21T10:47:15Z</time>
      </trkpt>
      <trkpt lat="45.69162" lon="4.31475">
        <ele>500.5</ele>
        <time>2016-02-21T10:47:16Z</time>
      </trkpt>
      <trkpt lat="45.69158" lon="4.31456">
        <ele>501.46</ele>
        <time>2016-02-21T10:47:30Z</time>
      </trkpt>
      <trkpt lat="45.69153" lon="4.31445">
        <ele>503.39</ele>
        <time>2016-02-21T10:47:42Z</time>
      </trkpt>
      <trkpt lat="45.69146" lon="4.31431">
        <ele>502.91</ele>
        <time>2016-02-21T10:47:55Z</time>
      </trkpt>
      <trkpt lat="45.69143" lon="4.31417">
        <ele>505.31</ele>
        <time>2016-02-21T10:48:07Z</time>
      </trkpt>
      <trkpt lat="45.69138" lon="4.31404">
        <ele>509.16</ele>
        <time>2016-02-21T10:48:19Z</time>
      </trkpt>
      <trkpt lat="45.69134" lon="4.31388">
        <ele>511.08</ele>
        <time>2016-02-21T10:48:31Z</time>
      </trkpt>
      <trkpt lat="45.69129" lon="4.31373">
        <ele>512.52</ele>
        <time>2016-02-21T10:48:43Z</time>
      </trkpt>
      <trkpt lat="45.69122" lon="4.31358">
        <ele>516.37</ele>
        <time>2016-02-21T10:48:58Z</time>
      </trkpt>
      <trkpt lat="45.69119" lon="4.3135">
        <ele>519.25</ele>
        <time>2016-02-21T10:49:06Z</time>
      </trkpt>
      <trkpt lat="45.69115" lon="4.31335">
        <ele>522.61</ele>
        <time>2016-02-21T10:49:21Z</time>
      </trkpt>
      <trkpt lat="45.6911" lon="4.31321">
        <ele>525.98</ele>
        <time>2016-02-21T10:49:33Z</time>
      </trkpt>
      <trkpt lat="45.69103" lon="4.31303">
        <ele>531.75</ele>
        <time>2016-02-21T10:49:47Z</time>
      </trkpt>
      <trkpt lat="45.69098" lon="4.31289">
        <ele>534.15</ele>
        <time>2016-02-21T10:49:59Z</time>
      </trkpt>
      <trkpt lat="45.69094" lon="4.3128">
        <ele>534.63</ele>
        <time>2016-02-21T10:50:06Z</time>
      </trkpt>
      <trkpt lat="45.69094" lon="4.31272">
        <ele>535.11</ele>
        <time>2016-02-21T10:50:10Z</time>
      </trkpt>
      <trkpt lat="45.69093" lon="4.31268">
        <ele>535.11</ele>
        <time>2016-02-21T10:50:12Z</time>
      </trkpt>
      <trkpt lat="45.69096" lon="4.3124">
        <ele>534.63</ele>
        <time>2016-02-21T10:50:30Z</time>
      </trkpt>
      <trkpt lat="45.69098" lon="4.31232">
        <ele>533.67</ele>
        <time>2016-02-21T10:50:35Z</time>
      </trkpt>
      <trkpt lat="45.69103" lon="4.31208">
        <ele>532.23</ele>
        <time>2016-02-21T10:50:49Z</time>
      </trkpt>
      <trkpt lat="45.69109" lon="4.31193">
        <ele>531.75</ele>
        <time>2016-02-21T10:50:57Z</time>
      </trkpt>
      <trkpt lat="45.69128" lon="4.31155">
        <ele>531.27</ele>
        <time>2016-02-21T10:51:17Z</time>
      </trkpt>
      <trkpt lat="45.69138" lon="4.31128">
        <ele>528.38</ele>
        <time>2016-02-21T10:51:33Z</time>
      </trkpt>
      <trkpt lat="45.69154" lon="4.31089">
        <ele>525.02</ele>
        <time>2016-02-21T10:51:54Z</time>
      </trkpt>
      <trkpt lat="45.69163" lon="4.31071">
        <ele>522.61</ele>
        <time>2016-02-21T10:52:05Z</time>
      </trkpt>
      <trkpt lat="45.69178" lon="4.31038">
        <ele>519.25</ele>
        <time>2016-02-21T10:52:25Z</time>
      </trkpt>
      <trkpt lat="45.6919" lon="4.31008">
        <ele>517.33</ele>
        <time>2016-02-21T10:52:43Z</time>
      </trkpt>
      <trkpt lat="45.69198" lon="4.30977">
        <ele>516.37</ele>
        <time>2016-02-21T10:53:02Z</time>
      </trkpt>
      <trkpt lat="45.69201" lon="4.30969">
        <ele>515.4</ele>
        <time>2016-02-21T10:53:07Z</time>
      </trkpt>
      <trkpt lat="45.69208" lon="4.30945">
        <ele>513.96</ele>
        <time>2016-02-21T10:53:22Z</time>
      </trkpt>
      <trkpt lat="45.69209" lon="4.30939">
        <ele>513</ele>
        <time>2016-02-21T10:53:25Z</time>
      </trkpt>
      <trkpt lat="45.69211" lon="4.30913">
        <ele>509.16</ele>
        <time>2016-02-21T10:53:40Z</time>
      </trkpt>
      <trkpt lat="45.69212" lon="4.30894">
        <ele>508.67</ele>
        <time>2016-02-21T10:53:51Z</time>
      </trkpt>
      <trkpt lat="45.69217" lon="4.30892">
        <ele>508.19</ele>
        <time>2016-02-21T10:53:55Z</time>
      </trkpt>
      <trkpt lat="45.6923" lon="4.30901">
        <ele>511.56</ele>
        <time>2016-02-21T10:54:08Z</time>
      </trkpt>
      <trkpt lat="45.69238" lon="4.30907">
        <ele>511.08</ele>
        <time>2016-02-21T10:54:15Z</time>
      </trkpt>
      <trkpt lat="45.69239" lon="4.30909">
        <ele>511.08</ele>
        <time>2016-02-21T10:54:17Z</time>
      </trkpt>
      <trkpt lat="45.69255" lon="4.30926">
        <ele>511.08</ele>
        <time>2016-02-21T10:54:33Z</time>
      </trkpt>
      <trkpt lat="45.69259" lon="4.30929">
        <ele>511.08</ele>
        <time>2016-02-21T10:54:37Z</time>
      </trkpt>
      <trkpt lat="45.6928" lon="4.30944">
        <ele>507.71</ele>
        <time>2016-02-21T10:54:53Z</time>
      </trkpt>
      <trkpt lat="45.69299" lon="4.30955">
        <ele>507.23</ele>
        <time>2016-02-21T10:55:08Z</time>
      </trkpt>
      <trkpt lat="45.69303" lon="4.30958">
        <ele>505.79</ele>
        <time>2016-02-21T10:55:12Z</time>
      </trkpt>
      <trkpt lat="45.69318" lon="4.30972">
        <ele>507.71</ele>
        <time>2016-02-21T10:55:28Z</time>
      </trkpt>
      <trkpt lat="45.69332" lon="4.30991">
        <ele>509.16</ele>
        <time>2016-02-21T10:55:44Z</time>
      </trkpt>
      <trkpt lat="45.69339" lon="4.31003">
        <ele>508.19</ele>
        <time>2016-02-21T10:55:53Z</time>
      </trkpt>
      <trkpt lat="45.6935" lon="4.31017">
        <ele>506.27</ele>
        <time>2016-02-21T10:56:04Z</time>
      </trkpt>
      <trkpt lat="45.69356" lon="4.31032">
        <ele>503.87</ele>
        <time>2016-02-21T10:56:13Z</time>
      </trkpt>
      <trkpt lat="45.69362" lon="4.31046">
        <ele>504.83</ele>
        <time>2016-02-21T10:56:22Z</time>
      </trkpt>
      <trkpt lat="45.69364" lon="4.31053">
        <ele>505.31</ele>
        <time>2016-02-21T10:56:26Z</time>
      </trkpt>
      <trkpt lat="45.69366" lon="4.31061">
        <ele>506.27</ele>
        <time>2016-02-21T10:56:31Z</time>
      </trkpt>
      <trkpt lat="45.69368" lon="4.31076">
        <ele>509.16</ele>
        <time>2016-02-21T10:56:41Z</time>
      </trkpt>
      <trkpt lat="45.6937" lon="4.31102">
        <ele>513</ele>
        <time>2016-02-21T10:56:54Z</time>
      </trkpt>
      <trkpt lat="45.69371" lon="4.31106">
        <ele>513.48</ele>
        <time>2016-02-21T10:56:56Z</time>
      </trkpt>
      <trkpt lat="45.69371" lon="4.31122">
        <ele>513.48</ele>
        <time>2016-02-21T10:57:06Z</time>
      </trkpt>
      <trkpt lat="45.69376" lon="4.31144">
        <ele>511.56</ele>
        <time>2016-02-21T10:57:19Z</time>
      </trkpt>
      <trkpt lat="45.6938" lon="4.31147">
        <ele>511.08</ele>
        <time>2016-02-21T10:57:22Z</time>
      </trkpt>
      <trkpt lat="45.69398" lon="4.31152">
        <ele>513</ele>
        <time>2016-02-21T10:57:37Z</time>
      </trkpt>
      <trkpt lat="45.69403" lon="4.31154">
        <ele>513</ele>
        <time>2016-02-21T10:57:41Z</time>
      </trkpt>
      <trkpt lat="45.6941" lon="4.31164">
        <ele>510.12</ele>
        <time>2016-02-21T10:57:50Z</time>
      </trkpt>
      <trkpt lat="45.6941" lon="4.31183">
        <ele>505.31</ele>
        <time>2016-02-21T10:58:03Z</time>
      </trkpt>
      <trkpt lat="45.69408" lon="4.31193">
        <ele>498.1</ele>
        <time>2016-02-21T10:58:14Z</time>
      </trkpt>
      <trkpt lat="45.69407" lon="4.312">
        <ele>489.45</ele>
        <time>2016-02-21T10:58:27Z</time>
      </trkpt>
      <trkpt lat="45.69406" lon="4.31204">
        <ele>487.53</ele>
        <time>2016-02-21T10:58:36Z</time>
      </trkpt>
      <trkpt lat="45.69405" lon="4.31208">
        <ele>483.68</ele>
        <time>2016-02-21T10:58:56Z</time>
      </trkpt>
      <trkpt lat="45.69405" lon="4.31211">
        <ele>482.72</ele>
        <time>2016-02-21T10:59:05Z</time>
      </trkpt>
      <trkpt lat="45.69404" lon="4.31217">
        <ele>480.32</ele>
        <time>2016-02-21T10:59:20Z</time>
      </trkpt>
      <trkpt lat="45.69404" lon="4.31217">
        <ele>479.84</ele>
        <time>2016-02-21T10:59:30Z</time>
      </trkpt>
      <trkpt lat="45.69406" lon="4.31195">
        <ele>480.32</ele>
        <time>2016-02-21T10:59:45Z</time>
      </trkpt>
      <trkpt lat="45.69406" lon="4.31183">
        <ele>480.8</ele>
        <time>2016-02-21T10:59:57Z</time>
      </trkpt>
      <trkpt lat="45.69408" lon="4.31178">
        <ele>481.28</ele>
        <time>2016-02-21T11:00:09Z</time>
      </trkpt>
      <trkpt lat="45.69411" lon="4.31173">
        <ele>480.32</ele>
        <time>2016-02-21T11:00:20Z</time>
      </trkpt>
      <trkpt lat="45.69425" lon="4.3116">
        <ele>477.91</ele>
        <time>2016-02-21T11:00:33Z</time>
      </trkpt>
      <trkpt lat="45.69429" lon="4.31149">
        <ele>475.99</ele>
        <time>2016-02-21T11:00:46Z</time>
      </trkpt>
      <trkpt lat="45.69429" lon="4.31146">
        <ele>475.99</ele>
        <time>2016-02-21T11:00:49Z</time>
      </trkpt>
      <trkpt lat="45.69434" lon="4.31127">
        <ele>476.95</ele>
        <time>2016-02-21T11:00:58Z</time>
      </trkpt>
      <trkpt lat="45.69438" lon="4.3111">
        <ele>477.91</ele>
        <time>2016-02-21T11:01:07Z</time>
      </trkpt>
      <trkpt lat="45.6944" lon="4.31092">
        <ele>480.32</ele>
        <time>2016-02-21T11:01:19Z</time>
      </trkpt>
      <trkpt lat="45.69443" lon="4.31072">
        <ele>479.35</ele>
        <time>2016-02-21T11:01:31Z</time>
      </trkpt>
      <trkpt lat="45.69445" lon="4.31049">
        <ele>482.24</ele>
        <time>2016-02-21T11:01:44Z</time>
      </trkpt>
      <trkpt lat="45.69444" lon="4.31047">
        <ele>482.72</ele>
        <time>2016-02-21T11:01:46Z</time>
      </trkpt>
      <trkpt lat="45.69445" lon="4.31031">
        <ele>482.72</ele>
        <time>2016-02-21T11:01:56Z</time>
      </trkpt>
      <trkpt lat="45.69447" lon="4.31003">
        <ele>484.64</ele>
        <time>2016-02-21T11:02:11Z</time>
      </trkpt>
      <trkpt lat="45.69448" lon="4.30997">
        <ele>485.12</ele>
        <time>2016-02-21T11:02:14Z</time>
      </trkpt>
      <trkpt lat="45.69449" lon="4.30973">
        <ele>485.12</ele>
        <time>2016-02-21T11:02:27Z</time>
      </trkpt>
      <trkpt lat="45.6945" lon="4.30966">
        <ele>485.6</ele>
        <time>2016-02-21T11:02:37Z</time>
      </trkpt>
      <trkpt lat="45.69454" lon="4.30954">
        <ele>486.08</ele>
        <time>2016-02-21T11:02:49Z</time>
      </trkpt>
      <trkpt lat="45.69456" lon="4.30947">
        <ele>486.08</ele>
        <time>2016-02-21T11:02:53Z</time>
      </trkpt>
      <trkpt lat="45.6946" lon="4.30923">
        <ele>484.16</ele>
        <time>2016-02-21T11:03:06Z</time>
      </trkpt>
      <trkpt lat="45.69463" lon="4.30915">
        <ele>483.68</ele>
        <time>2016-02-21T11:03:10Z</time>
      </trkpt>
      <trkpt lat="45.69469" lon="4.3089">
        <ele>481.28</ele>
        <time>2016-02-21T11:03:24Z</time>
      </trkpt>
      <trkpt lat="45.6947" lon="4.30886">
        <ele>480.8</ele>
        <time>2016-02-21T11:03:26Z</time>
      </trkpt>
      <trkpt lat="45.69478" lon="4.30866">
        <ele>477.43</ele>
        <time>2016-02-21T11:03:38Z</time>
      </trkpt>
      <trkpt lat="45.6948" lon="4.30858">
        <ele>476.47</ele>
        <time>2016-02-21T11:03:43Z</time>
      </trkpt>
      <trkpt lat="45.69493" lon="4.30828">
        <ele>472.63</ele>
        <time>2016-02-21T11:04:00Z</time>
      </trkpt>
      <trkpt lat="45.69496" lon="4.30824">
        <ele>472.14</ele>
        <time>2016-02-21T11:04:03Z</time>
      </trkpt>
      <trkpt lat="45.69512" lon="4.30807">
        <ele>467.34</ele>
        <time>2016-02-21T11:04:19Z</time>
      </trkpt>
      <trkpt lat="45.69526" lon="4.30782">
        <ele>465.9</ele>
        <time>2016-02-21T11:04:35Z</time>
      </trkpt>
      <trkpt lat="45.69526" lon="4.30778">
        <ele>464.93</ele>
        <time>2016-02-21T11:04:37Z</time>
      </trkpt>
      <trkpt lat="45.69531" lon="4.30771">
        <ele>463.97</ele>
        <time>2016-02-21T11:04:42Z</time>
      </trkpt>
      <trkpt lat="45.69543" lon="4.30744">
        <ele>459.65</ele>
        <time>2016-02-21T11:04:59Z</time>
      </trkpt>
      <trkpt lat="45.69556" lon="4.30717">
        <ele>453.88</ele>
        <time>2016-02-21T11:05:17Z</time>
      </trkpt>
      <trkpt lat="45.69564" lon="4.30702">
        <ele>452.44</ele>
        <time>2016-02-21T11:05:27Z</time>
      </trkpt>
      <trkpt lat="45.6958" lon="4.30687">
        <ele>449.55</ele>
        <time>2016-02-21T11:05:43Z</time>
      </trkpt>
      <trkpt lat="45.69603" lon="4.30673">
        <ele>446.67</ele>
        <time>2016-02-21T11:06:02Z</time>
      </trkpt>
      <trkpt lat="45.69618" lon="4.30664">
        <ele>445.23</ele>
        <time>2016-02-21T11:06:15Z</time>
      </trkpt>
      <trkpt lat="45.69638" lon="4.3065">
        <ele>442.82</ele>
        <time>2016-02-21T11:06:34Z</time>
      </trkpt>
      <trkpt lat="45.69661" lon="4.30636">
        <ele>440.42</ele>
        <time>2016-02-21T11:06:53Z</time>
      </trkpt>
      <trkpt lat="45.69672" lon="4.30622">
        <ele>438.5</ele>
        <time>2016-02-21T11:07:05Z</time>
      </trkpt>
      <trkpt lat="45.69684" lon="4.30599">
        <ele>438.5</ele>
        <time>2016-02-21T11:07:21Z</time>
      </trkpt>
      <trkpt lat="45.69689" lon="4.30589">
        <ele>436.1</ele>
        <time>2016-02-21T11:07:27Z</time>
      </trkpt>
      <trkpt lat="45.69698" lon="4.30574">
        <ele>433.69</ele>
        <time>2016-02-21T11:07:38Z</time>
      </trkpt>
      <trkpt lat="45.69708" lon="4.30552">
        <ele>429.37</ele>
        <time>2016-02-21T11:07:53Z</time>
      </trkpt>
      <trkpt lat="45.69714" lon="4.30544">
        <ele>427.92</ele>
        <time>2016-02-21T11:07:59Z</time>
      </trkpt>
      <trkpt lat="45.69728" lon="4.30528">
        <ele>423.12</ele>
        <time>2016-02-21T11:08:13Z</time>
      </trkpt>
      <trkpt lat="45.69741" lon="4.30507">
        <ele>421.19</ele>
        <time>2016-02-21T11:08:27Z</time>
      </trkpt>
      <trkpt lat="45.69757" lon="4.30499">
        <ele>417.35</ele>
        <time>2016-02-21T11:08:44Z</time>
      </trkpt>
      <trkpt lat="45.69754" lon="4.30513">
        <ele>416.87</ele>
        <time>2016-02-21T11:08:53Z</time>
      </trkpt>
      <trkpt lat="45.69745" lon="4.30538">
        <ele>417.35</ele>
        <time>2016-02-21T11:09:07Z</time>
      </trkpt>
      <trkpt lat="45.69737" lon="4.30559">
        <ele>421.19</ele>
        <time>2016-02-21T11:09:21Z</time>
      </trkpt>
      <trkpt lat="45.69739" lon="4.30575">
        <ele>421.19</ele>
        <time>2016-02-21T11:09:29Z</time>
      </trkpt>
      <trkpt lat="45.69744" lon="4.30581">
        <ele>421.19</ele>
        <time>2016-02-21T11:09:34Z</time>
      </trkpt>
      <trkpt lat="45.69762" lon="4.30574">
        <ele>419.75</ele>
        <time>2016-02-21T11:09:49Z</time>
      </trkpt>
      <trkpt lat="45.69783" lon="4.30577">
        <ele>420.23</ele>
        <time>2016-02-21T11:10:05Z</time>
      </trkpt>
      <trkpt lat="45.69802" lon="4.3059">
        <ele>421.19</ele>
        <time>2016-02-21T11:10:21Z</time>
      </trkpt>
      <trkpt lat="45.6982" lon="4.30603">
        <ele>422.16</ele>
        <time>2016-02-21T11:10:37Z</time>
      </trkpt>
      <trkpt lat="45.6984" lon="4.30624">
        <ele>424.56</ele>
        <time>2016-02-21T11:10:57Z</time>
      </trkpt>
      <trkpt lat="45.69858" lon="4.30636">
        <ele>426</ele>
        <time>2016-02-21T11:11:13Z</time>
      </trkpt>
      <trkpt lat="45.69861" lon="4.30637">
        <ele>426.48</ele>
        <time>2016-02-21T11:11:15Z</time>
      </trkpt>
      <trkpt lat="45.69883" lon="4.30653">
        <ele>427.92</ele>
        <time>2016-02-21T11:11:35Z</time>
      </trkpt>
      <trkpt lat="45.69902" lon="4.30677">
        <ele>429.37</ele>
        <time>2016-02-21T11:11:55Z</time>
      </trkpt>
      <trkpt lat="45.69921" lon="4.3069">
        <ele>430.33</ele>
        <time>2016-02-21T11:12:12Z</time>
      </trkpt>
      <trkpt lat="45.69945" lon="4.30695">
        <ele>428.4</ele>
        <time>2016-02-21T11:12:30Z</time>
      </trkpt>
      <trkpt lat="45.69971" lon="4.30699">
        <ele>428.89</ele>
        <time>2016-02-21T11:12:49Z</time>
      </trkpt>
      <trkpt lat="45.69995" lon="4.30696">
        <ele>430.33</ele>
        <time>2016-02-21T11:13:07Z</time>
      </trkpt>
      <trkpt lat="45.70016" lon="4.30695">
        <ele>427.44</ele>
        <time>2016-02-21T11:13:23Z</time>
      </trkpt>
      <trkpt lat="45.70018" lon="4.30695">
        <ele>427.44</ele>
        <time>2016-02-21T11:13:24Z</time>
      </trkpt>
      <trkpt lat="45.70023" lon="4.30693">
        <ele>426.96</ele>
        <time>2016-02-21T11:13:28Z</time>
      </trkpt>
      <trkpt lat="45.70038" lon="4.30673">
        <ele>425.52</ele>
        <time>2016-02-21T11:13:43Z</time>
      </trkpt>
      <trkpt lat="45.70048" lon="4.30648">
        <ele>425.52</ele>
        <time>2016-02-21T11:13:58Z</time>
      </trkpt>
      <trkpt lat="45.70067" lon="4.30631">
        <ele>425.04</ele>
        <time>2016-02-21T11:14:16Z</time>
      </trkpt>
      <trkpt lat="45.70088" lon="4.30628">
        <ele>423.6</ele>
        <time>2016-02-21T11:14:31Z</time>
      </trkpt>
      <trkpt lat="45.70098" lon="4.30632">
        <ele>421.68</ele>
        <time>2016-02-21T11:14:39Z</time>
      </trkpt>
      <trkpt lat="45.70126" lon="4.30639">
        <ele>421.68</ele>
        <time>2016-02-21T11:14:59Z</time>
      </trkpt>
      <trkpt lat="45.70148" lon="4.30638">
        <ele>424.56</ele>
        <time>2016-02-21T11:15:16Z</time>
      </trkpt>
      <trkpt lat="45.70174" lon="4.30641">
        <ele>424.08</ele>
        <time>2016-02-21T11:15:35Z</time>
      </trkpt>
      <trkpt lat="45.70197" lon="4.3064">
        <ele>424.08</ele>
        <time>2016-02-21T11:15:53Z</time>
      </trkpt>
      <trkpt lat="45.70223" lon="4.3064">
        <ele>425.04</ele>
        <time>2016-02-21T11:16:12Z</time>
      </trkpt>
      <trkpt lat="45.70253" lon="4.30641">
        <ele>425.52</ele>
        <time>2016-02-21T11:16:34Z</time>
      </trkpt>
      <trkpt lat="45.70274" lon="4.30647">
        <ele>424.56</ele>
        <time>2016-02-21T11:16:50Z</time>
      </trkpt>
      <trkpt lat="45.70304" lon="4.30644">
        <ele>423.12</ele>
        <time>2016-02-21T11:17:11Z</time>
      </trkpt>
      <trkpt lat="45.70325" lon="4.30655">
        <ele>421.68</ele>
        <time>2016-02-21T11:17:29Z</time>
      </trkpt>
      <trkpt lat="45.70341" lon="4.30645">
        <ele>418.31</ele>
        <time>2016-02-21T11:17:42Z</time>
      </trkpt>
      <trkpt lat="45.70361" lon="4.30618">
        <ele>416.87</ele>
        <time>2016-02-21T11:18:02Z</time>
      </trkpt>
      <trkpt lat="45.70378" lon="4.30597">
        <ele>413.98</ele>
        <time>2016-02-21T11:18:19Z</time>
      </trkpt>
      <trkpt lat="45.70403" lon="4.30575">
        <ele>412.54</ele>
        <time>2016-02-21T11:18:40Z</time>
      </trkpt>
      <trkpt lat="45.70424" lon="4.30586">
        <ele>411.58</ele>
        <time>2016-02-21T11:18:57Z</time>
      </trkpt>
      <trkpt lat="45.70453" lon="4.30603">
        <ele>409.18</ele>
        <time>2016-02-21T11:19:20Z</time>
      </trkpt>
      <trkpt lat="45.70481" lon="4.30612">
        <ele>405.33</ele>
        <time>2016-02-21T11:19:40Z</time>
      </trkpt>
      <trkpt lat="45.7051" lon="4.30616">
        <ele>402.93</ele>
        <time>2016-02-21T11:20:01Z</time>
      </trkpt>
      <trkpt lat="45.70534" lon="4.30624">
        <ele>400.05</ele>
        <time>2016-02-21T11:20:19Z</time>
      </trkpt>
      <trkpt lat="45.70555" lon="4.30631">
        <ele>398.12</ele>
        <time>2016-02-21T11:20:35Z</time>
      </trkpt>
      <trkpt lat="45.70577" lon="4.30636">
        <ele>395.72</ele>
        <time>2016-02-21T11:20:52Z</time>
      </trkpt>
      <trkpt lat="45.70595" lon="4.30646">
        <ele>393.8</ele>
        <time>2016-02-21T11:21:09Z</time>
      </trkpt>
      <trkpt lat="45.70608" lon="4.3065">
        <ele>391.87</ele>
        <time>2016-02-21T11:21:22Z</time>
      </trkpt>
      <trkpt lat="45.70626" lon="4.3066">
        <ele>391.39</ele>
        <time>2016-02-21T11:21:37Z</time>
      </trkpt>
      <trkpt lat="45.70641" lon="4.30655">
        <ele>391.87</ele>
        <time>2016-02-21T11:21:50Z</time>
      </trkpt>
      <trkpt lat="45.70653" lon="4.30629">
        <ele>392.36</ele>
        <time>2016-02-21T11:22:05Z</time>
      </trkpt>
      <trkpt lat="45.70659" lon="4.30619">
        <ele>391.39</ele>
        <time>2016-02-21T11:22:13Z</time>
      </trkpt>
      <trkpt lat="45.70663" lon="4.30613">
        <ele>389.95</ele>
        <time>2016-02-21T11:22:19Z</time>
      </trkpt>
      <trkpt lat="45.70675" lon="4.30614">
        <ele>388.99</ele>
        <time>2016-02-21T11:22:33Z</time>
      </trkpt>
      <trkpt lat="45.70701" lon="4.30611">
        <ele>388.51</ele>
        <time>2016-02-21T11:22:51Z</time>
      </trkpt>
      <trkpt lat="45.70725" lon="4.30606">
        <ele>391.87</ele>
        <time>2016-02-21T11:23:09Z</time>
      </trkpt>
      <trkpt lat="45.70738" lon="4.30609">
        <ele>392.84</ele>
        <time>2016-02-21T11:23:21Z</time>
      </trkpt>
      <trkpt lat="45.70743" lon="4.30617">
        <ele>392.84</ele>
        <time>2016-02-21T11:23:27Z</time>
      </trkpt>
      <trkpt lat="45.70744" lon="4.30644">
        <ele>394.28</ele>
        <time>2016-02-21T11:23:43Z</time>
      </trkpt>
      <trkpt lat="45.70744" lon="4.30646">
        <ele>394.28</ele>
        <time>2016-02-21T11:23:44Z</time>
      </trkpt>
      <trkpt lat="45.70748" lon="4.30658">
        <ele>394.76</ele>
        <time>2016-02-21T11:23:52Z</time>
      </trkpt>
      <trkpt lat="45.70749" lon="4.30666">
        <ele>395.72</ele>
        <time>2016-02-21T11:23:56Z</time>
      </trkpt>
      <trkpt lat="45.70766" lon="4.30672">
        <ele>397.64</ele>
        <time>2016-02-21T11:24:11Z</time>
      </trkpt>
      <trkpt lat="45.70786" lon="4.30671">
        <ele>400.05</ele>
        <time>2016-02-21T11:24:27Z</time>
      </trkpt>
      <trkpt lat="45.70809" lon="4.30672">
        <ele>402.93</ele>
        <time>2016-02-21T11:24:46Z</time>
      </trkpt>
      <trkpt lat="45.70831" lon="4.30667">
        <ele>404.85</ele>
        <time>2016-02-21T11:25:04Z</time>
      </trkpt>
      <trkpt lat="45.70852" lon="4.30661">
        <ele>407.26</ele>
        <time>2016-02-21T11:25:21Z</time>
      </trkpt>
      <trkpt lat="45.70874" lon="4.30653">
        <ele>409.66</ele>
        <time>2016-02-21T11:25:40Z</time>
      </trkpt>
      <trkpt lat="45.70893" lon="4.30633">
        <ele>410.14</ele>
        <time>2016-02-21T11:25:58Z</time>
      </trkpt>
      <trkpt lat="45.7091" lon="4.30617">
        <ele>411.58</ele>
        <time>2016-02-21T11:26:14Z</time>
      </trkpt>
      <trkpt lat="45.70914" lon="4.30614">
        <ele>411.58</ele>
        <time>2016-02-21T11:26:18Z</time>
      </trkpt>
      <trkpt lat="45.70941" lon="4.306">
        <ele>413.5</ele>
        <time>2016-02-21T11:26:39Z</time>
      </trkpt>
      <trkpt lat="45.70965" lon="4.30586">
        <ele>414.47</ele>
        <time>2016-02-21T11:26:58Z</time>
      </trkpt>
      <trkpt lat="45.70986" lon="4.30578">
        <ele>414.47</ele>
        <time>2016-02-21T11:27:14Z</time>
      </trkpt>
      <trkpt lat="45.7101" lon="4.30565">
        <ele>415.43</ele>
        <time>2016-02-21T11:27:32Z</time>
      </trkpt>
      <trkpt lat="45.71033" lon="4.30562">
        <ele>417.35</ele>
        <time>2016-02-21T11:27:49Z</time>
      </trkpt>
      <trkpt lat="45.71058" lon="4.30565">
        <ele>416.87</ele>
        <time>2016-02-21T11:28:06Z</time>
      </trkpt>
      <trkpt lat="45.71081" lon="4.30565">
        <ele>418.79</ele>
        <time>2016-02-21T11:28:22Z</time>
      </trkpt>
      <trkpt lat="45.71098" lon="4.30565">
        <ele>420.23</ele>
        <time>2016-02-21T11:28:35Z</time>
      </trkpt>
      <trkpt lat="45.71112" lon="4.30563">
        <ele>419.27</ele>
        <time>2016-02-21T11:28:46Z</time>
      </trkpt>
      <trkpt lat="45.71132" lon="4.30563">
        <ele>418.31</ele>
        <time>2016-02-21T11:29:00Z</time>
      </trkpt>
      <trkpt lat="45.7115" lon="4.30564">
        <ele>417.35</ele>
        <time>2016-02-21T11:29:14Z</time>
      </trkpt>
      <trkpt lat="45.71169" lon="4.30563">
        <ele>417.83</ele>
        <time>2016-02-21T11:29:30Z</time>
      </trkpt>
      <trkpt lat="45.71185" lon="4.30557">
        <ele>416.39</ele>
        <time>2016-02-21T11:29:42Z</time>
      </trkpt>
      <trkpt lat="45.71209" lon="4.30542">
        <ele>413.98</ele>
        <time>2016-02-21T11:30:01Z</time>
      </trkpt>
      <trkpt lat="45.71234" lon="4.30525">
        <ele>412.54</ele>
        <time>2016-02-21T11:30:20Z</time>
      </trkpt>
      <trkpt lat="45.71257" lon="4.30511">
        <ele>412.06</ele>
        <time>2016-02-21T11:30:38Z</time>
      </trkpt>
      <trkpt lat="45.71283" lon="4.30494">
        <ele>411.58</ele>
        <time>2016-02-21T11:30:58Z</time>
      </trkpt>
      <trkpt lat="45.71297" lon="4.30472">
        <ele>409.18</ele>
        <time>2016-02-21T11:31:14Z</time>
      </trkpt>
      <trkpt lat="45.71305" lon="4.30445">
        <ele>407.26</ele>
        <time>2016-02-21T11:31:30Z</time>
      </trkpt>
      <trkpt lat="45.71313" lon="4.30418">
        <ele>405.33</ele>
        <time>2016-02-21T11:31:46Z</time>
      </trkpt>
      <trkpt lat="45.71323" lon="4.30398">
        <ele>402.45</ele>
        <time>2016-02-21T11:32:00Z</time>
      </trkpt>
      <trkpt lat="45.7134" lon="4.30384">
        <ele>401.01</ele>
        <time>2016-02-21T11:32:17Z</time>
      </trkpt>
      <trkpt lat="45.71345" lon="4.30381">
        <ele>401.01</ele>
        <time>2016-02-21T11:32:21Z</time>
      </trkpt>
      <trkpt lat="45.71367" lon="4.30362">
        <ele>401.49</ele>
        <time>2016-02-21T11:32:38Z</time>
      </trkpt>
      <trkpt lat="45.71374" lon="4.30356">
        <ele>401.49</ele>
        <time>2016-02-21T11:32:44Z</time>
      </trkpt>
      <trkpt lat="45.71387" lon="4.30349">
        <ele>401.01</ele>
        <time>2016-02-21T11:32:53Z</time>
      </trkpt>
      <trkpt lat="45.71416" lon="4.30329">
        <ele>400.53</ele>
        <time>2016-02-21T11:33:13Z</time>
      </trkpt>
      <trkpt lat="45.71442" lon="4.3031">
        <ele>401.97</ele>
        <time>2016-02-21T11:33:33Z</time>
      </trkpt>
      <trkpt lat="45.71456" lon="4.30306">
        <ele>401.49</ele>
        <time>2016-02-21T11:33:48Z</time>
      </trkpt>
      <trkpt lat="45.7148" lon="4.30287">
        <ele>402.45</ele>
        <time>2016-02-21T11:34:07Z</time>
      </trkpt>
      <trkpt lat="45.71496" lon="4.30265">
        <ele>400.05</ele>
        <time>2016-02-21T11:34:25Z</time>
      </trkpt>
      <trkpt lat="45.71491" lon="4.30232">
        <ele>398.6</ele>
        <time>2016-02-21T11:34:43Z</time>
      </trkpt>
      <trkpt lat="45.71484" lon="4.30201">
        <ele>396.68</ele>
        <time>2016-02-21T11:34:59Z</time>
      </trkpt>
      <trkpt lat="45.71482" lon="4.30168">
        <ele>392.84</ele>
        <time>2016-02-21T11:35:16Z</time>
      </trkpt>
      <trkpt lat="45.71497" lon="4.30137">
        <ele>389.47</ele>
        <time>2016-02-21T11:35:36Z</time>
      </trkpt>
      <trkpt lat="45.71519" lon="4.30148">
        <ele>389.47</ele>
        <time>2016-02-21T11:35:54Z</time>
      </trkpt>
      <trkpt lat="45.71546" lon="4.30159">
        <ele>390.43</ele>
        <time>2016-02-21T11:36:14Z</time>
      </trkpt>
      <trkpt lat="45.71568" lon="4.30174">
        <ele>391.87</ele>
        <time>2016-02-21T11:36:32Z</time>
      </trkpt>
      <trkpt lat="45.71587" lon="4.30187">
        <ele>392.36</ele>
        <time>2016-02-21T11:36:47Z</time>
      </trkpt>
      <trkpt lat="45.7161" lon="4.30204">
        <ele>392.36</ele>
        <time>2016-02-21T11:37:06Z</time>
      </trkpt>
      <trkpt lat="45.71615" lon="4.30207">
        <ele>392.36</ele>
        <time>2016-02-21T11:37:10Z</time>
      </trkpt>
      <trkpt lat="45.7164" lon="4.30219">
        <ele>395.72</ele>
        <time>2016-02-21T11:37:29Z</time>
      </trkpt>
      <trkpt lat="45.71667" lon="4.30216">
        <ele>396.68</ele>
        <time>2016-02-21T11:37:48Z</time>
      </trkpt>
      <trkpt lat="45.71693" lon="4.30213">
        <ele>399.08</ele>
        <time>2016-02-21T11:38:07Z</time>
      </trkpt>
      <trkpt lat="45.71714" lon="4.30209">
        <ele>401.01</ele>
        <time>2016-02-21T11:38:23Z</time>
      </trkpt>
      <trkpt lat="45.71737" lon="4.30203">
        <ele>401.01</ele>
        <time>2016-02-21T11:38:41Z</time>
      </trkpt>
      <trkpt lat="45.71742" lon="4.30201">
        <ele>400.05</ele>
        <time>2016-02-21T11:38:53Z</time>
      </trkpt>
      <trkpt lat="45.71744" lon="4.30196">
        <ele>400.05</ele>
        <time>2016-02-21T11:39:04Z</time>
      </trkpt>
      <trkpt lat="45.71748" lon="4.30191">
        <ele>400.05</ele>
        <time>2016-02-21T11:39:15Z</time>
      </trkpt>
      <trkpt lat="45.7175" lon="4.30185">
        <ele>399.57</ele>
        <time>2016-02-21T11:39:29Z</time>
      </trkpt>
      <trkpt lat="45.71751" lon="4.30185">
        <ele>399.57</ele>
        <time>2016-02-21T11:39:40Z</time>
      </trkpt>
      <trkpt lat="45.71752" lon="4.30184">
        <ele>399.08</ele>
        <time>2016-02-21T11:40:03Z</time>
      </trkpt>
      <trkpt lat="45.71751" lon="4.30184">
        <ele>398.6</ele>
        <time>2016-02-21T11:40:24Z</time>
      </trkpt>
      <trkpt lat="45.71751" lon="4.30182">
        <ele>398.12</ele>
        <time>2016-02-21T11:40:38Z</time>
      </trkpt>
      <trkpt lat="45.71751" lon="4.30181">
        <ele>398.6</ele>
        <time>2016-02-21T11:41:00Z</time>
      </trkpt>
      <trkpt lat="45.71752" lon="4.3018">
        <ele>398.12</ele>
        <time>2016-02-21T11:41:12Z</time>
      </trkpt>
      <trkpt lat="45.71753" lon="4.30178">
        <ele>396.2</ele>
        <time>2016-02-21T11:41:25Z</time>
      </trkpt>
      <trkpt lat="45.71753" lon="4.30178">
        <ele>396.68</ele>
        <time>2016-02-21T11:41:35Z</time>
      </trkpt>
      <trkpt lat="45.71753" lon="4.30179">
        <ele>397.64</ele>
        <time>2016-02-21T11:42:00Z</time>
      </trkpt>
      <trkpt lat="45.71753" lon="4.30178">
        <ele>397.64</ele>
        <time>2016-02-21T11:42:09Z</time>
      </trkpt>
      <trkpt lat="45.71755" lon="4.30174">
        <ele>393.8</ele>
        <time>2016-02-21T11:42:24Z</time>
      </trkpt>
      <trkpt lat="45.71755" lon="4.30174">
        <ele>393.32</ele>
        <time>2016-02-21T11:42:42Z</time>
      </trkpt>
      <trkpt lat="45.71754" lon="4.30176">
        <ele>394.76</ele>
        <time>2016-02-21T11:42:56Z</time>
      </trkpt>
      <trkpt lat="45.71754" lon="4.30177">
        <ele>395.72</ele>
        <time>2016-02-21T11:43:13Z</time>
      </trkpt>
      <trkpt lat="45.71753" lon="4.30179">
        <ele>397.16</ele>
        <time>2016-02-21T11:43:30Z</time>
      </trkpt>
      <trkpt lat="45.71753" lon="4.30179">
        <ele>396.68</ele>
        <time>2016-02-21T11:43:49Z</time>
      </trkpt>
      <trkpt lat="45.71753" lon="4.30177">
        <ele>395.72</ele>
        <time>2016-02-21T11:44:00Z</time>
      </trkpt>
      <trkpt lat="45.71753" lon="4.30177">
        <ele>395.72</ele>
        <time>2016-02-21T11:44:18Z</time>
      </trkpt>
      <trkpt lat="45.71754" lon="4.30176">
        <ele>396.2</ele>
        <time>2016-02-21T11:44:35Z</time>
      </trkpt>
      <trkpt lat="45.71754" lon="4.30175">
        <ele>395.72</ele>
        <time>2016-02-21T11:44:51Z</time>
      </trkpt>
      <trkpt lat="45.71753" lon="4.30176">
        <ele>395.72</ele>
        <time>2016-02-21T11:45:10Z</time>
      </trkpt>
      <trkpt lat="45.71753" lon="4.30177">
        <ele>396.2</ele>
        <time>2016-02-21T11:45:26Z</time>
      </trkpt>
      <trkpt lat="45.71753" lon="4.30178">
        <ele>397.16</ele>
        <time>2016-02-21T11:45:40Z</time>
      </trkpt>
      <trkpt lat="45.71752" lon="4.30179">
        <ele>397.64</ele>
        <time>2016-02-21T11:45:56Z</time>
      </trkpt>
      <trkpt lat="45.71753" lon="4.30179">
        <ele>397.64</ele>
        <time>2016-02-21T11:46:10Z</time>
      </trkpt>
      <trkpt lat="45.71753" lon="4.30178">
        <ele>397.16</ele>
        <time>2016-02-21T11:46:21Z</time>
      </trkpt>
      <trkpt lat="45.71753" lon="4.30178">
        <ele>395.72</ele>
        <time>2016-02-21T11:46:44Z</time>
      </trkpt>
      <trkpt lat="45.71753" lon="4.30178">
        <ele>396.2</ele>
        <time>2016-02-21T11:47:10Z</time>
      </trkpt>
      <trkpt lat="45.71753" lon="4.30178">
        <ele>396.2</ele>
        <time>2016-02-21T11:47:31Z</time>
      </trkpt>
      <trkpt lat="45.71753" lon="4.30177">
        <ele>396.2</ele>
        <time>2016-02-21T11:47:54Z</time>
      </trkpt>
      <trkpt lat="45.71752" lon="4.30178">
        <ele>396.68</ele>
        <time>2016-02-21T11:48:13Z</time>
      </trkpt>
      <trkpt lat="45.71753" lon="4.30178">
        <ele>397.16</ele>
        <time>2016-02-21T11:48:37Z</time>
      </trkpt>
      <trkpt lat="45.71753" lon="4.30177">
        <ele>397.64</ele>
        <time>2016-02-21T11:49:03Z</time>
      </trkpt>
      <trkpt lat="45.71753" lon="4.30177">
        <ele>398.6</ele>
        <time>2016-02-21T11:49:33Z</time>
      </trkpt>
      <trkpt lat="45.71753" lon="4.30177">
        <ele>398.6</ele>
        <time>2016-02-21T11:49:58Z</time>
      </trkpt>
      <trkpt lat="45.71752" lon="4.30177">
        <ele>398.6</ele>
        <time>2016-02-21T11:50:23Z</time>
      </trkpt>
      <trkpt lat="45.71752" lon="4.30177">
        <ele>399.08</ele>
        <time>2016-02-21T11:50:49Z</time>
      </trkpt>
      <trkpt lat="45.71752" lon="4.30177">
        <ele>398.6</ele>
        <time>2016-02-21T11:51:17Z</time>
      </trkpt>
      <trkpt lat="45.71752" lon="4.30178">
        <ele>399.08</ele>
        <time>2016-02-21T11:51:45Z</time>
      </trkpt>
      <trkpt lat="45.71753" lon="4.30178">
        <ele>398.12</ele>
        <time>2016-02-21T11:52:18Z</time>
      </trkpt>
      <trkpt lat="45.71753" lon="4.30178">
        <ele>398.6</ele>
        <time>2016-02-21T11:52:48Z</time>
      </trkpt>
      <trkpt lat="45.71752" lon="4.30178">
        <ele>398.6</ele>
        <time>2016-02-21T11:53:20Z</time>
      </trkpt>
      <trkpt lat="45.71752" lon="4.30178">
        <ele>399.08</ele>
        <time>2016-02-21T11:53:43Z</time>
      </trkpt>
      <trkpt lat="45.71752" lon="4.30178">
        <ele>399.08</ele>
        <time>2016-02-21T11:54:11Z</time>
      </trkpt>
      <trkpt lat="45.71752" lon="4.30178">
        <ele>398.6</ele>
        <time>2016-02-21T11:54:40Z</time>
      </trkpt>
      <trkpt lat="45.71753" lon="4.3018">
        <ele>399.08</ele>
        <time>2016-02-21T11:55:10Z</time>
      </trkpt>
      <trkpt lat="45.71752" lon="4.3018">
        <ele>399.57</ele>
        <time>2016-02-21T11:55:19Z</time>
      </trkpt>
      <trkpt lat="45.71752" lon="4.30192">
        <ele>401.49</ele>
        <time>2016-02-21T11:55:30Z</time>
      </trkpt>
      <trkpt lat="45.71746" lon="4.30201">
        <ele>399.57</ele>
        <time>2016-02-21T11:55:38Z</time>
      </trkpt>
      <trkpt lat="45.71744" lon="4.30224">
        <ele>399.57</ele>
        <time>2016-02-21T11:55:53Z</time>
      </trkpt>
      <trkpt lat="45.71745" lon="4.30253">
        <ele>401.49</ele>
        <time>2016-02-21T11:56:10Z</time>
      </trkpt>
      <trkpt lat="45.71746" lon="4.30259">
        <ele>401.49</ele>
        <time>2016-02-21T11:56:14Z</time>
      </trkpt>
      <trkpt lat="45.71749" lon="4.30266">
        <ele>401.97</ele>
        <time>2016-02-21T11:56:18Z</time>
      </trkpt>
      <trkpt lat="45.71758" lon="4.30303">
        <ele>402.45</ele>
        <time>2016-02-21T11:56:39Z</time>
      </trkpt>
      <trkpt lat="45.71763" lon="4.30331">
        <ele>402.45</ele>
        <time>2016-02-21T11:56:54Z</time>
      </trkpt>
      <trkpt lat="45.71768" lon="4.30366">
        <ele>403.89</ele>
        <time>2016-02-21T11:57:13Z</time>
      </trkpt>
      <trkpt lat="45.71774" lon="4.30399">
        <ele>404.37</ele>
        <time>2016-02-21T11:57:31Z</time>
      </trkpt>
      <trkpt lat="45.71786" lon="4.3043">
        <ele>405.33</ele>
        <time>2016-02-21T11:57:49Z</time>
      </trkpt>
      <trkpt lat="45.71803" lon="4.30456">
        <ele>407.74</ele>
        <time>2016-02-21T11:58:09Z</time>
      </trkpt>
      <trkpt lat="45.71805" lon="4.30457">
        <ele>408.22</ele>
        <time>2016-02-21T11:58:11Z</time>
      </trkpt>
      <trkpt lat="45.71815" lon="4.30452">
        <ele>408.22</ele>
        <time>2016-02-21T11:58:25Z</time>
      </trkpt>
      <trkpt lat="45.71827" lon="4.30446">
        <ele>410.62</ele>
        <time>2016-02-21T11:58:39Z</time>
      </trkpt>
      <trkpt lat="45.71828" lon="4.30446">
        <ele>410.62</ele>
        <time>2016-02-21T11:58:40Z</time>
      </trkpt>
      <trkpt lat="45.71839" lon="4.30453">
        <ele>411.1</ele>
        <time>2016-02-21T11:58:51Z</time>
      </trkpt>
      <trkpt lat="45.71851" lon="4.3049">
        <ele>412.54</ele>
        <time>2016-02-21T11:59:12Z</time>
      </trkpt>
      <trkpt lat="45.71855" lon="4.3051">
        <ele>413.98</ele>
        <time>2016-02-21T11:59:23Z</time>
      </trkpt>
      <trkpt lat="45.71859" lon="4.30519">
        <ele>414.95</ele>
        <time>2016-02-21T11:59:29Z</time>
      </trkpt>
      <trkpt lat="45.71864" lon="4.30521">
        <ele>415.43</ele>
        <time>2016-02-21T11:59:33Z</time>
      </trkpt>
      <trkpt lat="45.71883" lon="4.30519">
        <ele>418.31</ele>
        <time>2016-02-21T11:59:50Z</time>
      </trkpt>
      <trkpt lat="45.71903" lon="4.30518">
        <ele>420.23</ele>
        <time>2016-02-21T12:00:06Z</time>
      </trkpt>
      <trkpt lat="45.71904" lon="4.30518">
        <ele>420.23</ele>
        <time>2016-02-21T12:00:07Z</time>
      </trkpt>
      <trkpt lat="45.71911" lon="4.30526">
        <ele>421.68</ele>
        <time>2016-02-21T12:00:21Z</time>
      </trkpt>
      <trkpt lat="45.7191" lon="4.30527">
        <ele>421.68</ele>
        <time>2016-02-21T12:00:22Z</time>
      </trkpt>
      <trkpt lat="45.719" lon="4.30547">
        <ele>424.08</ele>
        <time>2016-02-21T12:00:38Z</time>
      </trkpt>
      <trkpt lat="45.71894" lon="4.30557">
        <ele>425.04</ele>
        <time>2016-02-21T12:00:45Z</time>
      </trkpt>
      <trkpt lat="45.71891" lon="4.30562">
        <ele>425.52</ele>
        <time>2016-02-21T12:00:49Z</time>
      </trkpt>
      <trkpt lat="45.71885" lon="4.30579">
        <ele>427.44</ele>
        <time>2016-02-21T12:01:01Z</time>
      </trkpt>
      <trkpt lat="45.71874" lon="4.306">
        <ele>428.89</ele>
        <time>2016-02-21T12:01:17Z</time>
      </trkpt>
      <trkpt lat="45.71867" lon="4.30617">
        <ele>427.92</ele>
        <time>2016-02-21T12:01:28Z</time>
      </trkpt>
      <trkpt lat="45.71866" lon="4.3062">
        <ele>427.92</ele>
        <time>2016-02-21T12:01:30Z</time>
      </trkpt>
      <trkpt lat="45.71867" lon="4.30623">
        <ele>428.4</ele>
        <time>2016-02-21T12:01:32Z</time>
      </trkpt>
      <trkpt lat="45.71859" lon="4.30654">
        <ele>430.81</ele>
        <time>2016-02-21T12:01:50Z</time>
      </trkpt>
      <trkpt lat="45.71853" lon="4.30679">
        <ele>432.25</ele>
        <time>2016-02-21T12:02:05Z</time>
      </trkpt>
      <trkpt lat="45.71853" lon="4.30681">
        <ele>432.73</ele>
        <time>2016-02-21T12:02:06Z</time>
      </trkpt>
      <trkpt lat="45.71852" lon="4.30707">
        <ele>434.17</ele>
        <time>2016-02-21T12:02:22Z</time>
      </trkpt>
      <trkpt lat="45.71854" lon="4.3073">
        <ele>437.06</ele>
        <time>2016-02-21T12:02:37Z</time>
      </trkpt>
      <trkpt lat="45.71854" lon="4.30731">
        <ele>437.54</ele>
        <time>2016-02-21T12:02:38Z</time>
      </trkpt>
      <trkpt lat="45.7186" lon="4.30756">
        <ele>440.42</ele>
        <time>2016-02-21T12:02:55Z</time>
      </trkpt>
      <trkpt lat="45.71866" lon="4.30775">
        <ele>441.38</ele>
        <time>2016-02-21T12:03:08Z</time>
      </trkpt>
      <trkpt lat="45.71871" lon="4.30797">
        <ele>443.31</ele>
        <time>2016-02-21T12:03:23Z</time>
      </trkpt>
      <trkpt lat="45.71869" lon="4.30818">
        <ele>447.63</ele>
        <time>2016-02-21T12:03:39Z</time>
      </trkpt>
      <trkpt lat="45.71865" lon="4.30825">
        <ele>449.07</ele>
        <time>2016-02-21T12:03:45Z</time>
      </trkpt>
      <trkpt lat="45.71852" lon="4.3084">
        <ele>450.03</ele>
        <time>2016-02-21T12:03:56Z</time>
      </trkpt>
      <trkpt lat="45.71831" lon="4.30864">
        <ele>448.11</ele>
        <time>2016-02-21T12:04:13Z</time>
      </trkpt>
      <trkpt lat="45.71826" lon="4.30878">
        <ele>448.11</ele>
        <time>2016-02-21T12:04:22Z</time>
      </trkpt>
      <trkpt lat="45.71824" lon="4.30886">
        <ele>448.11</ele>
        <time>2016-02-21T12:04:27Z</time>
      </trkpt>
      <trkpt lat="45.71826" lon="4.30899">
        <ele>446.67</ele>
        <time>2016-02-21T12:04:35Z</time>
      </trkpt>
      <trkpt lat="45.71832" lon="4.30906">
        <ele>444.27</ele>
        <time>2016-02-21T12:04:42Z</time>
      </trkpt>
      <trkpt lat="45.71837" lon="4.30911">
        <ele>443.31</ele>
        <time>2016-02-21T12:04:47Z</time>
      </trkpt>
      <trkpt lat="45.71851" lon="4.30924">
        <ele>441.38</ele>
        <time>2016-02-21T12:05:01Z</time>
      </trkpt>
      <trkpt lat="45.71864" lon="4.30936">
        <ele>441.86</ele>
        <time>2016-02-21T12:05:14Z</time>
      </trkpt>
      <trkpt lat="45.71877" lon="4.30958">
        <ele>442.34</ele>
        <time>2016-02-21T12:05:28Z</time>
      </trkpt>
      <trkpt lat="45.71884" lon="4.30978">
        <ele>444.27</ele>
        <time>2016-02-21T12:05:42Z</time>
      </trkpt>
      <trkpt lat="45.71891" lon="4.30996">
        <ele>446.19</ele>
        <time>2016-02-21T12:05:53Z</time>
      </trkpt>
      <trkpt lat="45.71892" lon="4.31004">
        <ele>446.19</ele>
        <time>2016-02-21T12:05:57Z</time>
      </trkpt>
      <trkpt lat="45.71887" lon="4.31029">
        <ele>449.55</ele>
        <time>2016-02-21T12:06:11Z</time>
      </trkpt>
      <trkpt lat="45.71885" lon="4.31044">
        <ele>449.07</ele>
        <time>2016-02-21T12:06:22Z</time>
      </trkpt>
      <trkpt lat="45.71884" lon="4.31049">
        <ele>449.07</ele>
        <time>2016-02-21T12:06:24Z</time>
      </trkpt>
      <trkpt lat="45.71879" lon="4.31068">
        <ele>450.03</ele>
        <time>2016-02-21T12:06:34Z</time>
      </trkpt>
      <trkpt lat="45.71876" lon="4.31086">
        <ele>449.55</ele>
        <time>2016-02-21T12:06:46Z</time>
      </trkpt>
      <trkpt lat="45.71876" lon="4.31088">
        <ele>449.55</ele>
        <time>2016-02-21T12:06:47Z</time>
      </trkpt>
      <trkpt lat="45.71872" lon="4.31107">
        <ele>448.59</ele>
        <time>2016-02-21T12:06:56Z</time>
      </trkpt>
      <trkpt lat="45.71873" lon="4.31111">
        <ele>448.59</ele>
        <time>2016-02-21T12:06:59Z</time>
      </trkpt>
      <trkpt lat="45.71876" lon="4.31133">
        <ele>447.63</ele>
        <time>2016-02-21T12:07:12Z</time>
      </trkpt>
      <trkpt lat="45.71875" lon="4.31143">
        <ele>447.15</ele>
        <time>2016-02-21T12:07:18Z</time>
      </trkpt>
      <trkpt lat="45.71874" lon="4.31147">
        <ele>447.63</ele>
        <time>2016-02-21T12:07:20Z</time>
      </trkpt>
      <trkpt lat="45.71872" lon="4.31151">
        <ele>448.11</ele>
        <time>2016-02-21T12:07:23Z</time>
      </trkpt>
      <trkpt lat="45.71872" lon="4.31161">
        <ele>449.07</ele>
        <time>2016-02-21T12:07:29Z</time>
      </trkpt>
      <trkpt lat="45.71872" lon="4.31166">
        <ele>449.07</ele>
        <time>2016-02-21T12:07:32Z</time>
      </trkpt>
      <trkpt lat="45.71871" lon="4.31178">
        <ele>449.07</ele>
        <time>2016-02-21T12:07:38Z</time>
      </trkpt>
      <trkpt lat="45.71869" lon="4.31187">
        <ele>449.07</ele>
        <time>2016-02-21T12:07:43Z</time>
      </trkpt>
      <trkpt lat="45.71867" lon="4.31197">
        <ele>448.11</ele>
        <time>2016-02-21T12:07:48Z</time>
      </trkpt>
      <trkpt lat="45.71868" lon="4.312">
        <ele>448.11</ele>
        <time>2016-02-21T12:07:50Z</time>
      </trkpt>
      <trkpt lat="45.71871" lon="4.31223">
        <ele>448.11</ele>
        <time>2016-02-21T12:08:03Z</time>
      </trkpt>
      <trkpt lat="45.71871" lon="4.31225">
        <ele>448.11</ele>
        <time>2016-02-21T12:08:04Z</time>
      </trkpt>
      <trkpt lat="45.7187" lon="4.31235">
        <ele>447.63</ele>
        <time>2016-02-21T12:08:09Z</time>
      </trkpt>
      <trkpt lat="45.71867" lon="4.31248">
        <ele>447.15</ele>
        <time>2016-02-21T12:08:16Z</time>
      </trkpt>
      <trkpt lat="45.7186" lon="4.31276">
        <ele>450.52</ele>
        <time>2016-02-21T12:08:34Z</time>
      </trkpt>
      <trkpt lat="45.71859" lon="4.31282">
        <ele>451.48</ele>
        <time>2016-02-21T12:08:38Z</time>
      </trkpt>
      <trkpt lat="45.71857" lon="4.31289">
        <ele>452.44</ele>
        <time>2016-02-21T12:08:42Z</time>
      </trkpt>
      <trkpt lat="45.71856" lon="4.31295">
        <ele>451.48</ele>
        <time>2016-02-21T12:08:47Z</time>
      </trkpt>
      <trkpt lat="45.71854" lon="4.31304">
        <ele>451.96</ele>
        <time>2016-02-21T12:08:52Z</time>
      </trkpt>
      <trkpt lat="45.71852" lon="4.31321">
        <ele>453.4</ele>
        <time>2016-02-21T12:09:01Z</time>
      </trkpt>
      <trkpt lat="45.71851" lon="4.31345">
        <ele>451.96</ele>
        <time>2016-02-21T12:09:15Z</time>
      </trkpt>
      <trkpt lat="45.7185" lon="4.31359">
        <ele>452.92</ele>
        <time>2016-02-21T12:09:24Z</time>
      </trkpt>
      <trkpt lat="45.71851" lon="4.31368">
        <ele>451.96</ele>
        <time>2016-02-21T12:09:30Z</time>
      </trkpt>
      <trkpt lat="45.71851" lon="4.31381">
        <ele>454.36</ele>
        <time>2016-02-21T12:09:37Z</time>
      </trkpt>
      <trkpt lat="45.71854" lon="4.31403">
        <ele>457.24</ele>
        <time>2016-02-21T12:09:49Z</time>
      </trkpt>
      <trkpt lat="45.71854" lon="4.31409">
        <ele>457.72</ele>
        <time>2016-02-21T12:09:52Z</time>
      </trkpt>
      <trkpt lat="45.71855" lon="4.31438">
        <ele>457.24</ele>
        <time>2016-02-21T12:10:08Z</time>
      </trkpt>
      <trkpt lat="45.71852" lon="4.31448">
        <ele>456.28</ele>
        <time>2016-02-21T12:10:14Z</time>
      </trkpt>
      <trkpt lat="45.71837" lon="4.31473">
        <ele>454.84</ele>
        <time>2016-02-21T12:10:30Z</time>
      </trkpt>
      <trkpt lat="45.7183" lon="4.31494">
        <ele>455.32</ele>
        <time>2016-02-21T12:10:43Z</time>
      </trkpt>
      <trkpt lat="45.71822" lon="4.31518">
        <ele>454.36</ele>
        <time>2016-02-21T12:10:59Z</time>
      </trkpt>
      <trkpt lat="45.71815" lon="4.31549">
        <ele>457.24</ele>
        <time>2016-02-21T12:11:17Z</time>
      </trkpt>
      <trkpt lat="45.71818" lon="4.31579">
        <ele>459.17</ele>
        <time>2016-02-21T12:11:35Z</time>
      </trkpt>
      <trkpt lat="45.71826" lon="4.31604">
        <ele>460.13</ele>
        <time>2016-02-21T12:11:50Z</time>
      </trkpt>
      <trkpt lat="45.71835" lon="4.31627">
        <ele>461.09</ele>
        <time>2016-02-21T12:12:05Z</time>
      </trkpt>
      <trkpt lat="45.71841" lon="4.31653">
        <ele>462.53</ele>
        <time>2016-02-21T12:12:20Z</time>
      </trkpt>
      <trkpt lat="45.71839" lon="4.31683">
        <ele>460.61</ele>
        <time>2016-02-21T12:12:37Z</time>
      </trkpt>
      <trkpt lat="45.71839" lon="4.31684">
        <ele>460.61</ele>
        <time>2016-02-21T12:12:38Z</time>
      </trkpt>
      <trkpt lat="45.71841" lon="4.3171">
        <ele>462.53</ele>
        <time>2016-02-21T12:12:53Z</time>
      </trkpt>
      <trkpt lat="45.71841" lon="4.31716">
        <ele>462.53</ele>
        <time>2016-02-21T12:12:56Z</time>
      </trkpt>
      <trkpt lat="45.71838" lon="4.3173">
        <ele>462.05</ele>
        <time>2016-02-21T12:13:04Z</time>
      </trkpt>
      <trkpt lat="45.71837" lon="4.31754">
        <ele>461.57</ele>
        <time>2016-02-21T12:13:16Z</time>
      </trkpt>
      <trkpt lat="45.71836" lon="4.31767">
        <ele>463.97</ele>
        <time>2016-02-21T12:13:28Z</time>
      </trkpt>
      <trkpt lat="45.71838" lon="4.31777">
        <ele>465.42</ele>
        <time>2016-02-21T12:13:41Z</time>
      </trkpt>
      <trkpt lat="45.71834" lon="4.31786">
        <ele>463.97</ele>
        <time>2016-02-21T12:13:51Z</time>
      </trkpt>
      <trkpt lat="45.71829" lon="4.31794">
        <ele>464.45</ele>
        <time>2016-02-21T12:13:58Z</time>
      </trkpt>
      <trkpt lat="45.7182" lon="4.31813">
        <ele>464.93</ele>
        <time>2016-02-21T12:14:12Z</time>
      </trkpt>
      <trkpt lat="45.71809" lon="4.31834">
        <ele>466.86</ele>
        <time>2016-02-21T12:14:26Z</time>
      </trkpt>
      <trkpt lat="45.71805" lon="4.31841">
        <ele>469.26</ele>
        <time>2016-02-21T12:14:31Z</time>
      </trkpt>
      <trkpt lat="45.71802" lon="4.31849">
        <ele>468.3</ele>
        <time>2016-02-21T12:14:36Z</time>
      </trkpt>
      <trkpt lat="45.71791" lon="4.3187">
        <ele>470.7</ele>
        <time>2016-02-21T12:14:51Z</time>
      </trkpt>
      <trkpt lat="45.7179" lon="4.31873">
        <ele>470.7</ele>
        <time>2016-02-21T12:14:53Z</time>
      </trkpt>
      <trkpt lat="45.71784" lon="4.31881">
        <ele>472.63</ele>
        <time>2016-02-21T12:14:59Z</time>
      </trkpt>
      <trkpt lat="45.71781" lon="4.31885">
        <ele>473.11</ele>
        <time>2016-02-21T12:15:03Z</time>
      </trkpt>
      <trkpt lat="45.71779" lon="4.31887">
        <ele>472.63</ele>
        <time>2016-02-21T12:15:05Z</time>
      </trkpt>
      <trkpt lat="45.71774" lon="4.31894">
        <ele>472.63</ele>
        <time>2016-02-21T12:15:10Z</time>
      </trkpt>
      <trkpt lat="45.71759" lon="4.31917">
        <ele>474.55</ele>
        <time>2016-02-21T12:15:27Z</time>
      </trkpt>
      <trkpt lat="45.71746" lon="4.31937">
        <ele>475.99</ele>
        <time>2016-02-21T12:15:42Z</time>
      </trkpt>
      <trkpt lat="45.71734" lon="4.31955">
        <ele>476.95</ele>
        <time>2016-02-21T12:15:56Z</time>
      </trkpt>
      <trkpt lat="45.71729" lon="4.31964">
        <ele>478.39</ele>
        <time>2016-02-21T12:16:07Z</time>
      </trkpt>
      <trkpt lat="45.71726" lon="4.31969">
        <ele>478.87</ele>
        <time>2016-02-21T12:16:10Z</time>
      </trkpt>
      <trkpt lat="45.71715" lon="4.31986">
        <ele>478.39</ele>
        <time>2016-02-21T12:16:23Z</time>
      </trkpt>
      <trkpt lat="45.71703" lon="4.32005">
        <ele>481.28</ele>
        <time>2016-02-21T12:16:38Z</time>
      </trkpt>
      <trkpt lat="45.71689" lon="4.3202">
        <ele>482.24</ele>
        <time>2016-02-21T12:16:51Z</time>
      </trkpt>
      <trkpt lat="45.71671" lon="4.32035">
        <ele>484.64</ele>
        <time>2016-02-21T12:17:08Z</time>
      </trkpt>
      <trkpt lat="45.71665" lon="4.32044">
        <ele>487.53</ele>
        <time>2016-02-21T12:17:18Z</time>
      </trkpt>
      <trkpt lat="45.7166" lon="4.32066">
        <ele>490.41</ele>
        <time>2016-02-21T12:17:33Z</time>
      </trkpt>
      <trkpt lat="45.71657" lon="4.32082">
        <ele>491.37</ele>
        <time>2016-02-21T12:17:44Z</time>
      </trkpt>
      <trkpt lat="45.71656" lon="4.32112">
        <ele>492.33</ele>
        <time>2016-02-21T12:18:01Z</time>
      </trkpt>
      <trkpt lat="45.7165" lon="4.32148">
        <ele>495.7</ele>
        <time>2016-02-21T12:18:20Z</time>
      </trkpt>
      <trkpt lat="45.71651" lon="4.32174">
        <ele>497.62</ele>
        <time>2016-02-21T12:18:36Z</time>
      </trkpt>
      <trkpt lat="45.71652" lon="4.32186">
        <ele>498.1</ele>
        <time>2016-02-21T12:18:43Z</time>
      </trkpt>
      <trkpt lat="45.71653" lon="4.32192">
        <ele>498.1</ele>
        <time>2016-02-21T12:18:47Z</time>
      </trkpt>
      <trkpt lat="45.71654" lon="4.32201">
        <ele>499.06</ele>
        <time>2016-02-21T12:18:53Z</time>
      </trkpt>
      <trkpt lat="45.71656" lon="4.32203">
        <ele>499.06</ele>
        <time>2016-02-21T12:19:04Z</time>
      </trkpt>
      <trkpt lat="45.71656" lon="4.32203">
        <ele>500.5</ele>
        <time>2016-02-21T12:19:22Z</time>
      </trkpt>
      <trkpt lat="45.71656" lon="4.322">
        <ele>500.5</ele>
        <time>2016-02-21T12:19:34Z</time>
      </trkpt>
      <trkpt lat="45.71656" lon="4.32202">
        <ele>500.02</ele>
        <time>2016-02-21T12:19:47Z</time>
      </trkpt>
      <trkpt lat="45.71656" lon="4.32205">
        <ele>499.06</ele>
        <time>2016-02-21T12:20:02Z</time>
      </trkpt>
      <trkpt lat="45.71655" lon="4.32212">
        <ele>499.06</ele>
        <time>2016-02-21T12:20:08Z</time>
      </trkpt>
      <trkpt lat="45.71657" lon="4.32228">
        <ele>500.02</ele>
        <time>2016-02-21T12:20:20Z</time>
      </trkpt>
      <trkpt lat="45.71657" lon="4.32251">
        <ele>501.46</ele>
        <time>2016-02-21T12:20:34Z</time>
      </trkpt>
      <trkpt lat="45.71655" lon="4.32271">
        <ele>502.91</ele>
        <time>2016-02-21T12:20:47Z</time>
      </trkpt>
      <trkpt lat="45.71651" lon="4.32296">
        <ele>503.87</ele>
        <time>2016-02-21T12:21:03Z</time>
      </trkpt>
      <trkpt lat="45.71643" lon="4.32319">
        <ele>505.79</ele>
        <time>2016-02-21T12:21:18Z</time>
      </trkpt>
      <trkpt lat="45.71633" lon="4.32344">
        <ele>506.75</ele>
        <time>2016-02-21T12:21:34Z</time>
      </trkpt>
      <trkpt lat="45.7163" lon="4.32353">
        <ele>507.23</ele>
        <time>2016-02-21T12:21:40Z</time>
      </trkpt>
      <trkpt lat="45.71617" lon="4.32374">
        <ele>507.71</ele>
        <time>2016-02-21T12:21:55Z</time>
      </trkpt>
      <trkpt lat="45.71613" lon="4.3238">
        <ele>507.23</ele>
        <time>2016-02-21T12:21:59Z</time>
      </trkpt>
      <trkpt lat="45.71596" lon="4.32403">
        <ele>507.23</ele>
        <time>2016-02-21T12:22:17Z</time>
      </trkpt>
      <trkpt lat="45.71582" lon="4.32424">
        <ele>506.27</ele>
        <time>2016-02-21T12:22:33Z</time>
      </trkpt>
      <trkpt lat="45.71577" lon="4.32431">
        <ele>506.75</ele>
        <time>2016-02-21T12:22:38Z</time>
      </trkpt>
      <trkpt lat="45.71573" lon="4.32436">
        <ele>506.75</ele>
        <time>2016-02-21T12:22:43Z</time>
      </trkpt>
      <trkpt lat="45.71564" lon="4.3245">
        <ele>508.67</ele>
        <time>2016-02-21T12:22:56Z</time>
      </trkpt>
      <trkpt lat="45.71546" lon="4.3247">
        <ele>508.67</ele>
        <time>2016-02-21T12:23:13Z</time>
      </trkpt>
      <trkpt lat="45.71524" lon="4.3249">
        <ele>509.64</ele>
        <time>2016-02-21T12:23:33Z</time>
      </trkpt>
      <trkpt lat="45.71509" lon="4.32493">
        <ele>511.56</ele>
        <time>2016-02-21T12:23:46Z</time>
      </trkpt>
      <trkpt lat="45.71498" lon="4.32499">
        <ele>512.04</ele>
        <time>2016-02-21T12:23:59Z</time>
      </trkpt>
      <trkpt lat="45.71485" lon="4.32505">
        <ele>514.44</ele>
        <time>2016-02-21T12:24:09Z</time>
      </trkpt>
      <trkpt lat="45.71472" lon="4.3251">
        <ele>516.85</ele>
        <time>2016-02-21T12:24:22Z</time>
      </trkpt>
      <trkpt lat="45.71458" lon="4.32518">
        <ele>520.21</ele>
        <time>2016-02-21T12:24:35Z</time>
      </trkpt>
      <trkpt lat="45.7144" lon="4.32529">
        <ele>523.58</ele>
        <time>2016-02-21T12:24:50Z</time>
      </trkpt>
      <trkpt lat="45.71437" lon="4.32533">
        <ele>524.06</ele>
        <time>2016-02-21T12:24:54Z</time>
      </trkpt>
      <trkpt lat="45.71431" lon="4.32541">
        <ele>524.54</ele>
        <time>2016-02-21T12:25:01Z</time>
      </trkpt>
      <trkpt lat="45.71428" lon="4.32543">
        <ele>524.54</ele>
        <time>2016-02-21T12:25:04Z</time>
      </trkpt>
      <trkpt lat="45.7141" lon="4.32565">
        <ele>526.46</ele>
        <time>2016-02-21T12:25:22Z</time>
      </trkpt>
      <trkpt lat="45.71395" lon="4.32592">
        <ele>526.46</ele>
        <time>2016-02-21T12:25:40Z</time>
      </trkpt>
      <trkpt lat="45.71383" lon="4.32623">
        <ele>527.42</ele>
        <time>2016-02-21T12:25:59Z</time>
      </trkpt>
      <trkpt lat="45.71371" lon="4.32653">
        <ele>527.9</ele>
        <time>2016-02-21T12:26:17Z</time>
      </trkpt>
      <trkpt lat="45.71366" lon="4.32675">
        <ele>529.34</ele>
        <time>2016-02-21T12:26:30Z</time>
      </trkpt>
      <trkpt lat="45.71364" lon="4.32684">
        <ele>529.82</ele>
        <time>2016-02-21T12:26:35Z</time>
      </trkpt>
      <trkpt lat="45.71352" lon="4.32715">
        <ele>530.79</ele>
        <time>2016-02-21T12:26:54Z</time>
      </trkpt>
      <trkpt lat="45.71351" lon="4.32732">
        <ele>530.3</ele>
        <time>2016-02-21T12:27:07Z</time>
      </trkpt>
      <trkpt lat="45.71351" lon="4.32736">
        <ele>530.3</ele>
        <time>2016-02-21T12:27:10Z</time>
      </trkpt>
      <trkpt lat="45.71352" lon="4.32756">
        <ele>530.3</ele>
        <time>2016-02-21T12:27:24Z</time>
      </trkpt>
      <trkpt lat="45.71352" lon="4.32763">
        <ele>531.27</ele>
        <time>2016-02-21T12:27:28Z</time>
      </trkpt>
      <trkpt lat="45.71353" lon="4.32771">
        <ele>531.75</ele>
        <time>2016-02-21T12:27:32Z</time>
      </trkpt>
      <trkpt lat="45.71345" lon="4.3278">
        <ele>529.82</ele>
        <time>2016-02-21T12:27:40Z</time>
      </trkpt>
      <trkpt lat="45.71327" lon="4.32783">
        <ele>530.3</ele>
        <time>2016-02-21T12:27:53Z</time>
      </trkpt>
      <trkpt lat="45.71303" lon="4.32786">
        <ele>533.67</ele>
        <time>2016-02-21T12:28:10Z</time>
      </trkpt>
      <trkpt lat="45.71284" lon="4.32791">
        <ele>532.23</ele>
        <time>2016-02-21T12:28:26Z</time>
      </trkpt>
      <trkpt lat="45.71268" lon="4.32813">
        <ele>533.19</ele>
        <time>2016-02-21T12:28:44Z</time>
      </trkpt>
      <trkpt lat="45.71255" lon="4.32844">
        <ele>532.71</ele>
        <time>2016-02-21T12:29:02Z</time>
      </trkpt>
      <trkpt lat="45.71246" lon="4.32871">
        <ele>532.23</ele>
        <time>2016-02-21T12:29:18Z</time>
      </trkpt>
      <trkpt lat="45.71234" lon="4.32901">
        <ele>531.27</ele>
        <time>2016-02-21T12:29:35Z</time>
      </trkpt>
      <trkpt lat="45.71219" lon="4.32932">
        <ele>530.3</ele>
        <time>2016-02-21T12:29:54Z</time>
      </trkpt>
      <trkpt lat="45.71207" lon="4.32961">
        <ele>529.34</ele>
        <time>2016-02-21T12:30:11Z</time>
      </trkpt>
      <trkpt lat="45.71196" lon="4.32988">
        <ele>528.38</ele>
        <time>2016-02-21T12:30:27Z</time>
      </trkpt>
      <trkpt lat="45.71185" lon="4.33023">
        <ele>526.94</ele>
        <time>2016-02-21T12:30:48Z</time>
      </trkpt>
      <trkpt lat="45.71163" lon="4.33036">
        <ele>525.5</ele>
        <time>2016-02-21T12:31:05Z</time>
      </trkpt>
      <trkpt lat="45.71159" lon="4.33038">
        <ele>525.02</ele>
        <time>2016-02-21T12:31:08Z</time>
      </trkpt>
      <trkpt lat="45.71137" lon="4.33048">
        <ele>525.02</ele>
        <time>2016-02-21T12:31:25Z</time>
      </trkpt>
      <trkpt lat="45.71114" lon="4.3306">
        <ele>523.58</ele>
        <time>2016-02-21T12:31:44Z</time>
      </trkpt>
      <trkpt lat="45.71108" lon="4.33063">
        <ele>523.09</ele>
        <time>2016-02-21T12:31:57Z</time>
      </trkpt>
      <trkpt lat="45.71107" lon="4.33064">
        <ele>523.09</ele>
        <time>2016-02-21T12:32:14Z</time>
      </trkpt>
      <trkpt lat="45.71107" lon="4.33065">
        <ele>523.09</ele>
        <time>2016-02-21T12:32:30Z</time>
      </trkpt>
      <trkpt lat="45.71105" lon="4.33066">
        <ele>523.09</ele>
        <time>2016-02-21T12:32:42Z</time>
      </trkpt>
      <trkpt lat="45.711" lon="4.33069">
        <ele>523.09</ele>
        <time>2016-02-21T12:32:52Z</time>
      </trkpt>
      <trkpt lat="45.71086" lon="4.33081">
        <ele>522.13</ele>
        <time>2016-02-21T12:33:05Z</time>
      </trkpt>
      <trkpt lat="45.71068" lon="4.33087">
        <ele>521.17</ele>
        <time>2016-02-21T12:33:21Z</time>
      </trkpt>
      <trkpt lat="45.7106" lon="4.33083">
        <ele>520.69</ele>
        <time>2016-02-21T12:33:34Z</time>
      </trkpt>
      <trkpt lat="45.71054" lon="4.3308">
        <ele>519.73</ele>
        <time>2016-02-21T12:33:44Z</time>
      </trkpt>
      <trkpt lat="45.71044" lon="4.33075">
        <ele>519.25</ele>
        <time>2016-02-21T12:33:55Z</time>
      </trkpt>
      <trkpt lat="45.71027" lon="4.33067">
        <ele>519.25</ele>
        <time>2016-02-21T12:34:09Z</time>
      </trkpt>
      <trkpt lat="45.70998" lon="4.3305">
        <ele>518.77</ele>
        <time>2016-02-21T12:34:32Z</time>
      </trkpt>
      <trkpt lat="45.70975" lon="4.3304">
        <ele>515.88</ele>
        <time>2016-02-21T12:34:50Z</time>
      </trkpt>
      <trkpt lat="45.70965" lon="4.3304">
        <ele>515.4</ele>
        <time>2016-02-21T12:34:57Z</time>
      </trkpt>
      <trkpt lat="45.70938" lon="4.3304">
        <ele>513</ele>
        <time>2016-02-21T12:35:16Z</time>
      </trkpt>
      <trkpt lat="45.70913" lon="4.33049">
        <ele>509.16</ele>
        <time>2016-02-21T12:35:35Z</time>
      </trkpt>
      <trkpt lat="45.70893" lon="4.33052">
        <ele>507.23</ele>
        <time>2016-02-21T12:35:50Z</time>
      </trkpt>
      <trkpt lat="45.7087" lon="4.33052">
        <ele>504.83</ele>
        <time>2016-02-21T12:36:07Z</time>
      </trkpt>
      <trkpt lat="45.70847" lon="4.33049">
        <ele>501.46</ele>
        <time>2016-02-21T12:36:24Z</time>
      </trkpt>
      <trkpt lat="45.70826" lon="4.33047">
        <ele>497.62</ele>
        <time>2016-02-21T12:36:40Z</time>
      </trkpt>
      <trkpt lat="45.70809" lon="4.33025">
        <ele>494.74</ele>
        <time>2016-02-21T12:36:57Z</time>
      </trkpt>
      <trkpt lat="45.70788" lon="4.33018">
        <ele>491.85</ele>
        <time>2016-02-21T12:37:13Z</time>
      </trkpt>
      <trkpt lat="45.70768" lon="4.33023">
        <ele>489.93</ele>
        <time>2016-02-21T12:37:29Z</time>
      </trkpt>
      <trkpt lat="45.70766" lon="4.33025">
        <ele>489.45</ele>
        <time>2016-02-21T12:37:31Z</time>
      </trkpt>
      <trkpt lat="45.70762" lon="4.33036">
        <ele>488.01</ele>
        <time>2016-02-21T12:37:40Z</time>
      </trkpt>
      <trkpt lat="45.7075" lon="4.33052">
        <ele>485.12</ele>
        <time>2016-02-21T12:37:54Z</time>
      </trkpt>
      <trkpt lat="45.70727" lon="4.33036">
        <ele>481.28</ele>
        <time>2016-02-21T12:38:14Z</time>
      </trkpt>
      <trkpt lat="45.70707" lon="4.33017">
        <ele>479.35</ele>
        <time>2016-02-21T12:38:33Z</time>
      </trkpt>
      <trkpt lat="45.70705" lon="4.33016">
        <ele>478.87</ele>
        <time>2016-02-21T12:38:35Z</time>
      </trkpt>
      <trkpt lat="45.70697" lon="4.33022">
        <ele>476.95</ele>
        <time>2016-02-21T12:38:43Z</time>
      </trkpt>
      <trkpt lat="45.70696" lon="4.33033">
        <ele>475.99</ele>
        <time>2016-02-21T12:38:50Z</time>
      </trkpt>
      <trkpt lat="45.70701" lon="4.33064">
        <ele>473.59</ele>
        <time>2016-02-21T12:39:07Z</time>
      </trkpt>
      <trkpt lat="45.70705" lon="4.33091">
        <ele>470.7</ele>
        <time>2016-02-21T12:39:21Z</time>
      </trkpt>
      <trkpt lat="45.70707" lon="4.33118">
        <ele>468.3</ele>
        <time>2016-02-21T12:39:35Z</time>
      </trkpt>
      <trkpt lat="45.70716" lon="4.33152">
        <ele>467.82</ele>
        <time>2016-02-21T12:39:54Z</time>
      </trkpt>
      <trkpt lat="45.70717" lon="4.33169">
        <ele>466.86</ele>
        <time>2016-02-21T12:40:04Z</time>
      </trkpt>
      <trkpt lat="45.70717" lon="4.33179">
        <ele>466.38</ele>
        <time>2016-02-21T12:40:09Z</time>
      </trkpt>
      <trkpt lat="45.70709" lon="4.33188">
        <ele>463.49</ele>
        <time>2016-02-21T12:40:19Z</time>
      </trkpt>
      <trkpt lat="45.70705" lon="4.33187">
        <ele>463.01</ele>
        <time>2016-02-21T12:40:22Z</time>
      </trkpt>
      <trkpt lat="45.7069" lon="4.33159">
        <ele>459.17</ele>
        <time>2016-02-21T12:40:40Z</time>
      </trkpt>
      <trkpt lat="45.70677" lon="4.33138">
        <ele>459.65</ele>
        <time>2016-02-21T12:40:54Z</time>
      </trkpt>
      <trkpt lat="45.70661" lon="4.33114">
        <ele>460.13</ele>
        <time>2016-02-21T12:41:11Z</time>
      </trkpt>
      <trkpt lat="45.7065" lon="4.33102">
        <ele>459.17</ele>
        <time>2016-02-21T12:41:22Z</time>
      </trkpt>
      <trkpt lat="45.70646" lon="4.33098">
        <ele>458.21</ele>
        <time>2016-02-21T12:41:25Z</time>
      </trkpt>
      <trkpt lat="45.70632" lon="4.33085">
        <ele>457.24</ele>
        <time>2016-02-21T12:41:39Z</time>
      </trkpt>
      <trkpt lat="45.70614" lon="4.33077">
        <ele>455.32</ele>
        <time>2016-02-21T12:41:52Z</time>
      </trkpt>
      <trkpt lat="45.70596" lon="4.33059">
        <ele>451.96</ele>
        <time>2016-02-21T12:42:08Z</time>
      </trkpt>
      <trkpt lat="45.70583" lon="4.33048">
        <ele>447.63</ele>
        <time>2016-02-21T12:42:22Z</time>
      </trkpt>
      <trkpt lat="45.70566" lon="4.3304">
        <ele>445.71</ele>
        <time>2016-02-21T12:42:36Z</time>
      </trkpt>
      <trkpt lat="45.70552" lon="4.3303">
        <ele>446.67</ele>
        <time>2016-02-21T12:42:48Z</time>
      </trkpt>
      <trkpt lat="45.70549" lon="4.33028">
        <ele>447.15</ele>
        <time>2016-02-21T12:42:50Z</time>
      </trkpt>
      <trkpt lat="45.70534" lon="4.33023">
        <ele>446.67</ele>
        <time>2016-02-21T12:43:03Z</time>
      </trkpt>
      <trkpt lat="45.70519" lon="4.33017">
        <ele>448.59</ele>
        <time>2016-02-21T12:43:15Z</time>
      </trkpt>
      <trkpt lat="45.70507" lon="4.33019">
        <ele>454.36</ele>
        <time>2016-02-21T12:43:25Z</time>
      </trkpt>
      <trkpt lat="45.70488" lon="4.33019">
        <ele>454.36</ele>
        <time>2016-02-21T12:43:39Z</time>
      </trkpt>
      <trkpt lat="45.70473" lon="4.33013">
        <ele>455.32</ele>
        <time>2016-02-21T12:43:51Z</time>
      </trkpt>
      <trkpt lat="45.70459" lon="4.32997">
        <ele>461.09</ele>
        <time>2016-02-21T12:44:08Z</time>
      </trkpt>
      <trkpt lat="45.70449" lon="4.32977">
        <ele>466.86</ele>
        <time>2016-02-21T12:44:21Z</time>
      </trkpt>
      <trkpt lat="45.70441" lon="4.32959">
        <ele>469.26</ele>
        <time>2016-02-21T12:44:32Z</time>
      </trkpt>
      <trkpt lat="45.70433" lon="4.32939">
        <ele>472.14</ele>
        <time>2016-02-21T12:44:45Z</time>
      </trkpt>
      <trkpt lat="45.70428" lon="4.32927">
        <ele>473.11</ele>
        <time>2016-02-21T12:44:55Z</time>
      </trkpt>
      <trkpt lat="45.7042" lon="4.32905">
        <ele>472.63</ele>
        <time>2016-02-21T12:45:08Z</time>
      </trkpt>
      <trkpt lat="45.70409" lon="4.32882">
        <ele>473.59</ele>
        <time>2016-02-21T12:45:21Z</time>
      </trkpt>
      <trkpt lat="45.70397" lon="4.32864">
        <ele>473.11</ele>
        <time>2016-02-21T12:45:33Z</time>
      </trkpt>
      <trkpt lat="45.70377" lon="4.32857">
        <ele>468.78</ele>
        <time>2016-02-21T12:45:48Z</time>
      </trkpt>
      <trkpt lat="45.70364" lon="4.3287">
        <ele>469.74</ele>
        <time>2016-02-21T12:46:02Z</time>
      </trkpt>
      <trkpt lat="45.70349" lon="4.32887">
        <ele>469.74</ele>
        <time>2016-02-21T12:46:18Z</time>
      </trkpt>
      <trkpt lat="45.70332" lon="4.3291">
        <ele>469.26</ele>
        <time>2016-02-21T12:46:35Z</time>
      </trkpt>
      <trkpt lat="45.70312" lon="4.32931">
        <ele>465.9</ele>
        <time>2016-02-21T12:46:53Z</time>
      </trkpt>
      <trkpt lat="45.70303" lon="4.32942">
        <ele>462.53</ele>
        <time>2016-02-21T12:47:05Z</time>
      </trkpt>
      <trkpt lat="45.70299" lon="4.32942">
        <ele>461.09</ele>
        <time>2016-02-21T12:47:09Z</time>
      </trkpt>
      <trkpt lat="45.70283" lon="4.32944">
        <ele>457.24</ele>
        <time>2016-02-21T12:47:21Z</time>
      </trkpt>
      <trkpt lat="45.70265" lon="4.32954">
        <ele>459.17</ele>
        <time>2016-02-21T12:47:35Z</time>
      </trkpt>
      <trkpt lat="45.70253" lon="4.32965">
        <ele>463.97</ele>
        <time>2016-02-21T12:47:49Z</time>
      </trkpt>
      <trkpt lat="45.70233" lon="4.32973">
        <ele>466.38</ele>
        <time>2016-02-21T12:48:04Z</time>
      </trkpt>
      <trkpt lat="45.70231" lon="4.32973">
        <ele>465.9</ele>
        <time>2016-02-21T12:48:08Z</time>
      </trkpt>
      <trkpt lat="45.70217" lon="4.32976">
        <ele>466.86</ele>
        <time>2016-02-21T12:48:21Z</time>
      </trkpt>
      <trkpt lat="45.70206" lon="4.3298">
        <ele>468.78</ele>
        <time>2016-02-21T12:48:31Z</time>
      </trkpt>
      <trkpt lat="45.70197" lon="4.32984">
        <ele>471.66</ele>
        <time>2016-02-21T12:48:38Z</time>
      </trkpt>
      <trkpt lat="45.70181" lon="4.32972">
        <ele>475.03</ele>
        <time>2016-02-21T12:48:51Z</time>
      </trkpt>
      <trkpt lat="45.70177" lon="4.32972">
        <ele>476.95</ele>
        <time>2016-02-21T12:48:55Z</time>
      </trkpt>
      <trkpt lat="45.70174" lon="4.32971">
        <ele>476.95</ele>
        <time>2016-02-21T12:48:58Z</time>
      </trkpt>
      <trkpt lat="45.7016" lon="4.32974">
        <ele>483.2</ele>
        <time>2016-02-21T12:49:10Z</time>
      </trkpt>
      <trkpt lat="45.70152" lon="4.32957">
        <ele>490.89</ele>
        <time>2016-02-21T12:49:22Z</time>
      </trkpt>
      <trkpt lat="45.70142" lon="4.32934">
        <ele>495.7</ele>
        <time>2016-02-21T12:49:37Z</time>
      </trkpt>
      <trkpt lat="45.70132" lon="4.32908">
        <ele>499.06</ele>
        <time>2016-02-21T12:49:54Z</time>
      </trkpt>
      <trkpt lat="45.70126" lon="4.32895">
        <ele>499.54</ele>
        <time>2016-02-21T12:50:03Z</time>
      </trkpt>
      <trkpt lat="45.70119" lon="4.32872">
        <ele>503.87</ele>
        <time>2016-02-21T12:50:19Z</time>
      </trkpt>
      <trkpt lat="45.70115" lon="4.32857">
        <ele>509.16</ele>
        <time>2016-02-21T12:50:33Z</time>
      </trkpt>
      <trkpt lat="45.70109" lon="4.32842">
        <ele>513</ele>
        <time>2016-02-21T12:50:45Z</time>
      </trkpt>
      <trkpt lat="45.70105" lon="4.32833">
        <ele>513.96</ele>
        <time>2016-02-21T12:50:53Z</time>
      </trkpt>
      <trkpt lat="45.70104" lon="4.3283">
        <ele>514.44</ele>
        <time>2016-02-21T12:50:55Z</time>
      </trkpt>
      <trkpt lat="45.70087" lon="4.32814">
        <ele>519.73</ele>
        <time>2016-02-21T12:51:13Z</time>
      </trkpt>
      <trkpt lat="45.70072" lon="4.32802">
        <ele>520.21</ele>
        <time>2016-02-21T12:51:27Z</time>
      </trkpt>
      <trkpt lat="45.70062" lon="4.32791">
        <ele>521.65</ele>
        <time>2016-02-21T12:51:39Z</time>
      </trkpt>
      <trkpt lat="45.70059" lon="4.32788">
        <ele>522.13</ele>
        <time>2016-02-21T12:51:42Z</time>
      </trkpt>
      <trkpt lat="45.70041" lon="4.32779">
        <ele>525.02</ele>
        <time>2016-02-21T12:51:57Z</time>
      </trkpt>
      <trkpt lat="45.70027" lon="4.3277">
        <ele>524.54</ele>
        <time>2016-02-21T12:52:10Z</time>
      </trkpt>
      <trkpt lat="45.70022" lon="4.32763">
        <ele>524.54</ele>
        <time>2016-02-21T12:52:17Z</time>
      </trkpt>
      <trkpt lat="45.70018" lon="4.32757">
        <ele>524.06</ele>
        <time>2016-02-21T12:52:21Z</time>
      </trkpt>
      <trkpt lat="45.70008" lon="4.32745">
        <ele>524.06</ele>
        <time>2016-02-21T12:52:33Z</time>
      </trkpt>
      <trkpt lat="45.70006" lon="4.32743">
        <ele>523.58</ele>
        <time>2016-02-21T12:52:35Z</time>
      </trkpt>
      <trkpt lat="45.70002" lon="4.32738">
        <ele>522.61</ele>
        <time>2016-02-21T12:52:40Z</time>
      </trkpt>
      <trkpt lat="45.69988" lon="4.32722">
        <ele>524.06</ele>
        <time>2016-02-21T12:52:55Z</time>
      </trkpt>
      <trkpt lat="45.69985" lon="4.32718">
        <ele>524.54</ele>
        <time>2016-02-21T12:52:58Z</time>
      </trkpt>
      <trkpt lat="45.69979" lon="4.32702">
        <ele>527.9</ele>
        <time>2016-02-21T12:53:12Z</time>
      </trkpt>
      <trkpt lat="45.69971" lon="4.32692">
        <ele>529.82</ele>
        <time>2016-02-21T12:53:23Z</time>
      </trkpt>
      <trkpt lat="45.69969" lon="4.3269">
        <ele>530.79</ele>
        <time>2016-02-21T12:53:26Z</time>
      </trkpt>
      <trkpt lat="45.69964" lon="4.32688">
        <ele>532.23</ele>
        <time>2016-02-21T12:53:31Z</time>
      </trkpt>
      <trkpt lat="45.69956" lon="4.32686">
        <ele>533.67</ele>
        <time>2016-02-21T12:53:38Z</time>
      </trkpt>
      <trkpt lat="45.69951" lon="4.32687">
        <ele>533.19</ele>
        <time>2016-02-21T12:53:42Z</time>
      </trkpt>
      <trkpt lat="45.69937" lon="4.3269">
        <ele>529.34</ele>
        <time>2016-02-21T12:53:56Z</time>
      </trkpt>
      <trkpt lat="45.69929" lon="4.32694">
        <ele>528.86</ele>
        <time>2016-02-21T12:54:05Z</time>
      </trkpt>
      <trkpt lat="45.69923" lon="4.32695">
        <ele>529.34</ele>
        <time>2016-02-21T12:54:11Z</time>
      </trkpt>
      <trkpt lat="45.69907" lon="4.32695">
        <ele>526.94</ele>
        <time>2016-02-21T12:54:23Z</time>
      </trkpt>
      <trkpt lat="45.6989" lon="4.32699">
        <ele>523.09</ele>
        <time>2016-02-21T12:54:36Z</time>
      </trkpt>
      <trkpt lat="45.69879" lon="4.32702">
        <ele>521.17</ele>
        <time>2016-02-21T12:54:49Z</time>
      </trkpt>
      <trkpt lat="45.69874" lon="4.32703">
        <ele>521.65</ele>
        <time>2016-02-21T12:55:01Z</time>
      </trkpt>
      <trkpt lat="45.69875" lon="4.32703">
        <ele>521.17</ele>
        <time>2016-02-21T12:55:24Z</time>
      </trkpt>
      <trkpt lat="45.69872" lon="4.32703">
        <ele>520.69</ele>
        <time>2016-02-21T12:55:50Z</time>
      </trkpt>
      <trkpt lat="45.69871" lon="4.32703">
        <ele>522.13</ele>
        <time>2016-02-21T12:56:14Z</time>
      </trkpt>
      <trkpt lat="45.6987" lon="4.32704">
        <ele>522.13</ele>
        <time>2016-02-21T12:56:42Z</time>
      </trkpt>
      <trkpt lat="45.6987" lon="4.32705">
        <ele>521.65</ele>
        <time>2016-02-21T12:57:01Z</time>
      </trkpt>
      <trkpt lat="45.69871" lon="4.32705">
        <ele>520.69</ele>
        <time>2016-02-21T12:57:26Z</time>
      </trkpt>
      <trkpt lat="45.69872" lon="4.32707">
        <ele>519.73</ele>
        <time>2016-02-21T12:57:49Z</time>
      </trkpt>
      <trkpt lat="45.69864" lon="4.32707">
        <ele>518.29</ele>
        <time>2016-02-21T12:57:58Z</time>
      </trkpt>
      <trkpt lat="45.69862" lon="4.32708">
        <ele>517.33</ele>
        <time>2016-02-21T12:58:00Z</time>
      </trkpt>
      <trkpt lat="45.69842" lon="4.32711">
        <ele>516.37</ele>
        <time>2016-02-21T12:58:17Z</time>
      </trkpt>
      <trkpt lat="45.69823" lon="4.32716">
        <ele>514.92</ele>
        <time>2016-02-21T12:58:32Z</time>
      </trkpt>
      <trkpt lat="45.69798" lon="4.3272">
        <ele>513.48</ele>
        <time>2016-02-21T12:58:50Z</time>
      </trkpt>
      <trkpt lat="45.69779" lon="4.32726">
        <ele>515.4</ele>
        <time>2016-02-21T12:59:06Z</time>
      </trkpt>
      <trkpt lat="45.69759" lon="4.32732">
        <ele>517.33</ele>
        <time>2016-02-21T12:59:22Z</time>
      </trkpt>
      <trkpt lat="45.69737" lon="4.3274">
        <ele>520.21</ele>
        <time>2016-02-21T12:59:40Z</time>
      </trkpt>
      <trkpt lat="45.69724" lon="4.32749">
        <ele>521.65</ele>
        <time>2016-02-21T12:59:52Z</time>
      </trkpt>
      <trkpt lat="45.69718" lon="4.32747">
        <ele>521.17</ele>
        <time>2016-02-21T12:59:57Z</time>
      </trkpt>
      <trkpt lat="45.69703" lon="4.32737">
        <ele>521.65</ele>
        <time>2016-02-21T13:00:11Z</time>
      </trkpt>
      <trkpt lat="45.69683" lon="4.32727">
        <ele>522.13</ele>
        <time>2016-02-21T13:00:26Z</time>
      </trkpt>
      <trkpt lat="45.6967" lon="4.32725">
        <ele>522.13</ele>
        <time>2016-02-21T13:00:35Z</time>
      </trkpt>
      <trkpt lat="45.69652" lon="4.3272">
        <ele>521.17</ele>
        <time>2016-02-21T13:00:49Z</time>
      </trkpt>
      <trkpt lat="45.6964" lon="4.32712">
        <ele>521.65</ele>
        <time>2016-02-21T13:01:01Z</time>
      </trkpt>
      <trkpt lat="45.69635" lon="4.32708">
        <ele>520.21</ele>
        <time>2016-02-21T13:01:06Z</time>
      </trkpt>
      <trkpt lat="45.69632" lon="4.327">
        <ele>519.25</ele>
        <time>2016-02-21T13:01:12Z</time>
      </trkpt>
      <trkpt lat="45.69621" lon="4.32674">
        <ele>518.29</ele>
        <time>2016-02-21T13:01:27Z</time>
      </trkpt>
      <trkpt lat="45.69602" lon="4.3266">
        <ele>520.69</ele>
        <time>2016-02-21T13:01:43Z</time>
      </trkpt>
      <trkpt lat="45.69588" lon="4.32648">
        <ele>518.29</ele>
        <time>2016-02-21T13:01:56Z</time>
      </trkpt>
      <trkpt lat="45.69587" lon="4.32646">
        <ele>518.29</ele>
        <time>2016-02-21T13:01:57Z</time>
      </trkpt>
      <trkpt lat="45.69582" lon="4.32651">
        <ele>518.77</ele>
        <time>2016-02-21T13:02:03Z</time>
      </trkpt>
      <trkpt lat="45.69584" lon="4.32684">
        <ele>519.73</ele>
        <time>2016-02-21T13:02:20Z</time>
      </trkpt>
      <trkpt lat="45.69583" lon="4.32718">
        <ele>521.65</ele>
        <time>2016-02-21T13:02:39Z</time>
      </trkpt>
      <trkpt lat="45.69579" lon="4.32725">
        <ele>521.65</ele>
        <time>2016-02-21T13:02:46Z</time>
      </trkpt>
      <trkpt lat="45.69572" lon="4.32714">
        <ele>520.21</ele>
        <time>2016-02-21T13:02:59Z</time>
      </trkpt>
      <trkpt lat="45.69571" lon="4.32701">
        <ele>519.25</ele>
        <time>2016-02-21T13:03:14Z</time>
      </trkpt>
      <trkpt lat="45.69572" lon="4.327">
        <ele>520.21</ele>
        <time>2016-02-21T13:03:39Z</time>
      </trkpt>
      <trkpt lat="45.69573" lon="4.327">
        <ele>520.69</ele>
        <time>2016-02-21T13:04:04Z</time>
      </trkpt>
      <trkpt lat="45.69577" lon="4.32701">
        <ele>522.61</ele>
        <time>2016-02-21T13:04:23Z</time>
      </trkpt>
      <trkpt lat="45.69578" lon="4.327">
        <ele>525.98</ele>
        <time>2016-02-21T13:04:45Z</time>
      </trkpt>
      <trkpt lat="45.69575" lon="4.32701">
        <ele>525.98</ele>
        <time>2016-02-21T13:05:10Z</time>
      </trkpt>
      <trkpt lat="45.69575" lon="4.327">
        <ele>525.98</ele>
        <time>2016-02-21T13:05:36Z</time>
      </trkpt>
      <trkpt lat="45.69566" lon="4.32683">
        <ele>524.54</ele>
        <time>2016-02-21T13:06:31Z</time>
      </trkpt>
      <trkpt lat="45.69571" lon="4.32695">
        <ele>517.33</ele>
        <time>2016-02-21T13:06:52Z</time>
      </trkpt>
      <trkpt lat="45.6957" lon="4.32703">
        <ele>515.4</ele>
        <time>2016-02-21T13:07:15Z</time>
      </trkpt>
      <trkpt lat="45.69571" lon="4.32709">
        <ele>517.81</ele>
        <time>2016-02-21T13:07:30Z</time>
      </trkpt>
      <trkpt lat="45.69571" lon="4.3271">
        <ele>519.73</ele>
        <time>2016-02-21T13:07:43Z</time>
      </trkpt>
      <trkpt lat="45.69571" lon="4.32711">
        <ele>526.46</ele>
        <time>2016-02-21T13:08:06Z</time>
      </trkpt>
      <trkpt lat="45.69571" lon="4.32711">
        <ele>527.42</ele>
        <time>2016-02-21T13:08:31Z</time>
      </trkpt>
      <trkpt lat="45.69571" lon="4.3271">
        <ele>526.46</ele>
        <time>2016-02-21T13:08:58Z</time>
      </trkpt>
      <trkpt lat="45.69572" lon="4.3271">
        <ele>524.54</ele>
        <time>2016-02-21T13:09:23Z</time>
      </trkpt>
      <trkpt lat="45.69572" lon="4.3271">
        <ele>524.06</ele>
        <time>2016-02-21T13:09:49Z</time>
      </trkpt>
      <trkpt lat="45.69572" lon="4.3271">
        <ele>523.58</ele>
        <time>2016-02-21T13:10:14Z</time>
      </trkpt>
      <trkpt lat="45.69572" lon="4.3271">
        <ele>523.09</ele>
        <time>2016-02-21T13:10:50Z</time>
      </trkpt>
      <trkpt lat="45.69572" lon="4.32709">
        <ele>522.13</ele>
        <time>2016-02-21T13:11:21Z</time>
      </trkpt>
      <trkpt lat="45.69572" lon="4.3271">
        <ele>521.17</ele>
        <time>2016-02-21T13:11:54Z</time>
      </trkpt>
      <trkpt lat="45.69572" lon="4.3271">
        <ele>521.17</ele>
        <time>2016-02-21T13:12:23Z</time>
      </trkpt>
      <trkpt lat="45.69572" lon="4.3271">
        <ele>520.69</ele>
        <time>2016-02-21T13:12:57Z</time>
      </trkpt>
      <trkpt lat="45.69572" lon="4.3271">
        <ele>520.21</ele>
        <time>2016-02-21T13:13:32Z</time>
      </trkpt>
      <trkpt lat="45.69572" lon="4.3271">
        <ele>519.25</ele>
        <time>2016-02-21T13:14:00Z</time>
      </trkpt>
      <trkpt lat="45.69572" lon="4.32709">
        <ele>519.25</ele>
        <time>2016-02-21T13:14:20Z</time>
      </trkpt>
      <trkpt lat="45.69572" lon="4.32709">
        <ele>519.25</ele>
        <time>2016-02-21T13:14:40Z</time>
      </trkpt>
      <trkpt lat="45.69571" lon="4.32714">
        <ele>518.77</ele>
        <time>2016-02-21T13:14:51Z</time>
      </trkpt>
      <trkpt lat="45.69576" lon="4.32722">
        <ele>518.77</ele>
        <time>2016-02-21T13:15:01Z</time>
      </trkpt>
      <trkpt lat="45.69581" lon="4.32729">
        <ele>518.77</ele>
        <time>2016-02-21T13:15:07Z</time>
      </trkpt>
      <trkpt lat="45.6959" lon="4.32761">
        <ele>518.29</ele>
        <time>2016-02-21T13:15:25Z</time>
      </trkpt>
      <trkpt lat="45.69594" lon="4.32794">
        <ele>516.85</ele>
        <time>2016-02-21T13:15:42Z</time>
      </trkpt>
      <trkpt lat="45.69596" lon="4.32816">
        <ele>518.77</ele>
        <time>2016-02-21T13:15:53Z</time>
      </trkpt>
      <trkpt lat="45.69596" lon="4.32819">
        <ele>518.77</ele>
        <time>2016-02-21T13:15:55Z</time>
      </trkpt>
      <trkpt lat="45.69599" lon="4.32845">
        <ele>519.25</ele>
        <time>2016-02-21T13:16:09Z</time>
      </trkpt>
      <trkpt lat="45.69603" lon="4.32877">
        <ele>520.21</ele>
        <time>2016-02-21T13:16:27Z</time>
      </trkpt>
      <trkpt lat="45.69614" lon="4.32913">
        <ele>521.17</ele>
        <time>2016-02-21T13:16:47Z</time>
      </trkpt>
      <trkpt lat="45.69623" lon="4.32947">
        <ele>521.17</ele>
        <time>2016-02-21T13:17:07Z</time>
      </trkpt>
      <trkpt lat="45.69628" lon="4.32978">
        <ele>520.21</ele>
        <time>2016-02-21T13:17:25Z</time>
      </trkpt>
      <trkpt lat="45.69635" lon="4.33003">
        <ele>520.21</ele>
        <time>2016-02-21T13:17:40Z</time>
      </trkpt>
      <trkpt lat="45.69644" lon="4.3303">
        <ele>521.17</ele>
        <time>2016-02-21T13:17:56Z</time>
      </trkpt>
      <trkpt lat="45.69655" lon="4.33061">
        <ele>523.58</ele>
        <time>2016-02-21T13:18:14Z</time>
      </trkpt>
      <trkpt lat="45.69668" lon="4.33099">
        <ele>523.09</ele>
        <time>2016-02-21T13:18:35Z</time>
      </trkpt>
      <trkpt lat="45.69675" lon="4.33145">
        <ele>521.65</ele>
        <time>2016-02-21T13:18:58Z</time>
      </trkpt>
      <trkpt lat="45.69682" lon="4.33195">
        <ele>521.65</ele>
        <time>2016-02-21T13:19:24Z</time>
      </trkpt>
      <trkpt lat="45.69686" lon="4.33239">
        <ele>522.61</ele>
        <time>2016-02-21T13:19:47Z</time>
      </trkpt>
      <trkpt lat="45.6969" lon="4.33284">
        <ele>523.09</ele>
        <time>2016-02-21T13:20:09Z</time>
      </trkpt>
      <trkpt lat="45.69694" lon="4.33331">
        <ele>524.54</ele>
        <time>2016-02-21T13:20:32Z</time>
      </trkpt>
      <trkpt lat="45.69698" lon="4.33377">
        <ele>525.02</ele>
        <time>2016-02-21T13:20:55Z</time>
      </trkpt>
      <trkpt lat="45.69703" lon="4.33418">
        <ele>526.46</ele>
        <time>2016-02-21T13:21:16Z</time>
      </trkpt>
      <trkpt lat="45.69707" lon="4.33458">
        <ele>527.42</ele>
        <time>2016-02-21T13:21:37Z</time>
      </trkpt>
      <trkpt lat="45.69704" lon="4.33495">
        <ele>526.94</ele>
        <time>2016-02-21T13:21:56Z</time>
      </trkpt>
      <trkpt lat="45.69706" lon="4.33537">
        <ele>527.9</ele>
        <time>2016-02-21T13:22:18Z</time>
      </trkpt>
      <trkpt lat="45.69719" lon="4.33565">
        <ele>528.86</ele>
        <time>2016-02-21T13:22:36Z</time>
      </trkpt>
      <trkpt lat="45.69736" lon="4.33591">
        <ele>528.86</ele>
        <time>2016-02-21T13:22:54Z</time>
      </trkpt>
      <trkpt lat="45.69757" lon="4.33619">
        <ele>528.38</ele>
        <time>2016-02-21T13:23:15Z</time>
      </trkpt>
      <trkpt lat="45.69776" lon="4.33644">
        <ele>528.38</ele>
        <time>2016-02-21T13:23:34Z</time>
      </trkpt>
      <trkpt lat="45.69795" lon="4.33664">
        <ele>528.38</ele>
        <time>2016-02-21T13:23:51Z</time>
      </trkpt>
      <trkpt lat="45.69812" lon="4.33682">
        <ele>528.38</ele>
        <time>2016-02-21T13:24:07Z</time>
      </trkpt>
      <trkpt lat="45.69833" lon="4.33709">
        <ele>527.9</ele>
        <time>2016-02-21T13:24:27Z</time>
      </trkpt>
      <trkpt lat="45.69851" lon="4.33731">
        <ele>528.86</ele>
        <time>2016-02-21T13:24:44Z</time>
      </trkpt>
      <trkpt lat="45.69862" lon="4.33746">
        <ele>528.86</ele>
        <time>2016-02-21T13:24:56Z</time>
      </trkpt>
      <trkpt lat="45.69878" lon="4.33769">
        <ele>529.82</ele>
        <time>2016-02-21T13:25:12Z</time>
      </trkpt>
      <trkpt lat="45.69896" lon="4.33794">
        <ele>531.27</ele>
        <time>2016-02-21T13:25:30Z</time>
      </trkpt>
      <trkpt lat="45.69911" lon="4.33815">
        <ele>528.38</ele>
        <time>2016-02-21T13:25:45Z</time>
      </trkpt>
      <trkpt lat="45.69924" lon="4.33836">
        <ele>525.98</ele>
        <time>2016-02-21T13:26:00Z</time>
      </trkpt>
      <trkpt lat="45.69934" lon="4.33862">
        <ele>525.98</ele>
        <time>2016-02-21T13:26:15Z</time>
      </trkpt>
      <trkpt lat="45.69945" lon="4.33882">
        <ele>525.98</ele>
        <time>2016-02-21T13:26:29Z</time>
      </trkpt>
      <trkpt lat="45.69962" lon="4.33903">
        <ele>527.9</ele>
        <time>2016-02-21T13:26:46Z</time>
      </trkpt>
      <trkpt lat="45.69977" lon="4.33922">
        <ele>528.38</ele>
        <time>2016-02-21T13:27:01Z</time>
      </trkpt>
      <trkpt lat="45.7" lon="4.33944">
        <ele>526.46</ele>
        <time>2016-02-21T13:27:20Z</time>
      </trkpt>
      <trkpt lat="45.70009" lon="4.33951">
        <ele>526.46</ele>
        <time>2016-02-21T13:27:28Z</time>
      </trkpt>
      <trkpt lat="45.70029" lon="4.33966">
        <ele>525.98</ele>
        <time>2016-02-21T13:27:45Z</time>
      </trkpt>
      <trkpt lat="45.70043" lon="4.33976">
        <ele>525.98</ele>
        <time>2016-02-21T13:27:57Z</time>
      </trkpt>
      <trkpt lat="45.70066" lon="4.3399">
        <ele>524.54</ele>
        <time>2016-02-21T13:28:15Z</time>
      </trkpt>
      <trkpt lat="45.70082" lon="4.34">
        <ele>523.09</ele>
        <time>2016-02-21T13:28:30Z</time>
      </trkpt>
      <trkpt lat="45.70101" lon="4.34012">
        <ele>523.58</ele>
        <time>2016-02-21T13:28:45Z</time>
      </trkpt>
      <trkpt lat="45.70118" lon="4.34023">
        <ele>524.54</ele>
        <time>2016-02-21T13:28:59Z</time>
      </trkpt>
      <trkpt lat="45.70134" lon="4.34048">
        <ele>524.06</ele>
        <time>2016-02-21T13:29:17Z</time>
      </trkpt>
      <trkpt lat="45.70146" lon="4.3407">
        <ele>521.65</ele>
        <time>2016-02-21T13:29:33Z</time>
      </trkpt>
      <trkpt lat="45.70175" lon="4.34077">
        <ele>521.17</ele>
        <time>2016-02-21T13:29:54Z</time>
      </trkpt>
      <trkpt lat="45.70207" lon="4.34079">
        <ele>518.77</ele>
        <time>2016-02-21T13:30:17Z</time>
      </trkpt>
      <trkpt lat="45.70237" lon="4.34069">
        <ele>514.44</ele>
        <time>2016-02-21T13:30:39Z</time>
      </trkpt>
      <trkpt lat="45.70264" lon="4.34069">
        <ele>512.52</ele>
        <time>2016-02-21T13:30:58Z</time>
      </trkpt>
      <trkpt lat="45.70289" lon="4.34084">
        <ele>510.12</ele>
        <time>2016-02-21T13:31:17Z</time>
      </trkpt>
      <trkpt lat="45.70316" lon="4.34105">
        <ele>505.79</ele>
        <time>2016-02-21T13:31:38Z</time>
      </trkpt>
      <trkpt lat="45.70337" lon="4.34124">
        <ele>503.87</ele>
        <time>2016-02-21T13:31:56Z</time>
      </trkpt>
      <trkpt lat="45.70356" lon="4.34145">
        <ele>503.39</ele>
        <time>2016-02-21T13:32:13Z</time>
      </trkpt>
      <trkpt lat="45.70379" lon="4.34167">
        <ele>502.43</ele>
        <time>2016-02-21T13:32:31Z</time>
      </trkpt>
      <trkpt lat="45.70409" lon="4.34195">
        <ele>501.46</ele>
        <time>2016-02-21T13:32:55Z</time>
      </trkpt>
      <trkpt lat="45.70434" lon="4.34211">
        <ele>502.91</ele>
        <time>2016-02-21T13:33:13Z</time>
      </trkpt>
      <trkpt lat="45.70463" lon="4.34224">
        <ele>502.91</ele>
        <time>2016-02-21T13:33:33Z</time>
      </trkpt>
      <trkpt lat="45.70484" lon="4.34234">
        <ele>505.79</ele>
        <time>2016-02-21T13:33:50Z</time>
      </trkpt>
      <trkpt lat="45.70502" lon="4.34244">
        <ele>508.67</ele>
        <time>2016-02-21T13:34:05Z</time>
      </trkpt>
      <trkpt lat="45.70522" lon="4.34254">
        <ele>511.08</ele>
        <time>2016-02-21T13:34:21Z</time>
      </trkpt>
      <trkpt lat="45.7054" lon="4.34266">
        <ele>512.52</ele>
        <time>2016-02-21T13:34:37Z</time>
      </trkpt>
      <trkpt lat="45.70562" lon="4.34279">
        <ele>515.4</ele>
        <time>2016-02-21T13:34:56Z</time>
      </trkpt>
      <trkpt lat="45.70583" lon="4.34289">
        <ele>518.29</ele>
        <time>2016-02-21T13:35:14Z</time>
      </trkpt>
      <trkpt lat="45.70604" lon="4.34301">
        <ele>521.65</ele>
        <time>2016-02-21T13:35:32Z</time>
      </trkpt>
      <trkpt lat="45.70614" lon="4.3431">
        <ele>522.13</ele>
        <time>2016-02-21T13:35:41Z</time>
      </trkpt>
      <trkpt lat="45.70614" lon="4.34313">
        <ele>522.61</ele>
        <time>2016-02-21T13:35:43Z</time>
      </trkpt>
      <trkpt lat="45.70607" lon="4.34319">
        <ele>522.61</ele>
        <time>2016-02-21T13:35:50Z</time>
      </trkpt>
      <trkpt lat="45.70586" lon="4.34336">
        <ele>523.09</ele>
        <time>2016-02-21T13:36:08Z</time>
      </trkpt>
      <trkpt lat="45.70576" lon="4.34365">
        <ele>525.5</ele>
        <time>2016-02-21T13:36:26Z</time>
      </trkpt>
      <trkpt lat="45.70572" lon="4.34381">
        <ele>526.94</ele>
        <time>2016-02-21T13:36:36Z</time>
      </trkpt>
      <trkpt lat="45.7057" lon="4.34414">
        <ele>526.94</ele>
        <time>2016-02-21T13:36:54Z</time>
      </trkpt>
      <trkpt lat="45.70572" lon="4.34457">
        <ele>526.46</ele>
        <time>2016-02-21T13:37:17Z</time>
      </trkpt>
      <trkpt lat="45.70572" lon="4.34505">
        <ele>526.46</ele>
        <time>2016-02-21T13:37:42Z</time>
      </trkpt>
      <trkpt lat="45.70576" lon="4.34541">
        <ele>527.42</ele>
        <time>2016-02-21T13:38:01Z</time>
      </trkpt>
      <trkpt lat="45.70586" lon="4.34583">
        <ele>528.86</ele>
        <time>2016-02-21T13:38:24Z</time>
      </trkpt>
      <trkpt lat="45.70591" lon="4.3462">
        <ele>530.3</ele>
        <time>2016-02-21T13:38:44Z</time>
      </trkpt>
      <trkpt lat="45.70577" lon="4.34651">
        <ele>531.27</ele>
        <time>2016-02-21T13:39:03Z</time>
      </trkpt>
      <trkpt lat="45.70553" lon="4.3467">
        <ele>532.71</ele>
        <time>2016-02-21T13:39:23Z</time>
      </trkpt>
      <trkpt lat="45.70534" lon="4.34696">
        <ele>535.11</ele>
        <time>2016-02-21T13:39:43Z</time>
      </trkpt>
      <trkpt lat="45.70527" lon="4.34708">
        <ele>535.59</ele>
        <time>2016-02-21T13:39:51Z</time>
      </trkpt>
      <trkpt lat="45.70512" lon="4.34713">
        <ele>537.51</ele>
        <time>2016-02-21T13:40:06Z</time>
      </trkpt>
      <trkpt lat="45.70505" lon="4.34714">
        <ele>538.48</ele>
        <time>2016-02-21T13:40:11Z</time>
      </trkpt>
      <trkpt lat="45.70503" lon="4.34716">
        <ele>538.96</ele>
        <time>2016-02-21T13:40:13Z</time>
      </trkpt>
      <trkpt lat="45.70492" lon="4.3472">
        <ele>539.92</ele>
        <time>2016-02-21T13:40:21Z</time>
      </trkpt>
      <trkpt lat="45.70485" lon="4.34725">
        <ele>539.92</ele>
        <time>2016-02-21T13:40:27Z</time>
      </trkpt>
      <trkpt lat="45.7047" lon="4.34747">
        <ele>538.48</ele>
        <time>2016-02-21T13:40:44Z</time>
      </trkpt>
      <trkpt lat="45.70471" lon="4.34776">
        <ele>541.36</ele>
        <time>2016-02-21T13:41:00Z</time>
      </trkpt>
      <trkpt lat="45.7048" lon="4.34798">
        <ele>543.28</ele>
        <time>2016-02-21T13:41:15Z</time>
      </trkpt>
      <trkpt lat="45.70483" lon="4.34803">
        <ele>544.24</ele>
        <time>2016-02-21T13:41:19Z</time>
      </trkpt>
      <trkpt lat="45.70495" lon="4.34828">
        <ele>547.61</ele>
        <time>2016-02-21T13:41:36Z</time>
      </trkpt>
      <trkpt lat="45.70503" lon="4.3485">
        <ele>550.49</ele>
        <time>2016-02-21T13:41:52Z</time>
      </trkpt>
      <trkpt lat="45.70507" lon="4.34876">
        <ele>552.41</ele>
        <time>2016-02-21T13:42:07Z</time>
      </trkpt>
      <trkpt lat="45.70508" lon="4.34901">
        <ele>555.78</ele>
        <time>2016-02-21T13:42:21Z</time>
      </trkpt>
      <trkpt lat="45.70511" lon="4.34929">
        <ele>559.14</ele>
        <time>2016-02-21T13:42:36Z</time>
      </trkpt>
      <trkpt lat="45.70512" lon="4.34961">
        <ele>562.99</ele>
        <time>2016-02-21T13:42:53Z</time>
      </trkpt>
      <trkpt lat="45.70514" lon="4.34989">
        <ele>565.39</ele>
        <time>2016-02-21T13:43:08Z</time>
      </trkpt>
      <trkpt lat="45.70518" lon="4.35022">
        <ele>567.8</ele>
        <time>2016-02-21T13:43:27Z</time>
      </trkpt>
      <trkpt lat="45.70523" lon="4.35057">
        <ele>568.76</ele>
        <time>2016-02-21T13:43:45Z</time>
      </trkpt>
      <trkpt lat="45.70531" lon="4.35093">
        <ele>568.28</ele>
        <time>2016-02-21T13:44:05Z</time>
      </trkpt>
      <trkpt lat="45.70533" lon="4.35126">
        <ele>568.28</ele>
        <time>2016-02-21T13:44:22Z</time>
      </trkpt>
      <trkpt lat="45.70531" lon="4.35153">
        <ele>567.8</ele>
        <time>2016-02-21T13:44:36Z</time>
      </trkpt>
      <trkpt lat="45.70523" lon="4.35179">
        <ele>565.87</ele>
        <time>2016-02-21T13:44:52Z</time>
      </trkpt>
      <trkpt lat="45.70511" lon="4.35219">
        <ele>563.95</ele>
        <time>2016-02-21T13:45:14Z</time>
      </trkpt>
      <trkpt lat="45.7051" lon="4.35248">
        <ele>564.91</ele>
        <time>2016-02-21T13:45:30Z</time>
      </trkpt>
      <trkpt lat="45.70504" lon="4.35283">
        <ele>566.83</ele>
        <time>2016-02-21T13:45:49Z</time>
      </trkpt>
      <trkpt lat="45.70503" lon="4.35291">
        <ele>567.32</ele>
        <time>2016-02-21T13:45:54Z</time>
      </trkpt>
      <trkpt lat="45.70501" lon="4.35309">
        <ele>568.76</ele>
        <time>2016-02-21T13:46:03Z</time>
      </trkpt>
      <trkpt lat="45.70499" lon="4.35342">
        <ele>571.16</ele>
        <time>2016-02-21T13:46:21Z</time>
      </trkpt>
      <trkpt lat="45.70498" lon="4.35372">
        <ele>573.56</ele>
        <time>2016-02-21T13:46:37Z</time>
      </trkpt>
      <trkpt lat="45.70501" lon="4.35403">
        <ele>576.45</ele>
        <time>2016-02-21T13:46:54Z</time>
      </trkpt>
      <trkpt lat="45.70506" lon="4.35436">
        <ele>578.37</ele>
        <time>2016-02-21T13:47:12Z</time>
      </trkpt>
      <trkpt lat="45.70514" lon="4.35463">
        <ele>580.29</ele>
        <time>2016-02-21T13:47:28Z</time>
      </trkpt>
      <trkpt lat="45.70522" lon="4.35495">
        <ele>581.73</ele>
        <time>2016-02-21T13:47:46Z</time>
      </trkpt>
      <trkpt lat="45.7053" lon="4.35525">
        <ele>584.62</ele>
        <time>2016-02-21T13:48:03Z</time>
      </trkpt>
      <trkpt lat="45.70541" lon="4.35555">
        <ele>586.54</ele>
        <time>2016-02-21T13:48:21Z</time>
      </trkpt>
      <trkpt lat="45.70553" lon="4.35583">
        <ele>587.02</ele>
        <time>2016-02-21T13:48:38Z</time>
      </trkpt>
      <trkpt lat="45.70556" lon="4.35588">
        <ele>586.54</ele>
        <time>2016-02-21T13:48:42Z</time>
      </trkpt>
      <trkpt lat="45.7057" lon="4.35619">
        <ele>586.54</ele>
        <time>2016-02-21T13:49:01Z</time>
      </trkpt>
      <trkpt lat="45.70566" lon="4.35652">
        <ele>583.66</ele>
        <time>2016-02-21T13:49:18Z</time>
      </trkpt>
      <trkpt lat="45.70547" lon="4.35679">
        <ele>581.73</ele>
        <time>2016-02-21T13:49:37Z</time>
      </trkpt>
      <trkpt lat="45.70525" lon="4.35706">
        <ele>578.85</ele>
        <time>2016-02-21T13:49:57Z</time>
      </trkpt>
      <trkpt lat="45.70503" lon="4.35737">
        <ele>577.89</ele>
        <time>2016-02-21T13:50:19Z</time>
      </trkpt>
      <trkpt lat="45.70486" lon="4.3576">
        <ele>579.33</ele>
        <time>2016-02-21T13:50:37Z</time>
      </trkpt>
      <trkpt lat="45.70472" lon="4.35776">
        <ele>579.81</ele>
        <time>2016-02-21T13:50:50Z</time>
      </trkpt>
      <trkpt lat="45.70454" lon="4.358">
        <ele>581.25</ele>
        <time>2016-02-21T13:51:08Z</time>
      </trkpt>
      <trkpt lat="45.70443" lon="4.35814">
        <ele>581.73</ele>
        <time>2016-02-21T13:51:20Z</time>
      </trkpt>
      <trkpt lat="45.70425" lon="4.35838">
        <ele>584.14</ele>
        <time>2016-02-21T13:51:38Z</time>
      </trkpt>
      <trkpt lat="45.7041" lon="4.35858">
        <ele>586.06</ele>
        <time>2016-02-21T13:51:56Z</time>
      </trkpt>
      <trkpt lat="45.70405" lon="4.35867">
        <ele>586.54</ele>
        <time>2016-02-21T13:52:09Z</time>
      </trkpt>
      <trkpt lat="45.70399" lon="4.35869">
        <ele>587.02</ele>
        <time>2016-02-21T13:52:22Z</time>
      </trkpt>
      <trkpt lat="45.70399" lon="4.35871">
        <ele>587.02</ele>
        <time>2016-02-21T13:52:33Z</time>
      </trkpt>
      <trkpt lat="45.70394" lon="4.3587">
        <ele>586.54</ele>
        <time>2016-02-21T13:52:43Z</time>
      </trkpt>
      <trkpt lat="45.70392" lon="4.35869">
        <ele>586.06</ele>
        <time>2016-02-21T13:52:58Z</time>
      </trkpt>
      <trkpt lat="45.70391" lon="4.3587">
        <ele>586.06</ele>
        <time>2016-02-21T13:53:12Z</time>
      </trkpt>
      <trkpt lat="45.70387" lon="4.35867">
        <ele>585.58</ele>
        <time>2016-02-21T13:53:16Z</time>
      </trkpt>
      <trkpt lat="45.70362" lon="4.35852">
        <ele>585.1</ele>
        <time>2016-02-21T13:53:36Z</time>
      </trkpt>
      <trkpt lat="45.70334" lon="4.35839">
        <ele>584.62</ele>
        <time>2016-02-21T13:53:57Z</time>
      </trkpt>
      <trkpt lat="45.70304" lon="4.35827">
        <ele>585.1</ele>
        <time>2016-02-21T13:54:19Z</time>
      </trkpt>
      <trkpt lat="45.70273" lon="4.35825">
        <ele>585.58</ele>
        <time>2016-02-21T13:54:40Z</time>
      </trkpt>
      <trkpt lat="45.70244" lon="4.35827">
        <ele>586.54</ele>
        <time>2016-02-21T13:55:01Z</time>
      </trkpt>
      <trkpt lat="45.70216" lon="4.35833">
        <ele>585.1</ele>
        <time>2016-02-21T13:55:21Z</time>
      </trkpt>
      <trkpt lat="45.70186" lon="4.35837">
        <ele>584.62</ele>
        <time>2016-02-21T13:55:41Z</time>
      </trkpt>
      <trkpt lat="45.70156" lon="4.35839">
        <ele>583.66</ele>
        <time>2016-02-21T13:56:02Z</time>
      </trkpt>
      <trkpt lat="45.7013" lon="4.35841">
        <ele>582.22</ele>
        <time>2016-02-21T13:56:21Z</time>
      </trkpt>
      <trkpt lat="45.70115" lon="4.35843">
        <ele>582.22</ele>
        <time>2016-02-21T13:56:32Z</time>
      </trkpt>
      <trkpt lat="45.70097" lon="4.35844">
        <ele>581.73</ele>
        <time>2016-02-21T13:56:42Z</time>
      </trkpt>
      <trkpt lat="45.70079" lon="4.35843">
        <ele>577.89</ele>
        <time>2016-02-21T13:56:56Z</time>
      </trkpt>
      <trkpt lat="45.70049" lon="4.35844">
        <ele>576.45</ele>
        <time>2016-02-21T13:57:18Z</time>
      </trkpt>
      <trkpt lat="45.70016" lon="4.35845">
        <ele>574.04</ele>
        <time>2016-02-21T13:57:40Z</time>
      </trkpt>
      <trkpt lat="45.69987" lon="4.35847">
        <ele>572.6</ele>
        <time>2016-02-21T13:58:00Z</time>
      </trkpt>
      <trkpt lat="45.69956" lon="4.35844">
        <ele>570.68</ele>
        <time>2016-02-21T13:58:22Z</time>
      </trkpt>
      <trkpt lat="45.69926" lon="4.3584">
        <ele>569.72</ele>
        <time>2016-02-21T13:58:44Z</time>
      </trkpt>
      <trkpt lat="45.69902" lon="4.35842">
        <ele>569.72</ele>
        <time>2016-02-21T13:59:01Z</time>
      </trkpt>
      <trkpt lat="45.6988" lon="4.35844">
        <ele>570.2</ele>
        <time>2016-02-21T13:59:18Z</time>
      </trkpt>
      <trkpt lat="45.69861" lon="4.35845">
        <ele>570.68</ele>
        <time>2016-02-21T13:59:33Z</time>
      </trkpt>
      <trkpt lat="45.69832" lon="4.35848">
        <ele>571.64</ele>
        <time>2016-02-21T13:59:54Z</time>
      </trkpt>
      <trkpt lat="45.69807" lon="4.3585">
        <ele>571.64</ele>
        <time>2016-02-21T14:00:12Z</time>
      </trkpt>
      <trkpt lat="45.69784" lon="4.35853">
        <ele>571.64</ele>
        <time>2016-02-21T14:00:30Z</time>
      </trkpt>
      <trkpt lat="45.69758" lon="4.3585">
        <ele>572.12</ele>
        <time>2016-02-21T14:00:49Z</time>
      </trkpt>
      <trkpt lat="45.69731" lon="4.35836">
        <ele>572.6</ele>
        <time>2016-02-21T14:01:09Z</time>
      </trkpt>
      <trkpt lat="45.69705" lon="4.35818">
        <ele>570.68</ele>
        <time>2016-02-21T14:01:30Z</time>
      </trkpt>
      <trkpt lat="45.69678" lon="4.358">
        <ele>570.2</ele>
        <time>2016-02-21T14:01:52Z</time>
      </trkpt>
      <trkpt lat="45.69656" lon="4.35784">
        <ele>567.32</ele>
        <time>2016-02-21T14:02:10Z</time>
      </trkpt>
      <trkpt lat="45.69636" lon="4.35772">
        <ele>564.43</ele>
        <time>2016-02-21T14:02:26Z</time>
      </trkpt>
      <trkpt lat="45.69615" lon="4.35756">
        <ele>562.51</ele>
        <time>2016-02-21T14:02:44Z</time>
      </trkpt>
      <trkpt lat="45.696" lon="4.35737">
        <ele>560.59</ele>
        <time>2016-02-21T14:02:59Z</time>
      </trkpt>
      <trkpt lat="45.69597" lon="4.35735">
        <ele>560.59</ele>
        <time>2016-02-21T14:03:02Z</time>
      </trkpt>
      <trkpt lat="45.69578" lon="4.35712">
        <ele>556.26</ele>
        <time>2016-02-21T14:03:21Z</time>
      </trkpt>
      <trkpt lat="45.69559" lon="4.35696">
        <ele>553.38</ele>
        <time>2016-02-21T14:03:39Z</time>
      </trkpt>
      <trkpt lat="45.69545" lon="4.35674">
        <ele>551.93</ele>
        <time>2016-02-21T14:03:55Z</time>
      </trkpt>
      <trkpt lat="45.6954" lon="4.35652">
        <ele>551.45</ele>
        <time>2016-02-21T14:04:08Z</time>
      </trkpt>
      <trkpt lat="45.69541" lon="4.35624">
        <ele>549.53</ele>
        <time>2016-02-21T14:04:23Z</time>
      </trkpt>
      <trkpt lat="45.6952" lon="4.3561">
        <ele>544.72</ele>
        <time>2016-02-21T14:04:39Z</time>
      </trkpt>
      <trkpt lat="45.69493" lon="4.35596">
        <ele>541.84</ele>
        <time>2016-02-21T14:05:00Z</time>
      </trkpt>
      <trkpt lat="45.69465" lon="4.35582">
        <ele>539.44</ele>
        <time>2016-02-21T14:05:20Z</time>
      </trkpt>
      <trkpt lat="45.6944" lon="4.3557">
        <ele>536.07</ele>
        <time>2016-02-21T14:05:38Z</time>
      </trkpt>
      <trkpt lat="45.69414" lon="4.35557">
        <ele>532.23</ele>
        <time>2016-02-21T14:05:58Z</time>
      </trkpt>
      <trkpt lat="45.69396" lon="4.35539">
        <ele>530.79</ele>
        <time>2016-02-21T14:06:15Z</time>
      </trkpt>
      <trkpt lat="45.69382" lon="4.35515">
        <ele>528.86</ele>
        <time>2016-02-21T14:06:31Z</time>
      </trkpt>
      <trkpt lat="45.69359" lon="4.35499">
        <ele>524.06</ele>
        <time>2016-02-21T14:06:51Z</time>
      </trkpt>
      <trkpt lat="45.69353" lon="4.35497">
        <ele>522.61</ele>
        <time>2016-02-21T14:06:56Z</time>
      </trkpt>
      <trkpt lat="45.69332" lon="4.35474">
        <ele>520.21</ele>
        <time>2016-02-21T14:07:14Z</time>
      </trkpt>
      <trkpt lat="45.69318" lon="4.3547">
        <ele>519.25</ele>
        <time>2016-02-21T14:07:27Z</time>
      </trkpt>
      <trkpt lat="45.69295" lon="4.35484">
        <ele>513.48</ele>
        <time>2016-02-21T14:07:45Z</time>
      </trkpt>
      <trkpt lat="45.69282" lon="4.35509">
        <ele>509.64</ele>
        <time>2016-02-21T14:08:02Z</time>
      </trkpt>
      <trkpt lat="45.69278" lon="4.35535">
        <ele>505.79</ele>
        <time>2016-02-21T14:08:16Z</time>
      </trkpt>
      <trkpt lat="45.69276" lon="4.35548">
        <ele>504.83</ele>
        <time>2016-02-21T14:08:23Z</time>
      </trkpt>
      <trkpt lat="45.69272" lon="4.35579">
        <ele>504.35</ele>
        <time>2016-02-21T14:08:41Z</time>
      </trkpt>
      <trkpt lat="45.69268" lon="4.35596">
        <ele>504.35</ele>
        <time>2016-02-21T14:08:50Z</time>
      </trkpt>
      <trkpt lat="45.69264" lon="4.35621">
        <ele>504.35</ele>
        <time>2016-02-21T14:09:04Z</time>
      </trkpt>
      <trkpt lat="45.69248" lon="4.35644">
        <ele>503.39</ele>
        <time>2016-02-21T14:09:20Z</time>
      </trkpt>
      <trkpt lat="45.6923" lon="4.35657">
        <ele>500.5</ele>
        <time>2016-02-21T14:09:35Z</time>
      </trkpt>
      <trkpt lat="45.69202" lon="4.35661">
        <ele>498.1</ele>
        <time>2016-02-21T14:09:54Z</time>
      </trkpt>
      <trkpt lat="45.69186" lon="4.3565">
        <ele>497.62</ele>
        <time>2016-02-21T14:10:08Z</time>
      </trkpt>
      <trkpt lat="45.69171" lon="4.35643">
        <ele>498.1</ele>
        <time>2016-02-21T14:10:21Z</time>
      </trkpt>
      <trkpt lat="45.69156" lon="4.35635">
        <ele>500.02</ele>
        <time>2016-02-21T14:10:36Z</time>
      </trkpt>
      <trkpt lat="45.69153" lon="4.35632">
        <ele>501.46</ele>
        <time>2016-02-21T14:10:48Z</time>
      </trkpt>
      <trkpt lat="45.69142" lon="4.35624">
        <ele>502.91</ele>
        <time>2016-02-21T14:11:02Z</time>
      </trkpt>
      <trkpt lat="45.6912" lon="4.35617">
        <ele>504.35</ele>
        <time>2016-02-21T14:11:16Z</time>
      </trkpt>
      <trkpt lat="45.69107" lon="4.35616">
        <ele>505.31</ele>
        <time>2016-02-21T14:11:30Z</time>
      </trkpt>
      <trkpt lat="45.69106" lon="4.35616">
        <ele>505.79</ele>
        <time>2016-02-21T14:11:31Z</time>
      </trkpt>
      <trkpt lat="45.69085" lon="4.35617">
        <ele>504.35</ele>
        <time>2016-02-21T14:11:46Z</time>
      </trkpt>
      <trkpt lat="45.69071" lon="4.35618">
        <ele>506.27</ele>
        <time>2016-02-21T14:12:00Z</time>
      </trkpt>
      <trkpt lat="45.69068" lon="4.35619">
        <ele>506.27</ele>
        <time>2016-02-21T14:12:02Z</time>
      </trkpt>
      <trkpt lat="45.69049" lon="4.35622">
        <ele>510.12</ele>
        <time>2016-02-21T14:12:17Z</time>
      </trkpt>
      <trkpt lat="45.69035" lon="4.35623">
        <ele>515.4</ele>
        <time>2016-02-21T14:12:32Z</time>
      </trkpt>
      <trkpt lat="45.6902" lon="4.35626">
        <ele>517.33</ele>
        <time>2016-02-21T14:12:45Z</time>
      </trkpt>
      <trkpt lat="45.69002" lon="4.35634">
        <ele>522.13</ele>
        <time>2016-02-21T14:13:01Z</time>
      </trkpt>
      <trkpt lat="45.6899" lon="4.3564">
        <ele>525.02</ele>
        <time>2016-02-21T14:13:15Z</time>
      </trkpt>
      <trkpt lat="45.68975" lon="4.35646">
        <ele>527.42</ele>
        <time>2016-02-21T14:13:31Z</time>
      </trkpt>
      <trkpt lat="45.68958" lon="4.35655">
        <ele>530.79</ele>
        <time>2016-02-21T14:13:47Z</time>
      </trkpt>
      <trkpt lat="45.68955" lon="4.35658">
        <ele>531.27</ele>
        <time>2016-02-21T14:13:51Z</time>
      </trkpt>
      <trkpt lat="45.6894" lon="4.35675">
        <ele>533.67</ele>
        <time>2016-02-21T14:14:06Z</time>
      </trkpt>
      <trkpt lat="45.68927" lon="4.35686">
        <ele>537.03</ele>
        <time>2016-02-21T14:14:19Z</time>
      </trkpt>
      <trkpt lat="45.68922" lon="4.35693">
        <ele>539.92</ele>
        <time>2016-02-21T14:14:26Z</time>
      </trkpt>
      <trkpt lat="45.68907" lon="4.35709">
        <ele>544.24</ele>
        <time>2016-02-21T14:14:41Z</time>
      </trkpt>
      <trkpt lat="45.68902" lon="4.35716">
        <ele>545.2</ele>
        <time>2016-02-21T14:14:46Z</time>
      </trkpt>
      <trkpt lat="45.68904" lon="4.3573">
        <ele>547.61</ele>
        <time>2016-02-21T14:14:52Z</time>
      </trkpt>
      <trkpt lat="45.68905" lon="4.35749">
        <ele>550.97</ele>
        <time>2016-02-21T14:15:03Z</time>
      </trkpt>
      <trkpt lat="45.68905" lon="4.35761">
        <ele>551.93</ele>
        <time>2016-02-21T14:15:09Z</time>
      </trkpt>
      <trkpt lat="45.68906" lon="4.35795">
        <ele>554.34</ele>
        <time>2016-02-21T14:15:26Z</time>
      </trkpt>
      <trkpt lat="45.68909" lon="4.35835">
        <ele>557.22</ele>
        <time>2016-02-21T14:15:45Z</time>
      </trkpt>
      <trkpt lat="45.68905" lon="4.35866">
        <ele>556.26</ele>
        <time>2016-02-21T14:16:00Z</time>
      </trkpt>
      <trkpt lat="45.68878" lon="4.35891">
        <ele>555.3</ele>
        <time>2016-02-21T14:16:19Z</time>
      </trkpt>
      <trkpt lat="45.68854" lon="4.35903">
        <ele>559.14</ele>
        <time>2016-02-21T14:16:36Z</time>
      </trkpt>
      <trkpt lat="45.68828" lon="4.35909">
        <ele>561.55</ele>
        <time>2016-02-21T14:16:53Z</time>
      </trkpt>
      <trkpt lat="45.6881" lon="4.35913">
        <ele>562.99</ele>
        <time>2016-02-21T14:17:08Z</time>
      </trkpt>
      <trkpt lat="45.68797" lon="4.35912">
        <ele>564.43</ele>
        <time>2016-02-21T14:17:17Z</time>
      </trkpt>
      <trkpt lat="45.68796" lon="4.35906">
        <ele>564.91</ele>
        <time>2016-02-21T14:17:20Z</time>
      </trkpt>
      <trkpt lat="45.68794" lon="4.35884">
        <ele>563.95</ele>
        <time>2016-02-21T14:17:34Z</time>
      </trkpt>
      <trkpt lat="45.68793" lon="4.3588">
        <ele>563.47</ele>
        <time>2016-02-21T14:17:37Z</time>
      </trkpt>
      <trkpt lat="45.68795" lon="4.35868">
        <ele>562.51</ele>
        <time>2016-02-21T14:17:51Z</time>
      </trkpt>
      <trkpt lat="45.68794" lon="4.35866">
        <ele>561.55</ele>
        <time>2016-02-21T14:18:14Z</time>
      </trkpt>
      <trkpt lat="45.68793" lon="4.35867">
        <ele>563.47</ele>
        <time>2016-02-21T14:18:46Z</time>
      </trkpt>
      <trkpt lat="45.68793" lon="4.35867">
        <ele>566.35</ele>
        <time>2016-02-21T14:19:19Z</time>
      </trkpt>
      <trkpt lat="45.68793" lon="4.35866">
        <ele>568.28</ele>
        <time>2016-02-21T14:19:57Z</time>
      </trkpt>
      <trkpt lat="45.68793" lon="4.35866">
        <ele>568.76</ele>
        <time>2016-02-21T14:20:21Z</time>
      </trkpt>
      <trkpt lat="45.68793" lon="4.35867">
        <ele>569.24</ele>
        <time>2016-02-21T14:20:53Z</time>
      </trkpt>
      <trkpt lat="45.68793" lon="4.35868">
        <ele>570.2</ele>
        <time>2016-02-21T14:21:31Z</time>
      </trkpt>
      <trkpt lat="45.68793" lon="4.35868">
        <ele>570.68</ele>
        <time>2016-02-21T14:22:08Z</time>
      </trkpt>
      <trkpt lat="45.68793" lon="4.35868">
        <ele>572.12</ele>
        <time>2016-02-21T14:22:43Z</time>
      </trkpt>
      <trkpt lat="45.68793" lon="4.35868">
        <ele>573.08</ele>
        <time>2016-02-21T14:23:18Z</time>
      </trkpt>
      <trkpt lat="45.68793" lon="4.35869">
        <ele>574.04</ele>
        <time>2016-02-21T14:24:01Z</time>
      </trkpt>
      <trkpt lat="45.68793" lon="4.3587">
        <ele>575.01</ele>
        <time>2016-02-21T14:24:44Z</time>
      </trkpt>
      <trkpt lat="45.68793" lon="4.3587">
        <ele>575.01</ele>
        <time>2016-02-21T14:25:25Z</time>
      </trkpt>
      <trkpt lat="45.68793" lon="4.35871">
        <ele>575.49</ele>
        <time>2016-02-21T14:26:08Z</time>
      </trkpt>
      <trkpt lat="45.68793" lon="4.35872">
        <ele>575.97</ele>
        <time>2016-02-21T14:26:45Z</time>
      </trkpt>
      <trkpt lat="45.68793" lon="4.35873">
        <ele>576.45</ele>
        <time>2016-02-21T14:27:22Z</time>
      </trkpt>
      <trkpt lat="45.68793" lon="4.35873">
        <ele>576.45</ele>
        <time>2016-02-21T14:28:02Z</time>
      </trkpt>
      <trkpt lat="45.68792" lon="4.35873">
        <ele>577.41</ele>
        <time>2016-02-21T14:28:40Z</time>
      </trkpt>
      <trkpt lat="45.68792" lon="4.35872">
        <ele>577.41</ele>
        <time>2016-02-21T14:29:12Z</time>
      </trkpt>
      <trkpt lat="45.68792" lon="4.35872">
        <ele>577.41</ele>
        <time>2016-02-21T14:29:47Z</time>
      </trkpt>
      <trkpt lat="45.68791" lon="4.35871">
        <ele>577.89</ele>
        <time>2016-02-21T14:30:21Z</time>
      </trkpt>
      <trkpt lat="45.68791" lon="4.3587">
        <ele>577.89</ele>
        <time>2016-02-21T14:30:58Z</time>
      </trkpt>
      <trkpt lat="45.6879" lon="4.3587">
        <ele>578.37</ele>
        <time>2016-02-21T14:31:37Z</time>
      </trkpt>
      <trkpt lat="45.68789" lon="4.3587">
        <ele>579.33</ele>
        <time>2016-02-21T14:32:17Z</time>
      </trkpt>
      <trkpt lat="45.68788" lon="4.3587">
        <ele>579.33</ele>
        <time>2016-02-21T14:32:52Z</time>
      </trkpt>
      <trkpt lat="45.68787" lon="4.3587">
        <ele>579.81</ele>
        <time>2016-02-21T14:33:32Z</time>
      </trkpt>
      <trkpt lat="45.68786" lon="4.35869">
        <ele>579.81</ele>
        <time>2016-02-21T14:34:12Z</time>
      </trkpt>
      <trkpt lat="45.68786" lon="4.35868">
        <ele>578.37</ele>
        <time>2016-02-21T14:34:57Z</time>
      </trkpt>
      <trkpt lat="45.68786" lon="4.35868">
        <ele>577.89</ele>
        <time>2016-02-21T14:35:35Z</time>
      </trkpt>
      <trkpt lat="45.68785" lon="4.35867">
        <ele>577.89</ele>
        <time>2016-02-21T14:36:14Z</time>
      </trkpt>
      <trkpt lat="45.68785" lon="4.35867">
        <ele>577.89</ele>
        <time>2016-02-21T14:36:49Z</time>
      </trkpt>
      <trkpt lat="45.68786" lon="4.35867">
        <ele>579.33</ele>
        <time>2016-02-21T14:37:34Z</time>
      </trkpt>
      <trkpt lat="45.68786" lon="4.35867">
        <ele>579.81</ele>
        <time>2016-02-21T14:38:02Z</time>
      </trkpt>
      <trkpt lat="45.68786" lon="4.35868">
        <ele>579.81</ele>
        <time>2016-02-21T14:38:37Z</time>
      </trkpt>
      <trkpt lat="45.68786" lon="4.35868">
        <ele>579.81</ele>
        <time>2016-02-21T14:39:15Z</time>
      </trkpt>
      <trkpt lat="45.68787" lon="4.35868">
        <ele>579.81</ele>
        <time>2016-02-21T14:39:54Z</time>
      </trkpt>
      <trkpt lat="45.68787" lon="4.35867">
        <ele>579.81</ele>
        <time>2016-02-21T14:40:25Z</time>
      </trkpt>
      <trkpt lat="45.68787" lon="4.35866">
        <ele>579.81</ele>
        <time>2016-02-21T14:40:58Z</time>
      </trkpt>
      <trkpt lat="45.68787" lon="4.35866">
        <ele>579.33</ele>
        <time>2016-02-21T14:41:35Z</time>
      </trkpt>
      <trkpt lat="45.68788" lon="4.35866">
        <ele>578.85</ele>
        <time>2016-02-21T14:42:09Z</time>
      </trkpt>
      <trkpt lat="45.68788" lon="4.35867">
        <ele>577.89</ele>
        <time>2016-02-21T14:42:45Z</time>
      </trkpt>
      <trkpt lat="45.68788" lon="4.35866">
        <ele>576.93</ele>
        <time>2016-02-21T14:43:21Z</time>
      </trkpt>
      <trkpt lat="45.68788" lon="4.35866">
        <ele>575.97</ele>
        <time>2016-02-21T14:43:56Z</time>
      </trkpt>
      <trkpt lat="45.68789" lon="4.35866">
        <ele>575.49</ele>
        <time>2016-02-21T14:44:35Z</time>
      </trkpt>
      <trkpt lat="45.68789" lon="4.35866">
        <ele>575.01</ele>
        <time>2016-02-21T14:45:09Z</time>
      </trkpt>
      <trkpt lat="45.68788" lon="4.35865">
        <ele>574.53</ele>
        <time>2016-02-21T14:45:41Z</time>
      </trkpt>
      <trkpt lat="45.68788" lon="4.35864">
        <ele>574.53</ele>
        <time>2016-02-21T14:46:13Z</time>
      </trkpt>
      <trkpt lat="45.68787" lon="4.35864">
        <ele>574.53</ele>
        <time>2016-02-21T14:46:40Z</time>
      </trkpt>
      <trkpt lat="45.68787" lon="4.35865">
        <ele>574.53</ele>
        <time>2016-02-21T14:47:13Z</time>
      </trkpt>
      <trkpt lat="45.68786" lon="4.35866">
        <ele>574.04</ele>
        <time>2016-02-21T14:47:45Z</time>
      </trkpt>
      <trkpt lat="45.68786" lon="4.35867">
        <ele>573.56</ele>
        <time>2016-02-21T14:48:22Z</time>
      </trkpt>
      <trkpt lat="45.68785" lon="4.35867">
        <ele>573.56</ele>
        <time>2016-02-21T14:48:57Z</time>
      </trkpt>
      <trkpt lat="45.68784" lon="4.35867">
        <ele>573.08</ele>
        <time>2016-02-21T14:49:33Z</time>
      </trkpt>
      <trkpt lat="45.68785" lon="4.35867">
        <ele>572.6</ele>
        <time>2016-02-21T14:50:07Z</time>
      </trkpt>
      <trkpt lat="45.68785" lon="4.35867">
        <ele>573.08</ele>
        <time>2016-02-21T14:50:42Z</time>
      </trkpt>
      <trkpt lat="45.68785" lon="4.35866">
        <ele>573.08</ele>
        <time>2016-02-21T14:51:16Z</time>
      </trkpt>
      <trkpt lat="45.68784" lon="4.35866">
        <ele>573.56</ele>
        <time>2016-02-21T14:51:53Z</time>
      </trkpt>
      <trkpt lat="45.68784" lon="4.35866">
        <ele>573.56</ele>
        <time>2016-02-21T14:52:28Z</time>
      </trkpt>
      <trkpt lat="45.68784" lon="4.35866">
        <ele>574.04</ele>
        <time>2016-02-21T14:53:04Z</time>
      </trkpt>
      <trkpt lat="45.68784" lon="4.35865">
        <ele>574.53</ele>
        <time>2016-02-21T14:53:39Z</time>
      </trkpt>
      <trkpt lat="45.68784" lon="4.35865">
        <ele>575.01</ele>
        <time>2016-02-21T14:54:16Z</time>
      </trkpt>
      <trkpt lat="45.68783" lon="4.35865">
        <ele>575.49</ele>
        <time>2016-02-21T14:54:54Z</time>
      </trkpt>
      <trkpt lat="45.68783" lon="4.35864">
        <ele>575.49</ele>
        <time>2016-02-21T14:55:22Z</time>
      </trkpt>
      <trkpt lat="45.68783" lon="4.35864">
        <ele>575.49</ele>
        <time>2016-02-21T14:55:59Z</time>
      </trkpt>
      <trkpt lat="45.68784" lon="4.35865">
        <ele>575.49</ele>
        <time>2016-02-21T14:56:28Z</time>
      </trkpt>
      <trkpt lat="45.68786" lon="4.35864">
        <ele>574.04</ele>
        <time>2016-02-21T14:56:40Z</time>
      </trkpt>
      <trkpt lat="45.68787" lon="4.35864">
        <ele>573.56</ele>
        <time>2016-02-21T14:56:56Z</time>
      </trkpt>
      <trkpt lat="45.68787" lon="4.35864">
        <ele>573.08</ele>
        <time>2016-02-21T14:57:27Z</time>
      </trkpt>
    </trkseg>
  </trk>
</gpx>